[[{"header":{"parameterUnit":"m.s-1","parameterCategory":1,"la1":30.6,"la2":29.2853,"lo1":-89.7004,"lo2":-87.6739,"dy":0.0162,"dx":0.0183,"nx":112,"ny":82,"refTime":"2023-05-25T18:00:00:Z","depth":0,"parameterNumber":2,"parameterNumberName":"U-component_of_WINDS"},"data":[0.0,0.0,0.0,0.0,0.0,0.0,0.0,0.0,0.0,0.0,0.0,0.0,0.0,0.0,0.0,0.0,0.0,0.0,0.0,0.0,0.0,0.0,0.0,0.0,0.0,0.0,0.0,0.0,0.0,0.0,0.0,0.0,0.0,0.0,0.0,0.0,0.0,0.0,0.0,0.0,0.0,0.0,0.0,0.0,0.0,0.0,0.0,0.0,0.0,0.0,0.0,0.0,0.0,0.0,0.0,0.0,0.0,0.0,0.0,0.0,0.0,0.0,0.0,0.0,0.0,0.0,0.0,0.0,0.0,0.0,0.0,0.0,0.0,0.0,0.0,0.0,0.0,0.0,0.0,0.0,0.0,0.0,0.0,0.0,0.0,0.0,0.0,0.0,0.0,0.0,3.2239,3.3723,3.5969,3.7452,3.7548,3.6984,3.5845,3.3981,0.0,0.0,0.0,0.0,0.0,0.0,0.0,0.0,0.0,0.0,0.0,0.0,0.0,0.0,0.0,0.0,0.0,0.0,0.0,0.0,0.0,0.0,0.0,0.0,0.0,0.0,0.0,0.0,0.0,0.0,0.0,0.0,0.0,0.0,0.0,0.0,0.0,0.0,0.0,0.0,0.0,0.0,0.0,0.0,0.0,0.0,0.0,0.0,0.0,0.0,0.0,0.0,0.0,0.0,0.0,0.0,0.0,0.0,0.0,0.0,0.0,0.0,0.0,0.0,0.0,0.0,0.0,0.0,0.0,0.0,0.0,0.0,0.0,0.0,0.0,0.0,0.0,0.0,0.0,0.0,0.0,0.0,0.0,0.0,0.0,0.0,0.0,0.0,0.0,0.0,0.0,0.0,0.0,0.0,0.0,0.0,0.0,0.0,0.0,0.0,0.0,0.0,0.0,0.0,3.3081,3.5667,3.7054,3.7682,3.7375,3.5871,3.4481,3.3327,0.0,0.0,0.0,0.0,0.0,0.0,0.0,0.0,0.0,0.0,0.0,0.0,0.0,0.0,0.0,0.0,0.0,0.0,0.0,0.0,0.0,0.0,0.0,0.0,0.0,0.0,0.0,0.0,0.0,0.0,0.0,0.0,0.0,0.0,0.0,0.0,0.0,0.0,0.0,0.0,0.0,0.0,0.0,0.0,0.0,0.0,0.0,0.0,0.0,0.0,0.0,0.0,0.0,0.0,0.0,0.0,0.0,0.0,0.0,0.0,0.0,0.0,0.0,0.0,0.0,0.0,0.0,0.0,0.0,0.0,0.0,0.0,0.0,0.0,0.0,0.0,0.0,0.0,0.0,0.0,0.0,0.0,0.0,0.0,0.0,0.0,0.0,0.0,0.0,0.0,0.0,0.0,0.0,0.0,0.0,0.0,0.0,0.0,0.0,0.0,0.0,0.0,0.0,3.3182,3.4508,3.6817,3.7472,3.7586,3.7153,3.595,3.4605,3.3198,3.283,0.0,0.0,0.0,0.0,0.0,0.0,0.0,0.0,0.0,0.0,0.0,0.0,0.0,0.0,0.0,0.0,0.0,0.0,0.0,0.0,0.0,0.0,0.0,0.0,0.0,0.0,0.0,0.0,0.0,0.0,0.0,0.0,0.0,0.0,0.0,0.0,0.0,0.0,0.0,0.0,0.0,0.0,0.0,0.0,0.0,0.0,0.0,0.0,0.0,0.0,0.0,0.0,0.0,0.0,0.0,0.0,0.0,0.0,0.0,0.0,0.0,0.0,0.0,0.0,0.0,0.0,0.0,0.0,0.0,0.0,0.0,0.0,0.0,0.0,0.0,0.0,0.0,0.0,0.0,0.0,0.0,0.0,0.0,0.0,0.0,0.0,0.0,0.0,0.0,0.0,0.0,0.0,0.0,0.0,0.0,0.0,0.0,0.0,0.0,0.0,0.0,0.0,3.5133,3.6099,3.773,3.7834,3.7545,3.6987,3.5844,3.4539,3.3099,3.2135,0.0,0.0,0.0,0.0,0.0,0.0,0.0,0.0,0.0,0.0,0.0,0.0,0.0,0.0,0.0,0.0,0.0,0.0,0.0,0.0,0.0,0.0,0.0,0.0,0.0,0.0,0.0,0.0,0.0,0.0,0.0,0.0,0.0,0.0,0.0,0.0,0.0,0.0,0.0,0.0,0.0,0.0,0.0,0.0,0.0,0.0,0.0,0.0,0.0,0.0,0.0,0.0,0.0,0.0,0.0,0.0,0.0,0.0,0.0,0.0,0.0,0.0,0.0,0.0,0.0,0.0,0.0,0.0,0.0,0.0,0.0,0.0,0.0,0.0,0.0,0.0,0.0,0.0,0.0,0.0,0.0,0.0,0.0,0.0,0.0,0.0,0.0,0.0,0.0,0.0,0.0,0.0,0.0,0.0,0.0,0.0,0.0,0.0,0.0,0.0,0.0,0.0,3.6588,3.7624,3.8697,3.8471,3.7851,3.6819,3.4784,3.3329,3.2765,3.1158,0.0,0.0,0.0,0.0,0.0,0.0,0.0,0.0,0.0,0.0,0.0,0.0,0.0,0.0,0.0,0.0,0.0,0.0,0.0,0.0,0.0,0.0,0.0,0.0,0.0,0.0,0.0,0.0,0.0,0.0,0.0,0.0,0.0,0.0,0.0,0.0,0.0,0.0,0.0,0.0,0.0,0.0,0.0,0.0,0.0,0.0,0.0,0.0,0.0,0.0,0.0,0.0,0.0,0.0,0.0,0.0,0.0,0.0,0.0,0.0,0.0,0.0,0.0,0.0,0.0,0.0,0.0,0.0,0.0,0.0,0.0,0.0,0.0,0.0,0.0,0.0,0.0,0.0,0.0,0.0,0.0,0.0,0.0,0.0,0.0,0.0,0.0,0.0,0.0,0.0,0.0,0.0,0.0,0.0,0.0,0.0,0.0,0.0,0.0,0.0,0.0,0.0,3.6769,3.7539,3.8609,3.8079,3.7357,3.6583,3.5103,3.3773,3.2778,0.0,0.0,0.0,0.0,0.0,0.0,0.0,0.0,0.0,0.0,0.0,0.0,0.0,0.0,0.0,0.0,0.0,0.0,0.0,0.0,0.0,0.0,0.0,0.0,0.0,0.0,0.0,0.0,0.0,0.0,0.0,0.0,0.0,0.0,0.0,0.0,0.0,0.0,0.0,0.0,0.0,0.0,0.0,0.0,0.0,0.0,0.0,0.0,0.0,0.0,0.0,0.0,0.0,0.0,0.0,0.0,0.0,0.0,0.0,0.0,0.0,0.0,0.0,0.0,0.0,0.0,0.0,0.0,0.0,0.0,0.0,0.0,0.0,0.0,0.0,0.0,0.0,0.0,0.0,0.0,0.0,0.0,0.0,0.0,0.0,0.0,0.0,0.0,0.0,0.0,0.0,0.0,0.0,0.0,0.0,0.0,0.0,0.0,0.0,0.0,0.0,0.0,3.6193,3.7025,3.772,3.8512,3.7875,3.7125,3.6445,3.4976,3.3665,3.2758,0.0,0.0,0.0,0.0,0.0,0.0,0.0,0.0,0.0,0.0,0.0,0.0,0.0,0.0,0.0,0.0,0.0,0.0,0.0,0.0,0.0,0.0,0.0,0.0,0.0,0.0,0.0,0.0,0.0,0.0,0.0,0.0,0.0,0.0,0.0,0.0,0.0,0.0,0.0,0.0,0.0,0.0,0.0,0.0,0.0,0.0,0.0,0.0,0.0,0.0,0.0,0.0,0.0,0.0,0.0,0.0,0.0,0.0,0.0,0.0,0.0,0.0,0.0,0.0,0.0,0.0,0.0,0.0,0.0,0.0,0.0,0.0,0.0,0.0,0.0,0.0,0.0,0.0,0.0,0.0,0.0,0.0,0.0,0.0,0.0,0.0,0.0,0.0,0.0,0.0,0.0,0.0,0.0,0.0,0.0,0.0,0.0,0.0,0.0,0.0,0.0,0.0,3.6409,3.7623,3.8371,3.8558,3.8005,3.7274,3.6452,3.4125,3.2705,0.0,0.0,0.0,0.0,0.0,0.0,0.0,0.0,0.0,0.0,0.0,0.0,0.0,0.0,0.0,0.0,0.0,0.0,0.0,0.0,0.0,0.0,0.0,0.0,0.0,0.0,0.0,0.0,0.0,0.0,0.0,0.0,0.0,0.0,0.0,0.0,0.0,0.0,0.0,0.0,0.0,0.0,0.0,0.0,0.0,0.0,0.0,0.0,0.0,0.0,0.0,0.0,0.0,0.0,0.0,0.0,0.0,0.0,0.0,0.0,0.0,0.0,0.0,0.0,0.0,0.0,0.0,0.0,0.0,0.0,0.0,0.0,0.0,0.0,0.0,0.0,0.0,0.0,0.0,0.0,0.0,0.0,0.0,0.0,0.0,0.0,0.0,0.0,0.0,0.0,0.0,0.0,0.0,0.0,0.0,0.0,0.0,0.0,0.0,0.0,0.0,0.0,0.0,3.6428,3.7339,3.7965,3.8362,3.7512,3.6742,3.6226,3.4426,3.3151,3.2732,0.0,0.0,0.0,0.0,0.0,0.0,0.0,0.0,0.0,0.0,0.0,0.0,0.0,0.0,0.0,0.0,0.0,0.0,0.0,0.0,0.0,0.0,0.0,0.0,0.0,0.0,0.0,0.0,0.0,0.0,0.0,0.0,0.0,0.0,0.0,0.0,0.0,0.0,0.0,0.0,0.0,0.0,0.0,0.0,0.0,0.0,0.0,0.0,0.0,0.0,0.0,0.0,0.0,0.0,0.0,0.0,0.0,0.0,0.0,0.0,0.0,0.0,0.0,0.0,0.0,0.0,0.0,0.0,0.0,0.0,0.0,0.0,0.0,0.0,0.0,0.0,0.0,0.0,0.0,0.0,0.0,0.0,0.0,0.0,0.0,0.0,0.0,0.0,0.0,0.0,0.0,0.0,0.0,0.0,0.0,0.0,0.0,0.0,0.0,0.0,0.0,0.0,3.5966,3.6684,3.7195,3.7749,3.7074,3.6377,3.5858,3.4253,3.3018,3.2494,0.0,0.0,0.0,0.0,0.0,0.0,0.0,0.0,0.0,0.0,0.0,0.0,0.0,0.0,0.0,0.0,0.0,0.0,0.0,0.0,0.0,0.0,0.0,0.0,0.0,0.0,0.0,0.0,0.0,0.0,0.0,0.0,0.0,0.0,0.0,0.0,0.0,0.0,0.0,0.0,0.0,0.0,0.0,0.0,0.0,0.0,0.0,0.0,0.0,0.0,0.0,0.0,0.0,0.0,0.0,0.0,0.0,0.0,0.0,0.0,0.0,0.0,0.0,0.0,0.0,0.0,0.0,0.0,0.0,0.0,0.0,0.0,0.0,0.0,0.0,0.0,0.0,0.0,0.0,0.0,0.0,0.0,0.0,0.0,0.0,0.0,0.0,0.0,0.0,0.0,0.0,0.0,0.0,0.0,0.0,0.0,0.0,0.0,0.0,0.0,0.0,0.0,3.5234,3.5817,3.6304,3.6922,3.6595,3.6058,3.5433,3.3708,3.2508,3.2114,0.0,0.0,0.0,0.0,0.0,0.0,0.0,0.0,0.0,0.0,0.0,0.0,0.0,0.0,0.0,0.0,0.0,0.0,0.0,0.0,0.0,0.0,0.0,0.0,0.0,0.0,0.0,0.0,0.0,0.0,0.0,0.0,0.0,0.0,0.0,0.0,0.0,0.0,0.0,0.0,0.0,0.0,0.0,0.0,0.0,0.0,0.0,0.0,0.0,0.0,0.0,0.0,0.0,0.0,0.0,0.0,0.0,0.0,0.0,0.0,3.2942,3.3504,0.0,0.0,0.0,0.0,0.0,0.0,0.0,0.0,0.0,0.0,0.0,0.0,0.0,0.0,0.0,0.0,0.0,0.0,0.0,0.0,0.0,0.0,0.0,0.0,0.0,0.0,0.0,0.0,0.0,0.0,0.0,0.0,0.0,0.0,0.0,0.0,0.0,0.0,0.0,0.0,3.5234,3.5714,3.6102,3.6708,3.6211,3.5649,3.5208,3.3507,3.2374,3.2114,3.0207,0.0,0.0,0.0,0.0,0.0,0.0,0.0,0.0,0.0,0.0,0.0,0.0,0.0,0.0,0.0,0.0,0.0,0.0,0.0,0.0,0.0,0.0,0.0,0.0,0.0,0.0,0.0,0.0,0.0,0.0,0.0,0.0,0.0,0.0,0.0,0.0,0.0,0.0,0.0,0.0,0.0,0.0,0.0,0.0,0.0,0.0,0.0,0.0,0.0,0.0,0.0,0.0,0.0,0.0,0.0,0.0,0.0,0.0,0.0,3.2725,3.3118,0.0,0.0,0.0,0.0,0.0,0.0,0.0,0.0,0.0,0.0,0.0,0.0,0.0,0.0,0.0,0.0,0.0,0.0,0.0,0.0,0.0,0.0,0.0,0.0,0.0,0.0,0.0,0.0,0.0,0.0,0.0,0.0,0.0,0.0,0.0,0.0,0.0,0.0,0.0,0.0,3.5902,3.587,3.5942,3.6749,3.6082,3.5284,3.4667,3.3404,3.2505,3.2179,3.0626,0.0,0.0,0.0,0.0,0.0,0.0,0.0,0.0,0.0,0.0,0.0,0.0,0.0,0.0,0.0,0.0,0.0,0.0,0.0,0.0,0.0,0.0,0.0,0.0,0.0,0.0,0.0,0.0,0.0,0.0,0.0,0.0,0.0,0.0,0.0,0.0,0.0,0.0,0.0,0.0,0.0,0.0,0.0,0.0,0.0,0.0,0.0,0.0,0.0,0.0,0.0,0.0,0.0,3.2291,3.2712,3.2536,3.2518,3.2918,3.3521,3.2372,3.2591,3.3702,3.2699,0.0,0.0,0.0,0.0,0.0,0.0,0.0,0.0,0.0,0.0,0.0,0.0,0.0,0.0,0.0,0.0,0.0,0.0,0.0,0.0,0.0,0.0,3.1788,3.2265,3.2014,3.1436,3.0577,0.0,0.0,0.0,0.0,0.0,0.0,0.0,0.0,0.0,0.0,0.0,3.6482,3.6025,3.5829,3.6791,3.5966,3.5027,3.411,3.3296,3.2652,3.2236,3.119,3.0638,0.0,0.0,0.0,0.0,0.0,0.0,0.0,0.0,0.0,0.0,0.0,0.0,0.0,0.0,0.0,0.0,0.0,0.0,0.0,0.0,0.0,0.0,0.0,0.0,0.0,0.0,0.0,0.0,0.0,0.0,0.0,0.0,3.1756,3.1756,0.0,0.0,0.0,0.0,0.0,0.0,0.0,0.0,0.0,0.0,0.0,0.0,0.0,3.1305,3.1254,3.2676,3.2886,3.1893,3.3237,3.3482,3.2749,3.2576,3.3007,3.3827,3.2111,0.0,3.3604,3.2315,0.0,0.0,0.0,0.0,0.0,0.0,0.0,0.0,0.0,0.0,0.0,0.0,0.0,0.0,0.0,0.0,0.0,0.0,0.0,0.0,0.0,0.0,3.2889,3.2964,3.2939,3.2839,3.2688,3.1587,3.0588,3.0588,3.0231,3.0055,0.0,0.0,0.0,0.0,0.0,0.0,3.6085,3.5956,3.5859,3.6344,3.5738,3.4888,3.3836,3.3067,3.2507,3.2215,3.119,3.0809,3.126,3.0256,0.0,0.0,0.0,0.0,0.0,0.0,0.0,0.0,0.0,0.0,0.0,0.0,0.0,0.0,0.0,0.0,0.0,0.0,0.0,0.0,0.0,0.0,0.0,0.0,0.0,0.0,0.0,0.0,0.0,3.1354,3.1974,3.1152,3.1902,3.1751,0.0,0.0,0.0,0.0,0.0,0.0,0.0,0.0,0.0,3.1049,3.1447,3.1929,3.2542,3.3229,3.3298,3.2782,3.3417,3.3423,3.2898,3.2829,3.2997,3.3394,3.2678,3.2771,3.332,3.1889,3.1365,3.134,0.0,0.0,0.0,0.0,2.9995,3.0403,3.0623,3.0648,3.0503,3.0453,0.0,0.0,0.0,0.0,0.0,0.0,0.0,3.2525,3.2643,3.333,3.4073,3.4377,3.4112,3.3895,3.4354,3.3155,3.2027,3.2022,3.1834,3.1733,3.1964,3.1461,0.0,0.0,0.0,3.4181,3.6302,3.6198,3.6008,3.6156,3.5426,3.4538,3.3607,3.314,3.2844,3.2713,3.1964,3.1591,3.1838,3.0834,3.0357,0.0,0.0,0.0,0.0,0.0,0.0,0.0,0.0,0.0,0.0,0.0,0.0,0.0,0.0,0.0,0.0,0.0,0.0,0.0,0.0,0.0,0.0,0.0,0.0,0.0,0.0,0.0,0.0,3.196,3.2398,3.0887,3.2234,3.2184,0.0,0.0,0.0,0.0,0.0,0.0,3.041,3.0832,3.1508,3.2413,3.25,3.3012,3.4023,3.4041,3.3887,3.3614,3.3474,3.3288,3.3028,3.2838,3.2869,3.308,3.3044,3.3105,3.3105,3.174,3.1346,3.1466,3.023,3.0134,3.0695,3.034,3.0566,3.1042,3.1268,3.1327,3.1212,3.0544,3.0192,3.0,2.9878,0.0,0.0,0.0,0.0,3.3046,3.3637,3.4322,3.4963,3.549,3.5176,3.4931,3.5585,3.4736,3.3736,3.338,3.3147,3.3054,3.3269,3.2591,0.0,3.4203,3.4247,3.4801,3.6594,3.649,3.6173,3.5969,3.5234,3.4346,3.3398,3.3197,3.309,3.309,3.2667,3.2441,3.2441,3.1537,3.0939,3.0809,0.0,0.0,0.0,0.0,0.0,0.0,0.0,0.0,0.0,0.0,0.0,0.0,0.0,0.0,0.0,0.0,0.0,0.0,0.0,0.0,0.0,0.0,0.0,0.0,0.0,0.0,0.0,0.0,0.0,3.2003,3.3946,0.0,0.0,0.0,0.0,3.088,3.1149,3.1306,3.1141,3.1462,3.2348,3.3847,3.4619,3.5263,3.5773,3.577,3.5238,3.415,3.3712,3.338,3.316,3.2401,3.2495,3.3257,3.2753,3.2825,3.321,3.2125,3.1956,3.2293,3.0687,3.0419,3.089,3.0783,3.0778,3.084,3.1042,3.1452,3.1706,3.0694,3.0393,3.0574,3.1535,3.1644,0.0,0.0,3.2541,3.3484,3.3573,3.439,3.5306,3.5854,3.5953,3.6,3.6284,3.607,3.5453,3.4129,3.3224,3.2937,3.3727,0.0,3.4127,3.5175,3.5318,3.5679,3.6765,3.6709,3.6299,3.5605,3.5261,3.4537,3.3233,3.3111,3.309,3.309,3.3065,3.3065,3.3065,3.2466,3.1888,3.1361,3.0834,0.0,0.0,0.0,0.0,0.0,0.0,0.0,0.0,0.0,0.0,0.0,0.0,0.0,0.0,0.0,0.0,0.0,0.0,0.0,0.0,0.0,0.0,0.0,0.0,0.0,0.0,0.0,0.0,3.3566,3.4712,0.0,3.1252,3.1543,3.182,3.161,3.2511,3.3217,3.3521,3.4437,3.5308,3.6063,3.6156,3.6297,3.6465,3.5789,3.5054,3.4334,3.3807,3.3453,3.3248,3.2963,3.3015,3.3331,3.3405,3.3573,3.3717,3.3333,3.3116,3.2901,3.187,3.1842,3.2394,3.2044,3.2197,3.2621,3.2865,3.2965,3.2863,3.201,3.1518,3.1321,3.1689,3.197,3.2184,3.2354,3.3214,3.413,3.4326,3.4909,3.5518,3.5691,3.6012,3.6283,3.638,3.6627,3.6726,3.6349,3.5205,3.4431,3.4858,3.4653,3.467,3.536,3.5459,3.5603,3.594,3.6271,3.6227,3.5578,3.4997,3.4357,3.3671,3.3139,3.2918,3.309,3.309,3.309,3.309,3.2516,3.1964,3.1432,3.0864,3.0357,0.0,0.0,0.0,0.0,0.0,0.0,0.0,0.0,0.0,0.0,0.0,0.0,0.0,0.0,0.0,0.0,0.0,0.0,0.0,0.0,0.0,0.0,0.0,0.0,0.0,3.3553,3.4497,3.4149,3.5219,3.4933,3.2237,3.269,3.3177,3.3201,3.4221,3.4967,3.5328,3.6277,3.6866,3.7043,3.6801,3.6676,3.6676,3.5689,3.4911,3.4409,3.4121,3.3834,3.3549,3.3549,3.3645,3.3813,3.3958,3.4102,3.427,3.427,3.4078,3.3718,3.2889,3.2959,3.3478,3.3028,3.319,3.3655,3.4011,3.3683,3.3143,3.3238,3.2642,3.1979,3.2565,3.2755,3.2921,3.3543,3.4193,3.4773,3.521,3.5673,3.5991,3.5991,3.6284,3.6578,3.6653,3.6972,3.7318,3.7568,3.6575,3.585,3.6262,3.5732,3.5529,3.6234,3.6033,3.5857,3.6058,3.6257,3.618,3.5558,3.5067,3.452,3.395,3.3393,3.3096,3.3115,3.309,3.309,3.309,3.2738,3.224,3.1687,3.0843,3.0055,2.9351,0.0,0.0,0.0,0.0,0.0,0.0,0.0,0.0,0.0,0.0,0.0,0.0,0.0,0.0,0.0,0.0,0.0,0.0,0.0,0.0,0.0,0.0,0.0,3.1805,3.3957,3.5039,3.3798,3.5618,3.6119,3.3799,3.5065,3.5889,3.5665,3.6146,3.6435,3.6459,3.6713,3.6839,3.6839,3.6578,3.6456,3.6456,3.5649,3.4992,3.4458,3.4727,3.4583,3.4054,3.4054,3.4318,3.4799,3.427,3.4342,3.4799,3.4799,3.4799,3.4703,3.3717,3.3621,3.3982,3.3734,3.3633,3.3706,3.4216,3.3481,3.2558,3.4245,3.3671,3.2628,3.4317,3.4174,3.3693,3.5183,3.5452,3.5405,3.6196,3.6588,3.6791,3.6791,3.6815,3.6916,3.7142,3.7242,3.7367,3.7593,3.722,3.7119,3.7865,3.7135,3.6808,3.7814,3.7085,0.0,3.711,3.6708,3.618,3.5583,3.5508,3.5056,3.4022,3.3922,3.3671,3.314,3.309,3.309,3.309,3.309,3.2771,3.2127,3.0667,2.9455,2.8463,0.0,0.0,0.0,0.0,0.0,0.0,0.0,0.0,0.0,0.0,0.0,0.0,0.0,0.0,0.0,0.0,0.0,0.0,0.0,0.0,0.0,3.1702,3.3611,3.4542,3.536,3.6138,3.6888,3.6919,3.6529,3.5669,3.603,3.6414,3.6723,3.6892,3.7156,3.7543,3.7802,3.7957,3.7957,3.7679,3.746,3.7282,3.6671,3.6181,3.5861,3.5931,3.5881,3.5712,3.5328,3.5232,3.5352,3.4823,3.4679,3.4799,3.4799,3.4799,3.4775,3.4487,3.4462,3.4583,3.4511,3.4462,3.4486,3.4631,3.4414,3.4173,3.463,3.4749,3.4746,3.523,3.5473,3.5641,3.6074,3.6124,3.6125,3.6338,3.6461,3.6512,3.6512,3.7132,3.7705,3.7528,3.8307,3.8989,3.8862,3.8541,3.8241,3.804,3.7764,3.7513,3.7412,3.7185,3.6884,3.6632,3.6505,3.6331,3.618,3.5453,3.4839,3.4505,3.3789,3.3319,3.3119,3.309,3.309,3.309,3.2918,3.2083,3.0492,2.8954,2.8038,0.0,0.0,0.0,0.0,0.0,0.0,0.0,0.0,0.0,0.0,0.0,0.0,0.0,0.0,0.0,0.0,0.0,0.0,0.0,0.0,0.0,0.0,3.368,3.5735,3.69,3.6918,3.7221,3.824,3.8027,3.778,3.776,3.7757,3.7878,3.819,3.8214,3.8238,3.8334,3.8577,3.8587,3.8236,3.7964,3.7696,3.7437,3.6905,3.6563,3.6411,3.6627,3.6627,3.6411,3.6314,3.6146,3.593,3.5592,3.5328,3.5135,3.5135,3.5135,3.5111,0.0,0.0,0.0,0.0,3.4799,3.4799,3.4799,3.4943,3.5135,3.5135,3.5496,3.5954,3.5954,3.617,3.6459,3.6675,3.6747,3.6795,3.7012,3.706,3.7086,3.7215,3.774,3.8193,3.8115,3.8853,3.949,3.931,3.9267,0.0,3.8768,3.8316,3.8065,3.8216,3.7839,3.7487,3.7436,3.7034,3.6733,3.6733,3.5971,3.5231,3.462,3.3929,0.0,0.0,0.0,3.2506,3.2506,3.2042,0.0,0.0,0.0,2.7404,2.6845,2.63,0.0,0.0,2.6715,2.7062,0.0,0.0,0.0,0.0,0.0,0.0,0.0,0.0,0.0,0.0,0.0,0.0,0.0,0.0,0.0,0.0,3.5892,3.7682,3.8734,3.8538,3.8338,3.8469,3.8953,3.9328,3.9589,3.9609,3.9585,3.9513,3.9589,3.9372,3.8743,3.9037,0.0,0.0,0.0,3.751,3.7276,3.6819,3.6579,3.6579,3.706,3.7036,3.6603,3.7012,3.694,3.6483,3.6435,3.6146,3.5688,3.5688,3.5688,3.564,3.5159,3.4991,3.4967,3.4919,3.4895,3.4895,3.4895,0.0,0.0,3.5639,3.6025,3.6457,3.6456,3.6505,3.6675,3.7156,3.7276,3.7423,3.7906,3.8051,3.8106,3.8394,3.8522,3.8652,3.8913,3.925,3.951,3.9435,3.9617,3.9772,3.9697,3.8868,3.8517,3.9471,3.8743,3.8241,3.8668,3.7838,3.7161,3.7087,3.6587,0.0,3.4516,3.4091,3.335,3.2125,3.1761,3.1582,3.1516,3.0708,2.9893,2.9124,2.8141,2.7111,2.6007,2.5635,2.5237,2.4884,2.595,2.6608,0.0,0.0,0.0,0.0,0.0,0.0,0.0,0.0,0.0,0.0,0.0,0.0,0.0,0.0,0.0,3.4438,3.6619,3.8467,3.9343,3.9751,3.9709,3.9123,3.9322,3.9544,3.9585,3.9609,3.9441,3.9008,3.9564,3.9398,3.8217,3.887,3.89,3.8024,3.793,3.7909,3.7856,3.7733,3.7711,3.7711,3.7808,0.0,3.7687,3.7348,3.7132,3.7012,3.6579,3.6338,3.6266,3.6266,3.6266,3.6242,3.6146,3.6098,3.605,3.5592,3.5448,3.5448,3.5448,3.5496,3.5639,3.5845,3.6424,3.6984,3.6775,3.719,0.0,3.7832,3.7856,3.7906,3.824,3.8342,3.8394,3.8657,3.9264,3.9796,3.9849,4.041,4.0771,4.0371,4.0297,4.0224,3.9772,3.9521,3.9295,3.9095,3.8869,3.8441,3.7637,3.7336,3.6938,3.6297,3.5742,3.5159,3.4477,3.3618,3.2903,3.2369,3.1508,3.0868,3.0509,2.9353,2.8295,2.7413,2.6459,2.5824,2.5531,2.5603,2.5688,2.5775,2.6035,2.6547,0.0,0.0,0.0,0.0,0.0,0.0,0.0,0.0,0.0,0.0,0.0,3.0884,3.1787,0.0,3.5187,3.658,3.8273,3.9533,3.995,4.0691,4.0844,3.9899,4.015,4.0403,4.0403,4.0403,4.0282,4.0018,4.0375,4.0185,3.9252,3.9606,3.9388,3.8431,3.8407,3.8262,3.8,3.8,3.8,3.8,3.8,3.8,3.8,3.7735,3.7589,3.7591,3.73,3.7036,3.6795,3.6795,3.6795,3.6819,3.7084,3.6867,3.6362,3.6098,3.6002,3.6002,3.6002,3.6194,3.6409,3.6569,3.7052,3.7563,3.7455,3.7676,3.8,3.8,3.8,3.8053,3.8342,3.8421,3.8526,3.8945,3.9601,4.0131,4.0263,4.0846,4.1227,4.0951,4.0675,4.0399,4.0149,3.9873,3.9597,3.9346,3.9296,3.9069,3.8517,3.7942,3.732,3.6652,3.5868,3.5017,3.4078,3.3078,3.2254,3.1692,3.1042,3.0461,2.9967,2.8968,2.815,2.7507,2.6818,2.6258,2.5794,2.6176,2.6315,2.6301,2.6705,2.7212,0.0,0.0,0.0,0.0,0.0,0.0,0.0,2.9714,3.0159,3.1119,3.1957,3.3021,3.4558,3.5743,3.6998,3.8671,3.985,4.0595,4.0691,4.1562,4.1827,4.0956,4.1249,4.1442,4.1196,4.1268,4.1273,4.1052,4.1182,4.0993,4.0282,4.0387,4.0002,3.9008,3.896,3.8719,3.8142,3.8169,3.8094,3.8,3.8,3.8,3.8,3.8,3.8,3.8,3.8,3.776,3.7375,3.7375,3.7375,3.7397,3.7832,3.7469,3.6699,3.6603,3.6555,3.6555,3.6555,3.6843,3.7204,3.7272,3.7611,3.7974,3.7945,3.7971,3.8,3.8,3.8027,3.8157,3.8421,3.8599,3.8857,3.9406,4.0034,4.0561,4.0774,4.1252,4.1603,4.1503,4.1153,4.0777,4.0551,4.0172,3.9896,3.9722,3.9697,3.9621,3.9469,3.8634,3.7808,3.7117,3.613,3.4938,3.3503,3.2602,3.1798,3.1035,3.065,3.0236,2.9722,2.9055,2.8532,2.8161,2.7708,2.7145,2.6429,2.6969,2.7149,2.7059,2.7872,2.8355,2.7193,2.6866,2.7235,2.8795,2.8358,2.8217,0.0,3.162,3.2324,3.3606,3.531,3.6606,3.6847,3.776,3.8695,3.9417,4.0403,4.1297,4.1755,4.2332,4.2669,4.2549,4.2573,4.2236,4.1268,4.1634,4.1514,4.0547,4.114,4.0999,3.9753,4.0366,4.0369,3.9537,3.9513,3.9272,3.8719,3.8692,3.8479,3.8,3.8,3.8,3.8,3.8,3.8,3.8,3.8,3.7976,3.7928,3.7928,3.7928,3.7928,3.7976,3.7928,3.776,3.7276,3.7108,3.7108,3.7108,3.7156,3.725,3.7491,3.7764,3.7971,3.7729,3.7812,3.8,3.8,3.8159,3.8421,3.8684,3.9341,3.9978,4.0294,4.1177,4.1957,4.1984,4.2436,4.2688,4.2185,4.2034,4.1683,4.0676,4.0639,4.0509,3.9822,3.9697,3.9419,3.8639,3.8412,3.7885,3.6637,3.5754,3.4542,3.2753,3.2297,3.185,3.1298,3.0601,3.0112,2.9796,2.9303,2.8782,2.8282,2.793,2.7576,2.7272,2.7878,2.8304,2.8589,2.9666,3.0039,2.84,2.8075,2.8208,2.9033,2.9897,3.0858,3.2143,3.3352,3.4717,3.654,3.7804,3.8888,3.9829,4.0355,4.0836,4.1394,4.1851,4.2271,4.264,4.3154,4.3275,4.2699,4.313,4.3143,4.2241,4.2332,4.214,4.1394,4.1654,4.1436,4.0599,4.0857,4.0737,4.009,4.0066,3.9657,3.8788,3.8788,3.8527,3.8,3.8,3.8142,3.8479,3.8479,3.8479,3.8455,3.8118,3.8,3.8,3.8,3.8,3.8,3.8,3.8,3.7976,3.776,3.7687,3.7687,3.7687,3.7687,3.7685,3.7793,3.7918,3.7974,3.7865,3.7918,3.8,3.8,3.821,3.8546,3.9155,3.947,3.986,4.0747,4.1327,4.1756,4.211,4.2612,4.2838,4.2286,4.2213,4.1879,4.0914,4.0829,4.0697,4.0197,4.0096,3.9791,3.896,3.8595,3.7753,3.608,3.5333,3.4562,3.3614,3.3439,3.3093,3.2383,3.1895,3.1409,3.0993,3.0784,3.0333,2.9593,2.9593,2.9406,2.8979,2.9526,2.9978,3.0323,3.0963,3.1414,2.8608,2.8478,2.8564,2.9285,3.0892,3.2467,3.3211,3.4826,3.6699,3.8701,3.9706,4.0643,4.1971,4.2212,4.2332,4.2717,4.2999,4.3191,4.3376,4.3806,4.3823,4.2949,4.3335,4.3479,4.2963,4.2849,4.2621,4.2236,4.2212,4.2043,4.1658,4.1514,4.1249,4.0836,4.0691,4.0186,3.9272,3.9077,3.8839,3.8431,3.8286,3.8503,3.9005,3.9005,3.8933,3.8764,3.8383,3.8214,3.819,3.8072,3.8,3.8,3.8,3.8,3.8,3.8,3.8,3.8,3.8,3.8,3.8,3.8,3.8,3.8,3.8,3.8053,3.808,3.8027,3.8291,3.8782,3.9331,3.9549,3.9889,4.0848,4.1175,4.1478,4.206,4.2487,4.2713,4.2462,4.2356,4.2043,4.1248,4.1109,4.0967,4.0572,4.056,4.033,3.9515,3.8752,3.7671,3.6113,3.5316,3.4735,3.4339,3.4159,3.3816,3.3258,3.291,3.2566,3.2162,3.2162,3.1782,3.0983,3.1175,3.099,3.046,3.0996,3.1388,3.1718,3.2043,3.2543,2.7064,2.7026,2.7348,2.9373,3.0427,3.1498,3.3571,3.5874,3.7971,3.9534,4.0956,4.2091,4.2669,4.2765,4.2765,4.2789,4.3439,4.3965,4.3965,4.4285,4.4293,4.3728,4.3183,4.2915,4.3157,4.2938,4.2789,4.2765,4.2765,4.2765,4.2741,4.226,4.1971,4.1947,4.1466,4.0908,4.0355,3.985,3.9585,3.9561,3.9005,3.908,3.9585,3.9585,3.9296,3.8788,3.8764,3.8764,3.8743,3.819,3.8,3.8,3.8,3.8,3.8,3.8,3.8,3.8,3.8,3.8,3.8,3.8,3.8,3.8,3.8,3.8159,3.8342,3.8053,3.8631,3.9206,3.8892,3.9654,4.0474,4.0499,4.0926,4.1478,4.206,4.2213,4.2361,4.2889,4.2712,4.2314,4.1767,4.1612,4.1416,4.0852,4.1015,4.0881,4.0095,3.8752,3.7707,3.719,3.5926,3.4887,3.4336,3.3812,3.3493,3.3493,3.3231,3.3098,3.3071,3.3071,3.2776,3.2156,3.2156,3.1912,3.1367,3.183,3.2197,3.2503,3.2945,3.3487,2.675,2.7479,2.8487,2.9938,3.1753,3.3754,3.5921,3.7733,3.9483,4.1441,4.1359,4.1225,4.2091,4.1971,4.1909,4.2505,4.34,4.4286,4.5077,4.5303,4.5017,4.4155,4.3853,4.3452,4.273,4.2899,4.3113,4.3271,4.3265,4.315,4.2813,4.2621,4.2356,4.2019,4.1827,4.1321,4.0403,4.021,3.9946,3.9609,3.9777,3.997,4.0138,4.0138,4.0042,3.985,3.9489,3.9345,3.9296,3.8767,3.8527,3.8527,3.8527,3.831,3.8048,3.8407,3.8527,3.8527,3.8527,3.8527,3.8599,3.896,3.9056,3.9056,3.9056,3.9247,3.9366,3.8922,3.9302,3.9804,3.9699,3.9811,4.0249,4.1356,4.148,4.1553,4.2537,4.2738,4.2607,4.221,4.232,4.2199,4.1265,4.1548,4.1785,4.1391,4.0796,4.0239,3.974,3.8793,3.7832,3.6907,3.6397,3.5721,3.4838,3.4603,3.4411,3.4191,3.4087,3.4032,3.4032,3.3839,3.3602,3.3261,3.331,3.3225,3.2978,3.3373,3.365,3.3828,3.3979,3.435,2.7069,2.8203,2.9601,3.1027,3.3207,3.5536,3.7419,3.8907,4.0331,4.1899,4.1244,4.0595,4.1321,4.1066,4.1015,4.1776,4.2612,4.363,4.4858,4.4982,4.4719,4.4252,4.3887,4.3456,4.293,4.307,4.3275,4.3481,4.3667,4.3673,4.3337,4.3144,4.2813,4.2308,4.2284,4.1779,4.0691,4.0691,4.0403,3.9898,4.0427,4.0571,4.0403,4.0595,4.0571,4.0379,4.0042,3.9898,3.985,3.932,3.9104,3.908,3.886,3.8719,3.8575,3.8743,3.8908,3.9029,3.8647,3.8767,3.9101,3.9245,3.9441,3.9637,3.9695,3.9943,4.0117,3.9751,4.0084,4.046,4.0181,4.019,4.0501,4.1381,4.1455,4.1526,4.2346,4.263,4.2579,4.2071,4.2261,4.2273,4.151,4.1671,4.183,4.1492,4.0769,4.0154,3.9977,3.9021,3.8073,3.7354,3.681,3.6246,3.5561,3.5426,3.5263,3.5037,3.5037,3.498,3.4867,3.4582,3.4368,3.4239,3.426,3.4318,3.4405,3.4753,3.4949,3.5037,3.5037,3.519,2.791,2.9262,3.0784,3.2627,3.4796,3.6873,3.8148,3.9461,4.0555,4.1057,4.0672,4.0214,4.0262,4.0048,4.0095,4.0734,4.1407,4.2301,4.3669,4.3626,4.3627,4.4173,4.3485,4.3158,4.3698,4.3506,4.3372,4.3553,4.4027,4.4285,4.4285,4.3811,4.3313,4.2837,4.2813,4.2284,4.1249,4.1196,4.0956,4.0475,4.0956,4.0932,4.0451,4.0956,4.0908,4.0427,4.0427,4.0427,4.0403,3.9874,3.9657,3.9609,3.9077,3.92,3.9561,3.908,3.9224,3.9489,3.8431,3.8767,3.9561,3.9077,3.9272,3.9737,4.0016,4.0343,4.0589,4.0567,4.0923,4.1173,4.0383,4.0739,4.1202,4.07,4.0976,4.1422,4.1726,4.2018,4.2304,4.2469,4.2457,4.2457,4.2457,4.1976,4.1521,4.1258,4.0966,4.0706,4.0677,3.9424,3.8498,3.8447,3.7228,3.6411,3.6389,3.6129,3.6005,3.6005,3.5983,3.5838,3.5546,3.5195,3.5019,3.5069,3.5069,3.5216,3.556,3.5881,3.6027,3.6005,3.6005,3.6005,2.9764,3.1853,3.4032,3.5223,3.6801,3.8468,3.9854,4.0304,4.0581,4.0817,3.9213,3.7828,3.824,3.8295,3.8994,4.1197,4.2676,4.4099,4.5646,4.5484,4.5126,4.5009,4.482,4.4614,4.4549,4.4792,4.4898,4.4708,4.446,4.4285,4.4285,4.4172,4.3859,4.3337,4.2982,4.2477,4.1803,4.1418,4.1345,4.161,4.1345,4.1153,4.098,4.1153,4.1153,4.098,4.098,4.098,4.0932,4.0403,4.0186,4.0186,4.0042,3.9826,3.9633,3.9898,4.009,4.009,3.9417,3.9633,4.0234,4.0499,4.0667,4.0844,4.1108,4.1415,4.165,4.1453,4.1659,4.1831,4.1171,4.1148,4.1378,4.1708,4.1884,4.2108,4.2552,4.2733,4.2755,4.2544,4.2146,4.1919,4.2142,4.1863,4.1663,4.183,4.1426,4.0821,4.0124,3.9487,3.8765,3.7933,3.7309,3.6758,3.6143,3.6041,3.6005,3.6005,3.575,3.5692,3.5867,3.5291,3.5285,3.5886,3.5908,3.5938,3.6027,3.6353,3.6355,3.6005,3.6005,3.618,3.2532,3.4654,3.6642,3.7535,3.8804,3.9977,4.0547,4.0376,3.9888,3.9204,3.7744,3.6575,3.6398,3.7088,3.8376,4.0537,4.2047,4.3568,4.5407,4.5401,4.528,4.541,4.5524,4.5546,4.5514,4.5656,4.5636,4.5477,4.4965,4.4652,4.4652,4.4436,4.4051,4.3529,4.3241,4.2862,4.2356,4.1827,4.1827,4.2332,4.1586,4.1321,4.1562,4.1321,4.1201,4.1201,4.1201,4.1201,4.1201,4.0888,4.0739,4.0715,4.0475,4.0355,4.0306,4.0379,4.0547,4.0691,4.0403,4.0499,4.0739,4.084,4.1033,4.1258,4.1688,4.1944,4.2121,4.2249,4.2399,4.2411,4.1831,4.1882,4.2082,4.216,4.2389,4.2585,4.2743,4.2902,4.2933,4.2762,4.2316,4.2033,4.2256,4.1891,4.1606,4.1688,4.1287,4.0764,4.0042,3.9573,3.9017,3.822,3.7755,3.7258,3.6669,3.6617,3.6617,3.6617,3.644,3.6351,3.638,3.5904,3.5913,3.6493,3.6372,3.6411,3.6711,3.6921,3.685,3.6617,3.6617,3.677,3.5618,3.7484,3.8925,3.9756,4.0696,4.1305,4.069,4.0028,3.8937,3.7039,3.6382,3.5868,3.4969,3.6211,3.799,3.9841,4.0906,4.2335,4.4664,4.4845,4.5043,4.5716,4.5965,4.6183,4.6512,4.6287,4.6094,4.6094,4.5614,4.5277,4.5205,4.4732,4.4185,4.359,4.3566,4.3349,4.2886,4.238,4.238,4.2886,4.1899,4.1658,4.2091,4.1562,4.1321,4.1321,4.1249,4.1201,4.1201,4.1201,4.1201,4.1124,4.0691,4.0787,4.1124,4.0667,4.0787,4.1201,4.1201,4.1201,4.1129,4.0643,4.084,4.1344,4.194,4.2139,4.2256,4.2846,4.3014,4.2889,4.2439,4.2637,4.2889,4.2439,4.2663,4.293,4.2625,4.2793,4.2986,4.2958,4.2678,4.2453,4.2453,4.1948,4.1463,4.1287,4.0995,4.0653,4.031,3.9638,3.9108,3.8841,3.8216,3.7728,3.7404,3.7404,3.7404,3.7404,3.7344,3.7214,3.6972,3.6637,3.6606,3.6941,3.6667,3.685,3.7465,3.7465,3.7465,3.7465,3.7465,3.7435,3.8129,3.9798,4.129,4.211,4.2315,4.2056,4.104,3.9885,3.8416,3.6259,3.5246,3.4748,3.4789,3.5615,3.7643,4.177,4.2579,4.3851,4.7184,4.6817,4.642,4.6866,4.6932,4.7077,4.7283,4.7266,4.7233,4.7233,4.6728,4.6214,4.5782,4.5506,4.4942,4.3923,4.3899,4.3729,4.3385,4.291,4.291,4.3385,4.2813,4.2573,4.2621,4.2116,4.1875,4.1851,4.1394,4.1201,4.1201,4.1201,4.1201,4.1201,4.1105,4.1129,4.1201,4.1105,4.1129,4.1201,4.1201,4.1201,4.1172,4.1105,4.1272,4.1606,4.1972,4.2256,4.2509,4.2902,4.3014,4.2989,4.2889,4.2939,4.2989,4.2889,4.2939,4.2986,4.293,4.2958,4.293,4.2625,4.2369,4.2195,4.2195,4.1659,4.1344,4.1492,4.1287,4.0971,4.0677,3.9609,3.8871,3.8812,3.8006,3.7465,3.7404,3.7404,3.7404,3.7404,3.7154,3.7093,3.7283,3.7002,3.6972,3.7314,3.7253,3.7404,3.7818,3.7818,3.7818,3.7818,3.7818,3.7668,4.098,4.2354,4.3507,4.467,4.4074,4.2941,4.1871,3.988,3.751,3.5014,3.4311,3.4108,3.3993,3.5209,3.7191,4.0166,4.1223,4.2849,4.6127,4.6364,4.6495,4.7432,4.7564,4.7636,4.7738,4.7762,4.7696,4.7497,4.7421,4.6939,4.5926,4.529,4.4625,4.4014,4.4281,4.4099,4.3505,4.3626,4.3741,4.3907,4.3301,4.3059,4.3144,4.2645,4.2404,4.2404,4.214,4.1875,4.1634,4.1634,4.1466,4.1201,4.1201,4.1201,4.1201,4.1201,4.1201,4.1201,4.1201,4.1201,4.1201,4.1373,4.1715,4.2159,4.2643,4.2871,4.3017,4.3328,4.324,4.3014,4.3014,4.3014,4.3014,4.3014,4.3014,4.3014,4.3014,4.3014,4.2958,4.279,4.2397,4.211,4.211,4.1598,4.123,4.1373,4.1287,4.1139,4.0995,3.9989,3.9197,3.8841,3.8395,3.7946,3.7435,3.7404,3.7404,3.7404,3.7245,3.7245,3.7374,3.7245,3.7335,3.7668,3.7668,3.7818,3.8148,3.8148,3.8148,3.8148,3.8148,3.8058,4.3683,4.484,4.5654,4.7111,4.5747,4.3767,4.242,3.9659,3.6622,3.4033,3.372,3.384,3.3664,3.5027,3.6762,3.8466,3.9643,4.1472,4.4793,4.5634,4.6433,4.7908,4.815,4.819,4.8125,4.8125,4.8026,4.7762,4.7863,4.7458,4.6376,4.544,4.4821,4.4567,4.4854,4.4652,4.388,4.4365,4.4524,4.4409,4.3754,4.353,4.3643,4.3168,4.2958,4.2934,4.2837,4.2501,4.1995,4.1995,4.1682,4.1225,4.1345,4.1321,4.1249,4.1466,4.149,4.1394,4.1514,4.1567,4.1683,4.1971,4.2281,4.2694,4.3239,4.3514,4.3679,4.3783,4.3489,4.314,4.3039,4.3014,4.3014,4.3014,4.3014,4.3014,4.3014,4.3014,4.2986,4.293,4.2453,4.2082,4.2025,4.1545,4.1201,4.1201,4.1201,4.1172,4.111,4.045,3.9726,3.9078,3.8901,3.8485,3.7676,3.7676,3.7676,3.7637,3.7616,3.7616,3.7616,3.7676,3.7826,3.8088,3.8088,3.8268,3.8589,3.8589,3.8604,3.8657,3.8747,3.8732,4.5936,4.6911,4.7704,4.9254,4.7152,4.4175,4.2047,3.8944,3.5932,3.3936,3.372,3.4131,3.4881,3.5319,3.6461,3.9144,3.9697,4.1279,4.5593,4.6215,4.692,4.8782,4.8983,4.8877,4.8576,4.8567,4.8535,4.8477,4.8076,4.7732,4.7537,4.7284,4.6879,4.6365,4.5919,4.5519,4.5135,4.489,4.4761,4.4748,4.4374,4.4196,4.422,4.3667,4.3433,4.3409,4.2982,4.2501,4.1995,4.1995,4.1682,4.1249,4.173,4.1634,4.1321,4.2284,4.2332,4.1995,4.2477,4.2799,4.3065,4.3414,4.3207,4.2926,4.3296,4.3908,4.4385,4.394,4.3765,4.3614,4.314,4.3014,4.3014,4.3014,4.3014,4.3014,4.3014,4.3014,4.293,4.2622,4.2312,4.2001,4.1692,4.1402,4.1201,4.1201,4.1201,4.111,4.0792,4.0677,4.0392,3.9755,3.9167,3.8663,3.835,3.8514,3.8574,3.832,3.832,3.832,3.832,3.8544,3.8693,3.8723,3.8723,3.8871,3.9219,3.9219,3.93,3.9485,3.9816,3.9886,4.6993,4.8726,4.9959,5.0586,4.8053,4.4838,4.2771,3.9367,3.6193,3.4562,3.431,3.448,3.4838,3.4961,3.5506,3.6936,3.7739,3.927,4.2384,4.3388,4.484,4.757,4.7732,4.794,4.8836,4.8902,4.8902,4.8902,4.8712,4.8588,4.8556,4.7651,4.6965,4.6631,4.6383,4.6038,4.5482,4.5761,4.5575,4.4984,4.5046,4.4908,4.4594,4.4168,4.4102,4.4255,4.3855,4.353,4.3203,4.3203,4.3006,4.272,4.271,4.2597,4.2452,4.2864,4.2912,4.2772,4.3197,4.3418,4.3566,4.3885,4.4047,4.4234,4.4557,4.4882,4.5095,4.4869,4.4568,4.4166,4.3614,4.324,4.3014,4.3014,4.3014,4.3014,4.3014,4.3014,4.2902,4.2569,4.2284,4.1972,4.1663,4.1373,4.1201,4.1201,4.1201,4.1144,4.1024,4.0821,4.0619,4.0363,3.9785,3.9197,3.8686,3.8752,3.8693,3.841,3.8537,3.8656,3.8656,3.9047,3.9219,3.9101,3.9219,3.9558,4.0065,3.9887,4.008,4.0647,4.0745,4.08,4.7783,5.0036,5.1679,5.1792,4.879,4.5281,4.3264,3.962,3.6341,3.5175,3.4954,3.5004,3.5177,3.5203,3.5328,3.5707,3.6584,3.7965,4.0199,4.1329,4.3037,4.5995,4.6134,4.6661,4.8362,4.896,4.9267,4.9267,4.9267,4.9267,4.9267,4.832,4.7543,4.701,4.6835,4.6483,4.5893,4.6266,4.6111,4.5392,4.5549,4.5351,4.4933,4.4687,4.4717,4.4933,4.4687,4.4433,4.414,4.4164,4.3972,4.3684,4.3594,4.3481,4.3384,4.3701,4.3725,4.3633,4.4042,4.424,4.4383,4.4615,4.5007,4.5425,4.5664,4.5723,4.5698,4.5522,4.507,4.4514,4.4141,4.3639,4.324,4.324,4.3115,4.3014,4.3014,4.3014,4.2902,4.2481,4.2227,4.1944,4.1549,4.1344,4.1244,4.1418,4.1442,4.1514,4.1658,4.1391,4.1168,4.1089,4.0769,4.0169,3.9308,3.9452,3.9485,3.9181,3.9503,3.9692,3.9692,4.0149,4.0322,4.0184,4.0322,4.0627,4.1078,4.0868,4.1064,4.1674,4.1766,4.1836,4.8433,5.0736,5.2574,5.2989,4.9399,4.5282,4.3258,3.9474,3.623,3.5631,3.5483,3.5682,3.6256,3.638,3.638,3.6405,3.6859,3.7965,4.0199,4.0976,4.213,4.4364,4.4614,4.5292,4.6973,4.8636,4.959,4.959,4.959,4.959,4.959,4.959,4.9063,4.7933,4.7375,4.6945,4.6606,4.6266,4.6111,4.6111,4.5768,4.5475,4.53,4.53,4.53,4.53,4.53,4.4981,4.447,4.4489,4.4175,4.3762,4.4279,4.418,4.3836,4.4882,4.4962,4.4544,4.5079,4.5489,4.5762,4.5762,4.6029,4.6301,4.6301,4.6301,4.6175,4.5648,4.507,4.4589,4.4589,4.4192,4.379,4.379,4.3391,4.3014,4.3014,4.3014,4.2818,4.2224,4.211,4.1911,4.1311,4.1201,4.1394,4.1923,4.1995,4.2188,4.2717,4.2466,4.2216,4.2014,4.218,4.1733,4.0317,4.0981,4.1348,4.0999,4.1469,4.1781,4.1781,4.2076,4.228,4.228,4.228,4.228,4.228,4.228,4.236,4.2574,4.2857,4.3087,4.6339,4.8456,4.9706,4.8916,4.6283,4.3367,4.1413,3.8593,3.6331,3.6155,3.613,3.618,3.638,3.6523,3.6696,3.6908,3.7533,3.8338,3.9296,4.0853,4.2585,4.4389,4.6627,4.8234,4.8761,4.9289,4.959,4.959,4.959,4.959,4.959,4.959,4.9264,4.8542,4.8335,4.8102,4.778,4.7654,4.7298,4.6651,4.6525,4.6184,4.5635,4.5392,4.5422,4.5635,4.5392,4.5324,4.5393,4.5393,4.5415,4.547,4.5409,4.5294,4.5195,4.5512,4.5512,4.5448,4.5858,4.6029,4.612,4.612,4.621,4.6301,4.6301,4.6301,4.6276,4.61,4.5648,4.5221,4.5221,4.4518,4.379,4.379,4.3388,4.3014,4.3014,4.2821,4.2566,4.2195,4.1915,4.1659,4.1258,4.1201,4.1394,4.1923,4.1995,4.2188,4.2717,4.27,4.2598,4.2549,4.2604,4.2204,4.1188,4.1674,4.1757,4.1052,4.1702,4.1964,4.1609,4.2363,4.2637,4.2304,4.2425,4.2614,4.2858,4.2614,4.2813,4.3433,4.3502,4.3691,4.4879,4.7052,4.8134,4.7091,4.4746,4.2235,4.0586,3.8241,3.6405,3.6405,3.6405,3.6405,3.6405,3.6664,3.6859,3.6881,3.7627,3.8434,3.912,4.0753,4.2534,4.4364,4.7004,4.8661,4.8661,4.9238,4.959,4.959,4.959,4.959,4.959,4.959,4.9439,4.912,4.8919,4.8628,4.8302,4.8302,4.7877,4.7111,4.7111,4.6699,4.5969,4.5757,4.5787,4.5969,4.5757,4.5787,0.0,4.5999,4.609,4.6271,4.6059,4.5999,4.5999,4.5999,4.5999,4.5999,4.621,4.6301,4.6301,4.6301,4.6301,4.6301,4.6301,4.6301,4.6301,4.6301,4.6075,4.5799,4.5799,4.5121,4.4443,4.4443,4.4016,4.3589,4.3589,4.3212,4.2751,4.2462,4.1952,4.1593,4.1495,4.1514,4.1755,4.2447,4.2573,4.276,4.3289,4.3361,4.3289,4.3102,4.3241,4.3054,4.2317,4.2556,4.2513,4.1977,4.2626,4.2914,4.255,4.3146,4.3337,4.3057,4.3177,4.3343,4.3535,4.3343,4.3486,4.3982,4.3982,4.4106,0.0,4.6062,4.7229,4.6777,4.4263,4.1589,4.0493,3.826,0.0,3.6476,3.6476,3.6499,3.6523,3.6875,3.7017,3.6573,3.7315,3.8352,3.9548,4.08,4.2431,4.464,4.6296,4.7274,4.7224,4.8661,4.959,4.959,4.959,4.959,4.959,4.959,4.959,4.959,4.9145,4.871,4.8384,4.8384,4.811,4.7507,4.7457,4.7066,4.6426,4.6376,4.6376,4.6376,4.6376,4.6351,4.6301,4.6301,4.6301,4.6301,4.6301,4.6301,4.6301,4.6301,4.6301,4.6301,4.6301,4.6301,4.6301,4.6301,4.6301,4.6301,4.6301,4.6301,4.6301,4.6301,4.6301,4.6301,4.6301,4.5899,4.5497,4.5497,4.5045,4.4589,4.4589,4.3982,4.3317,4.2979,4.2221,4.171,4.1981,4.1995,4.2356,4.3361,4.3505,4.3691,4.4213,4.4285,4.4124,4.3595,4.4003,4.41,4.3595,4.3577,4.3523,4.3505,4.4003,4.4261,4.4244,4.4292,4.4285,4.4285,4.4285,4.434,4.4364,4.434,4.4285,4.4285,4.4285,4.4285,4.1204,0.0,4.2649,4.2477,4.1146,3.9681,0.0,3.7531,3.657,3.7129,3.7222,3.7338,3.7707,3.7707,3.7632,3.7554,3.7971,3.8613,3.9573,4.2484,4.5321,4.7531,4.851,4.8862,4.8435,4.9113,4.959,4.959,4.959,4.959,4.959,4.959,4.959,4.959,4.9464,4.9357,4.9318,4.9286,4.901,4.8491,4.8008,4.7689,4.7531,4.7099,4.6898,4.6898,4.6898,4.6672,4.6301,4.6301,4.6301,4.6301,4.6301,4.6301,4.6301,4.6301,4.6301,4.6301,4.6301,4.6301,4.6301,4.6301,4.6301,4.6301,4.6301,4.6301,4.6301,4.6301,4.6301,4.6301,4.6301,4.5899,4.5497,4.5497,4.5045,4.4589,4.4589,4.4107,4.3501,4.2995,4.2365,4.1938,4.1971,4.1995,4.2356,4.3361,4.3505,4.3691,4.4213,4.4285,4.4268,4.4148,4.4213,4.4268,4.4124,4.4124,4.3931,4.3553,4.4003,4.4124,4.3691,4.41,4.4285,4.4285,4.4285,4.4508,4.4917,4.4508,4.4285,4.4285,4.4285,4.4285,3.9847,4.0538,4.1021,4.0783,4.0193,3.9453,3.8545,3.7818,3.7361,3.7315,3.7407,3.7523,3.7687,3.7779,3.7781,3.7617,3.8558,3.9931,4.1732,4.3872,4.6137,4.8539,4.8794,4.8912,4.9145,4.9414,4.959,4.959,4.959,4.959,4.959,4.959,4.959,4.959,4.959,4.959,4.959,4.959,4.9314,4.8793,4.8492,4.8033,4.7525,4.7475,4.7324,4.7099,4.7099,4.6923,4.6647,4.6396,4.6301,4.6301,4.6301,4.6301,4.6301,4.6301,4.6301,4.6301,4.6301,4.6301,4.6301,4.6301,4.6301,4.6301,4.6301,4.6301,4.6301,4.6301,4.6301,4.6301,4.6301,4.6075,4.5874,4.5874,4.5623,4.5367,4.5367,4.4813,4.4181,4.3713,4.3056,4.2576,4.2669,4.2687,4.2952,4.3739,4.3982,4.4164,4.4268,4.444,4.447,4.4316,4.4285,4.4347,4.4532,4.4378,4.4196,4.3883,4.4148,4.4172,4.3883,4.4148,4.4285,4.4285,4.4285,4.4429,4.4748,4.4429,4.4285,4.4285,4.447,4.4532,3.9177,4.0089,4.0764,4.0372,4.0147,3.9781,3.8724,3.8389,3.8123,3.7407,3.7453,3.7595,3.742,3.7692,3.7862,3.7631,3.9423,4.1925,4.4881,4.5492,4.6531,4.9008,4.8855,4.8862,4.9748,4.9868,4.9886,4.9912,4.9879,4.9912,5.0072,5.0008,4.9944,4.9847,4.9783,4.9687,4.959,4.959,4.9314,4.8793,4.8793,4.8234,4.7224,4.7676,4.7626,4.7224,4.7224,4.7174,4.7074,4.6597,4.6376,4.6301,4.6301,4.6301,4.6301,4.6301,4.6301,4.6301,4.6301,4.6301,4.6301,4.6301,4.6301,4.6301,4.6301,4.6301,4.6301,4.6301,4.6301,4.6301,4.6301,4.6301,4.6301,4.6301,4.6301,4.6301,4.6301,4.568,4.5007,4.4644,4.3923,4.3454,4.3615,4.3596,4.3758,4.4343,4.4656,4.4717,4.447,4.4687,4.4779,4.447,4.444,4.4563,4.484,4.4625,4.444,4.4378,4.4316,4.4285,4.4285,4.4357,4.4436,4.4436,4.4467,4.4498,4.4498,4.4488,4.444,4.4378,4.4656,4.4779,3.8804,3.9304,3.9709,3.9658,3.9298,3.8851,3.8418,3.7891,3.7584,3.7971,3.8209,3.8432,3.8661,3.8444,3.8451,3.9111,4.1383,4.4196,4.7538,4.8202,4.9205,5.1413,5.1491,5.1276,5.0992,5.1106,5.1231,5.1283,5.1031,5.1225,5.2094,5.1877,5.1445,5.0879,5.0588,5.0142,4.959,4.959,4.9314,4.8793,4.8793,4.8435,4.7782,4.7883,4.7857,4.7782,4.7782,4.75,4.7099,4.7023,4.6697,4.6301,4.6301,4.6301,4.6301,4.6301,4.6301,4.6301,4.6301,4.6301,4.6301,4.6301,4.6301,4.6301,4.6301,4.6301,4.6301,4.6301,4.6301,4.6301,4.6301,4.6301,4.6301,4.6301,4.6301,4.6301,4.6301,4.5979,4.5539,4.5037,4.457,4.4312,4.435,4.411,4.4214,4.5019,4.4963,4.4871,4.5117,4.5178,4.5208,4.5147,4.5147,4.5178,4.5239,4.5178,4.5025,4.4748,4.447,4.4285,4.4285,4.4748,4.4989,4.4989,4.5271,4.5396,4.5396,4.5244,4.4994,4.4717,4.4779,4.4656,3.8122,3.844,3.8707,3.8581,3.9118,3.9429,3.8523,3.838,3.8243,3.7523,3.7592,3.7921,3.8547,3.9011,4.0057,4.2386,4.3825,4.5437,4.7777,4.8424,4.9402,5.1457,5.1806,5.2041,5.2416,5.2349,5.2293,5.2346,5.2068,5.2125,5.2558,5.1944,5.1414,5.11,5.0429,4.9912,4.959,4.959,4.9464,4.9213,4.8944,4.8667,4.8385,4.8385,4.8385,4.836,4.8033,4.7782,4.7475,4.6898,4.6522,4.6301,4.6301,4.6301,4.6301,4.6301,4.6301,4.6301,4.6301,4.6301,4.6301,4.6301,4.6301,4.6301,4.6301,4.6301,4.6301,4.6301,4.6301,4.6301,4.6301,4.6301,4.6301,4.6301,4.6301,4.6401,4.6672,4.6375,4.6024,4.5867,4.5523,4.5149,4.4968,4.4816,4.4853,4.522,4.5331,4.5331,4.53,4.5453,4.5514,4.5331,4.5417,4.5619,4.5989,4.5681,4.5256,4.4834,4.4501,4.4378,4.4563,4.4914,4.5203,4.5361,4.5626,4.574,4.574,4.5656,4.5559,4.5378,4.5566,4.5566,3.7506,3.7608,3.7739,3.7612,3.8667,3.9548,3.8702,3.8856,3.8874,3.7769,3.7669,3.7995,3.8818,4.0045,4.1961,4.4991,4.5947,4.6832,4.8384,4.9033,5.0059,5.2045,5.2564,5.3098,5.3972,5.3782,5.3571,5.3571,5.3234,5.3139,5.3383,5.2531,5.1944,5.1788,5.0747,5.011,4.9976,4.9719,4.954,4.9389,4.9145,4.8868,4.8592,4.8743,4.8718,4.8535,4.8109,4.7832,4.7657,4.6853,4.6396,4.6301,4.6301,4.6301,4.6301,4.6301,4.6301,4.6301,4.6301,4.6301,4.6301,4.6301,4.6371,4.6446,4.6351,4.6476,4.6652,4.6527,4.6602,4.6627,4.6376,4.6301,4.6351,4.6446,4.6502,4.6622,4.7174,4.6948,4.6712,4.686,4.6556,4.6221,4.5945,4.5754,4.5674,4.5859,4.5969,4.5974,4.592,4.6129,4.619,4.5945,4.6037,4.6345,4.6873,4.6376,4.5862,4.5446,4.5112,4.4988,4.5174,4.5399,4.5561,4.5656,4.5972,4.6126,4.603,4.6126,4.607,4.603,4.6357,4.6477,3.7081,3.688,3.6857,3.7091,3.7339,3.781,3.896,3.8884,3.8829,3.985,3.9876,3.9902,4.0504,4.2213,4.3962,4.5271,4.7086,4.9009,5.1023,5.1866,5.3022,5.4975,5.5444,5.5646,5.5702,5.5412,5.5236,5.532,5.4732,5.4791,5.57,5.5114,5.4435,5.3809,5.2562,5.1632,5.1005,5.0046,4.9339,4.8868,4.9314,4.8987,4.7983,4.8535,4.8485,4.7958,4.7933,4.7631,4.7149,4.7074,4.6747,4.6301,4.6301,4.6301,4.6301,4.6301,4.6301,4.6301,4.6301,4.6301,4.6301,4.6301,4.6622,4.6948,4.6446,4.7004,4.7682,4.7174,4.74,4.7556,4.6577,4.6301,4.6451,4.6923,4.7048,4.7174,4.7732,4.7832,4.7807,4.7801,4.7801,4.772,4.772,4.7041,4.6768,4.7583,4.7041,4.6854,4.7608,4.772,4.772,4.772,4.7739,4.7764,4.7795,4.7514,4.7358,4.7333,4.6925,4.6577,4.6292,4.6602,4.6499,4.5894,4.6516,4.6675,4.6357,4.67,4.6668,4.6357,4.6707,4.6675,3.5913,3.6141,3.6568,3.6536,3.6769,3.7392,3.8893,3.9196,3.9365,3.9976,4.0728,4.1618,4.2765,4.454,4.6185,4.7207,4.8731,5.0158,5.1137,5.2715,5.4049,5.4791,5.602,5.6766,5.6766,5.6509,5.6337,5.6365,5.5816,5.5643,5.6221,5.5057,5.4376,5.4318,5.2469,5.1351,5.11,5.0078,4.949,4.9321,4.9138,4.9038,4.8962,4.8868,4.8868,4.8912,4.8209,4.7782,4.7525,4.6903,4.6471,4.6301,4.6301,4.6301,4.6301,4.6301,4.6301,4.6301,4.6301,4.6301,4.6346,4.6672,4.6923,4.7124,4.728,4.7581,4.7857,4.7626,4.7757,4.7807,4.7405,4.7054,4.6923,4.745,4.7324,4.735,4.8259,4.8159,4.8008,4.8385,4.8159,4.7908,4.7908,4.7608,4.7527,4.7851,4.7608,4.7527,4.7851,4.7908,4.7908,4.7908,4.8234,4.8397,4.8144,4.8239,4.8302,4.8302,4.7473,4.6992,4.7086,4.7312,4.7445,4.7405,4.7757,4.7896,4.7767,4.7896,4.7896,4.7767,4.7896,4.7896,3.5183,3.5435,3.5917,3.6118,3.6413,3.7246,3.9373,3.9882,4.0183,4.1322,4.2336,4.3325,4.4331,4.5795,4.7146,4.8069,4.9486,5.0709,5.1466,5.3173,5.4497,5.4882,5.6337,5.7303,5.7303,5.7106,5.705,5.705,5.6566,5.6365,5.6566,5.5351,5.4762,5.4969,5.2777,5.157,5.157,5.027,4.959,4.959,4.9245,4.9238,4.959,4.9245,4.9038,4.9012,4.8234,4.7707,4.7355,4.6602,4.6301,4.6301,4.6301,4.6301,4.6301,4.6301,4.6301,4.6326,4.6471,4.6547,4.6622,4.7174,4.7475,4.7682,4.7857,4.8033,4.8184,4.8184,4.8184,4.8184,4.8184,4.7782,4.7475,4.8058,4.7782,4.7651,4.8786,4.8586,4.836,4.8944,4.8711,4.8435,4.8435,4.8309,4.8234,4.841,4.8284,4.8234,4.841,4.8435,4.8435,4.8435,4.8786,4.8974,4.8743,4.891,4.9069,4.9069,4.828,4.7891,4.7986,4.8089,4.8192,4.839,4.8458,4.8558,4.86,4.86,4.86,4.86,4.8706,4.8772,3.5103,3.4748,3.4834,3.577,3.6208,3.7267,4.0586,4.0909,4.1369,4.4305,4.4973,4.5022,4.5022,4.574,4.6622,4.7486,4.9013,5.0709,5.2373,5.3389,5.4499,5.5731,5.6737,5.7303,5.7303,5.7303,5.7303,5.7303,5.705,5.6908,5.6908,5.6308,5.6019,5.6019,5.3806,5.2588,5.2588,5.062,4.9622,4.9622,4.9622,4.959,4.959,4.959,4.8987,4.7908,4.7908,4.7305,4.6326,4.6301,4.6301,4.6301,4.6301,4.6301,4.6301,4.6301,4.6301,4.6401,4.6923,4.7099,4.7174,4.7732,4.8309,4.8693,4.8083,4.8309,4.8793,4.8818,4.8818,4.8818,4.8793,4.836,4.8058,4.8667,4.8309,4.8209,4.9339,4.9163,4.8969,4.949,4.959,4.959,4.959,4.917,4.8994,4.9515,4.917,4.9019,4.9515,4.959,4.959,4.959,4.959,4.959,4.959,4.959,4.959,4.959,4.959,4.9461,4.9105,4.8903,4.875,4.8608,4.8415,4.8415,4.8633,4.8633,4.8633,4.8633,4.8942,4.9105,3.4394,3.4609,3.5363,3.6699,3.7616,3.9015,4.2258,4.2434,4.2919,4.6544,4.7016,4.6805,4.6995,4.778,4.8449,4.859,4.9831,5.1309,5.2742,5.3749,5.4734,5.5788,5.6737,5.7303,5.7303,5.7303,5.7303,5.7303,5.705,5.6993,5.7162,5.6423,5.6077,5.6279,5.4527,5.3568,5.3568,5.2342,5.1721,5.169,5.0612,4.9914,4.959,4.922,4.8868,4.8492,4.7707,4.7149,4.6823,4.6476,4.6301,4.6301,4.6301,4.6301,4.6301,4.6301,4.6301,4.6401,4.6923,4.6848,4.6778,4.8083,4.8109,4.7807,4.8786,4.8937,4.8894,4.927,4.9339,4.9296,4.8894,4.8667,4.8492,4.8209,4.7757,4.7626,4.8786,4.8919,4.8969,4.949,4.959,4.959,4.959,4.9464,4.9414,4.9565,4.9464,4.9414,4.9565,4.959,4.959,4.959,4.959,4.959,4.959,4.959,4.959,4.959,4.959,4.9558,4.9461,4.9407,4.9343,4.9299,4.9246,4.9246,4.9324,4.9324,4.9324,4.9324,4.9396,4.9461,3.4768,3.5251,3.6204,3.7938,3.9118,4.0693,4.3835,4.4683,4.5576,4.8249,4.8201,4.7796,4.8365,4.8736,4.9099,4.9461,5.04,5.1627,5.3261,5.4049,5.4941,5.6135,5.6879,5.7303,5.7303,5.7303,5.7303,5.7303,5.7134,5.7106,5.7303,5.6709,5.6423,5.6595,5.5176,5.4408,5.4408,5.3079,5.2398,5.2398,5.1079,5.0245,4.9812,4.8876,4.8435,4.8385,4.7475,4.6973,4.6747,4.6421,4.6301,4.6301,4.6301,4.6301,4.6301,4.6301,4.6301,4.6401,4.6923,4.6898,4.6798,4.8033,4.7983,4.76,4.8636,4.856,4.8284,4.9063,4.9113,4.8912,4.8843,4.8793,4.8667,4.8033,4.7475,4.74,4.8567,4.8617,4.8661,4.9439,4.959,4.959,4.959,4.959,4.959,4.959,4.959,4.959,4.959,4.9791,4.9841,4.9615,4.9791,4.9841,4.9615,4.959,4.959,4.959,4.959,4.959,4.959,4.959,4.959,4.959,4.959,4.959,4.959,4.9816,4.9816,4.9615,4.9816,4.9916,3.5867,3.6427,3.732,3.9385,4.0884,4.2597,4.542,4.7302,4.8611,4.935,4.8736,4.8328,4.9204,4.9025,4.907,5.0328,5.0877,5.1846,5.3899,5.4348,5.5117,5.6737,5.7134,5.7303,5.7303,5.7303,5.7303,5.7303,5.7303,5.7303,5.7303,5.705,5.6908,5.6908,5.5759,5.5117,5.5117,5.3328,5.2433,5.2377,5.1341,5.0657,5.0305,4.8731,4.7945,4.7807,4.7249,4.6747,4.6301,4.6301,4.6301,4.6301,4.6301,4.6301,4.6326,4.6346,4.6351,4.6401,4.6973,4.7124,4.7124,4.7732,4.7832,4.7782,4.7883,4.755,4.74,4.8485,4.8435,4.8184,4.8693,4.8793,4.8667,4.8033,4.7525,4.745,4.8485,4.8309,4.8309,4.9389,4.959,4.959,4.959,4.959,4.959,4.959,4.964,4.9665,4.9665,5.0167,5.0268,4.9715,5.0167,5.0243,4.964,4.964,4.964,4.959,4.959,4.9615,4.9665,4.9615,4.959,4.959,4.959,4.959,4.959,5.0142,5.0167,4.969,5.0243,5.0494,3.6301,3.7147,3.8376,4.0878,4.3865,4.6519,4.7827,4.8741,4.9275,4.9012,4.9088,4.936,4.9862,5.0047,5.0595,5.1883,5.1767,5.2439,5.5117,5.4911,5.5176,5.6993,5.7275,5.7303,5.7303,5.7303,5.7303,5.7303,5.7303,5.7303,5.7303,5.705,5.6908,5.6908,5.6365,5.6106,5.6106,5.5223,5.4769,5.4713,5.2595,5.1526,5.1404,4.9748,4.836,4.7249,4.6697,4.6426,4.6301,4.6301,4.6301,4.6301,4.6301,4.6301,4.6351,4.6772,4.6647,4.6451,4.7405,4.7179,4.6652,4.7606,4.733,4.6803,4.7657,4.7832,4.7883,4.8617,4.8987,4.9163,4.8894,4.8793,4.8667,4.8033,4.7832,4.7807,4.8033,4.836,4.8786,4.9464,4.959,4.959,4.959,4.959,4.959,4.959,4.9967,5.0243,5.0243,5.0745,5.087,5.0293,5.0745,5.0695,4.969,4.9992,5.0067,4.9615,4.959,4.9791,5.0218,4.9816,4.959,4.959,4.959,4.959,4.959,5.0142,5.0336,5.0243,5.082,5.1096,3.6751,3.8177,4.0001,4.3045,4.5768,4.7896,4.8636,4.9188,4.9515,4.9213,4.9389,4.9751,5.0264,5.0487,5.1094,5.2588,5.2558,5.3113,5.538,5.5409,5.5644,5.6936,5.7219,5.7303,5.7303,5.7303,5.7303,5.7303,5.7303,5.7303,5.7303,5.7162,5.7078,5.7078,5.6908,5.6822,5.6822,5.6134,5.5734,5.5734,5.3979,5.2601,5.1489,4.9725,4.8268,4.7074,4.6798,4.6522,4.6301,4.6301,4.6301,4.6301,4.6301,4.6301,4.6351,4.6597,4.6522,4.6376,4.6954,4.6778,4.6401,4.6954,4.6778,4.6401,4.6979,4.733,4.7657,4.8209,4.8793,4.922,4.9163,4.9163,4.9044,4.846,4.8109,4.7983,4.8259,4.8592,4.8969,4.949,4.959,4.959,4.959,4.959,4.959,4.959,5.0067,5.0386,5.0386,5.1147,5.1348,5.0486,5.1172,5.1222,5.0092,5.0494,5.0594,5.0017,5.0243,5.0419,5.0386,5.0419,5.0393,5.0393,5.0393,5.0393,5.0393,5.0695,5.082,5.0845,5.1147,5.1423,3.7136,3.9218,4.1731,4.5176,4.697,4.8058,4.8667,4.9188,4.9622,4.9654,4.9687,4.9879,5.0493,5.0652,5.122,5.2834,5.3109,5.3685,5.5349,5.5759,5.6164,5.688,5.7162,5.7303,5.7303,5.7303,5.7303,5.7303,5.7303,5.7303,5.7303,5.7303,5.7303,5.7303,5.7303,5.7303,5.7303,5.6355,5.5897,5.5868,5.4677,5.3219,5.1544,4.9436,4.8004,4.7099,4.6998,4.6697,4.6301,4.6301,4.6301,4.6301,4.6301,4.6301,4.6326,4.6396,4.6401,4.6326,4.6426,4.6401,4.6301,4.6301,4.6301,4.6301,4.6301,4.6672,4.7224,4.7757,4.8309,4.8919,4.9464,4.959,4.949,4.9044,4.856,4.8309,4.8718,4.8868,4.9095,4.9515,4.959,4.959,4.959,4.959,4.959,4.959,5.0142,5.0569,5.0569,5.1473,5.1749,5.0795,5.1548,5.1674,5.0645,5.1096,5.1172,5.0594,5.1021,5.1096,5.072,5.1172,5.1473,5.1548,5.1373,5.1306,5.1306,5.1373,5.1423,5.1423,5.1523,5.18,3.7085,4.0052,4.3268,4.6215,4.7394,4.8058,4.8667,4.9188,4.9687,4.9944,5.0008,5.0136,5.0525,5.0836,5.1471,5.2895,5.3109,5.3719,5.5584,5.5875,5.625,5.7134,5.7275,5.7303,5.7303,5.7303,5.7303,5.7303,5.7303,5.7303,5.7303,5.7303,5.7303,5.7303,5.7303,5.7303,5.7303,5.6115,5.5478,5.5451,5.3234,5.2407,5.2762,4.9888,4.8032,4.7074,4.6597,4.6376,4.6301,4.6301,4.6301,4.6301,4.6301,4.6301,4.6376,4.6823,4.6697,4.6376,4.6823,4.6672,4.6301,4.6301,4.6301,4.6301,4.6301,4.6672,4.7224,4.7757,4.8309,4.8919,4.9464,4.959,4.9565,4.9515,4.9414,4.9264,4.8894,4.9195,4.9515,4.959,4.959,4.959,4.959,4.959,4.959,4.959,5.0494,5.1172,5.1172,5.1724,5.2051,5.19,5.2026,5.185,5.1222,5.1674,5.1749,5.1197,5.128,5.1448,5.1875,5.195,5.2226,5.2669,5.1774,5.1306,5.1306,5.1749,5.2,5.2,5.2477,5.2719,3.8908,4.1432,4.3896,4.6806,4.7732,4.8134,4.9038,4.9575,4.9912,5.0097,5.0867,5.1534,5.169,5.1846,5.2558,5.4378,5.4675,5.5147,5.648,5.668,5.6851,5.7247,5.7303,5.7303,5.7303,5.7303,5.7303,5.7303,5.7303,5.7303,5.7303,5.7303,5.7158,5.681,5.681,5.6636,5.6258,5.5678,5.5416,5.536,5.3458,5.2656,5.2799,5.0591,4.9046,4.806,4.7009,4.6451,4.6301,4.6301,4.6301,4.6301,4.6301,4.6301,4.6351,4.6547,4.6496,4.6351,4.6572,4.6496,4.6301,4.6301,4.6301,4.6301,4.6301,4.6672,4.7224,4.7757,4.8309,4.8919,4.9464,4.959,4.959,4.959,4.959,4.954,4.9321,4.9414,4.959,4.959,4.959,4.959,4.959,4.959,4.969,5.0017,5.0745,5.1306,5.1306,5.1774,5.1975,5.1674,5.1925,5.2,5.1774,5.2251,5.2327,5.1774,5.2026,5.2176,5.2101,5.2402,5.2644,5.2895,5.2452,5.2201,5.2201,5.2126,5.2251,5.2578,5.2468,5.2594,3.9935,4.1805,4.3444,4.6336,4.738,4.7958,4.9089,4.9709,5.02,5.0646,5.1721,5.2773,5.3352,5.3261,5.3598,5.5264,5.5759,5.6107,5.662,5.6931,5.7013,5.6839,5.6984,5.7071,5.7071,5.7071,5.7071,5.7071,5.7071,5.7071,5.7071,5.7071,5.6868,5.6432,5.6229,5.591,5.5416,5.5242,5.5184,5.5157,5.3377,5.2766,5.31,5.1071,4.9974,4.9518,4.7947,4.7138,4.6874,4.6874,4.7023,4.7205,4.7142,4.7087,4.7083,4.678,4.6661,4.6631,4.6391,4.6301,4.6301,4.6301,4.6301,4.6301,4.6301,4.6572,4.7023,4.7732,4.8209,4.8743,4.9414,4.959,4.959,4.959,4.959,4.959,4.959,4.959,4.959,4.959,4.959,4.959,4.959,4.959,4.9741,5.0142,5.0695,5.1122,5.1272,5.1649,5.185,5.1724,5.195,5.2176,5.2302,5.2644,5.2719,5.2352,5.2669,5.2719,5.2327,5.2669,5.2895,5.2895,5.2895,5.2895,5.2895,5.2528,5.2528,5.2895,5.2468,5.2528,3.8833,4.0177,4.1626,4.4155,4.5969,4.7392,4.8342,4.9368,5.055,5.2125,5.2527,5.3261,5.5323,5.5,5.4437,5.4556,5.5323,5.5735,5.5197,5.5903,5.6229,5.5591,5.6055,5.6461,5.6461,5.6461,5.6461,5.6461,5.6461,5.6461,5.6461,5.6461,5.6432,5.6403,5.5794,5.5445,5.5416,5.4809,5.4575,5.4519,5.2151,5.2234,5.43,5.1015,5.0293,5.1457,4.939,4.8498,4.8469,4.8469,4.8961,4.9702,4.9447,4.9333,4.919,4.8058,4.7645,4.7497,4.6601,4.6301,4.6301,4.6301,4.6301,4.6301,4.6301,4.6326,4.6577,4.7606,4.7933,4.8209,4.9314,4.959,4.959,4.959,4.959,4.959,4.959,4.959,4.959,4.959,4.959,4.959,4.959,4.959,4.9615,4.964,5.0117,5.067,5.1222,5.1297,5.1724,5.2694,5.2402,5.2327,5.2795,5.287,5.2895,5.2845,5.287,5.287,5.2845,5.287,5.2895,5.2895,5.2895,5.2895,5.2895,5.287,5.287,5.2895,5.287,5.287,3.8818,4.0181,4.1628,4.3533,4.5313,4.6734,4.7262,4.8691,5.0301,5.1728,5.2964,5.4259,5.5643,5.5643,5.5473,5.5681,5.6021,5.5988,5.5327,5.5573,5.5678,5.5445,5.562,5.5765,5.5765,5.5765,5.5765,5.5765,5.6171,5.6229,5.5794,5.6171,5.6026,5.5213,5.4952,5.4633,5.4197,5.3994,5.3878,5.3851,5.298,5.3007,5.3825,5.263,5.2029,5.1975,5.121,5.035,4.9447,4.9447,4.9617,4.9873,4.9816,4.9759,4.9702,4.9276,4.8758,4.8178,4.7652,4.7112,4.6596,4.6361,4.6301,4.6301,4.6301,4.6301,4.6527,4.7606,4.7908,4.8159,4.9289,4.959,4.959,4.959,4.959,4.959,4.959,4.959,4.959,4.959,4.959,4.959,4.959,4.9891,5.0243,5.0619,5.0845,5.1046,5.1247,5.1306,5.1456,5.1825,5.2026,5.2327,5.2845,5.2895,5.2895,5.2895,5.2895,5.2895,5.2895,5.2895,5.2895,5.2895,5.2895,5.2895,5.2895,5.2895,5.2895,5.2895,5.2895,5.2895,3.8653,3.9872,4.1285,4.3305,4.4728,4.6047,4.751,4.8856,5.0364,5.2388,5.3799,5.504,5.6165,5.6365,5.6394,5.6408,5.6403,5.6171,5.5503,5.5416,5.5329,5.5126,5.53,5.5329,5.5126,5.5097,5.5097,5.5097,5.5707,5.5794,5.5126,5.5707,5.5503,5.42,5.4142,5.3938,5.3474,5.3474,5.3474,5.3474,5.3211,5.3211,5.3474,5.3211,5.289,5.265,5.265,5.1894,5.0684,5.0684,5.0851,5.11,5.0989,5.0962,5.0906,5.0517,5.0013,4.939,4.8558,4.7886,4.729,4.6661,4.6476,4.6476,4.6331,4.6301,4.6502,4.7375,4.7782,4.8134,4.9063,4.9464,4.959,4.959,4.959,4.959,4.959,4.959,4.959,4.959,4.9741,4.9866,4.9866,5.0343,5.0845,5.1255,5.1122,5.1071,5.1247,5.1096,5.1147,5.1523,5.1875,5.2327,5.2845,5.2895,5.2895,5.2895,5.2895,5.2895,5.2895,5.2895,5.2895,5.2895,5.2895,5.2895,5.2895,5.2895,5.2895,5.2895,5.2895,5.2895,0.0,0.0,0.0,4.3202,4.4142,4.5262,4.8892,4.9707,5.0675,5.4177,5.4913,5.5396,5.6989,5.7274,5.7071,5.649,5.6374,5.6142,5.5474,5.5358,5.5126,5.4519,5.501,5.5099,5.4546,5.4487,5.4487,5.4487,5.5039,5.5126,5.449,5.5039,5.4778,5.3559,5.3474,5.3474,5.3474,5.3474,5.3474,5.3474,5.265,5.2677,5.3448,5.2623,5.2703,5.3474,5.3474,5.3025,5.2247,5.2247,5.273,5.3448,5.3213,5.3136,5.2974,5.1813,5.1348,5.1072,4.9304,4.8671,4.8469,4.7286,4.6866,4.6806,4.6451,4.6331,4.6426,4.6948,4.7475,4.8033,4.8667,4.922,4.959,4.959,4.959,4.959,4.959,4.9615,4.9615,4.9615,5.0067,5.0444,5.0444,5.0921,5.1297,5.1297,5.082,5.067,5.1222,5.0795,5.0845,5.1925,5.2076,5.2302,5.282,5.287,5.287,5.2895,5.2895,5.2895,5.2895,5.287,5.287,5.2895,5.287,5.287,5.2895,5.2895,5.2895,5.2895,5.2895,5.2895,3.8508,0.0,0.0,0.0,0.0,0.0,4.4975,4.6166,4.8056,5.2149,5.293,5.3688,5.6179,5.6665,5.6432,5.5794,5.5678,5.5474,5.4865,5.4316,5.3938,5.3793,5.3909,5.3965,5.3764,5.3791,5.3791,5.3791,5.44,5.4461,5.3793,5.3909,5.3851,5.3503,5.3474,5.3474,5.3474,5.3474,5.3474,5.3474,5.3263,5.3263,5.3474,5.3237,5.3263,5.3474,5.3474,5.3343,5.3158,5.3158,5.329,5.3474,5.3424,5.3398,5.3372,5.3025,5.2489,5.1839,5.11,5.0434,4.9814,4.9219,4.8613,4.8058,4.771,4.7172,4.6727,4.7009,4.7475,4.8134,4.9113,4.949,4.959,4.959,4.959,4.959,4.959,4.9916,5.0193,5.0193,5.0645,5.1046,5.1046,5.1498,5.1875,5.1875,5.1749,5.1548,5.1322,5.1147,5.0996,5.0896,5.1272,5.1724,5.2277,5.2327,5.2503,5.287,5.2895,5.2895,5.2895,5.2553,5.2528,5.2895,5.2528,5.2494,5.2895,5.2895,5.2895,5.2895,5.2895,5.2895,0.0,0.0,0.0,4.1841,0.0,0.0,4.4215,4.5196,4.6871,5.0701,5.172,5.2579,5.4786,5.5416,5.5562,5.5416,5.5184,5.501,5.4894,5.4546,5.42,5.3965,5.3909,5.3793,5.353,5.3474,5.3474,5.3474,5.4113,5.4316,5.3965,5.3648,5.3474,5.3474,5.3474,5.3474,5.3474,5.3474,5.3474,5.3474,5.3239,5.3268,5.3474,5.3239,5.3268,5.3474,5.3474,5.3474,5.3474,5.3474,5.3474,5.3474,5.3474,5.3474,5.3474,5.3474,5.3184,5.265,5.211,5.1594,5.1045,5.0322,4.9759,4.9217,4.85,4.7945,4.7486,4.7096,4.7422,4.8159,4.9289,4.959,4.959,4.959,4.959,4.9665,4.9891,5.0368,5.0695,5.0469,5.1071,5.1624,5.1624,5.2076,5.2418,5.2418,5.2251,5.19,5.1348,5.1071,5.0795,5.0444,5.072,5.1147,5.1724,5.1749,5.2,5.2519,5.2377,5.2352,5.2578,5.2051,5.1925,5.2226,5.2151,5.2377,5.2895,5.2895,5.2895,5.2895,5.2895,5.2895,0.0,0.0,0.0,4.3894,4.3346,0.0,4.5133,4.5608,4.6476,4.9557,5.0723,5.1588,5.2949,5.3733,5.4316,5.4807,5.472,5.4807,5.5329,5.5358,5.5068,5.4458,5.4432,5.4255,5.3588,5.3474,5.3474,5.3474,5.4025,5.4374,5.4374,5.3822,5.3474,5.3474,5.3474,5.3474,5.3474,5.3474,5.3474,5.3474,5.2888,5.2917,5.35,5.2888,5.2946,5.3474,5.3474,5.3474,5.3474,5.3474,5.3474,5.3474,5.3474,5.3474,5.3474,5.3474,5.3474,5.3395,5.2596,5.2355,5.2193,5.11,5.0684,5.0377,4.9188,4.8729,4.8408,4.7291,4.7455,4.819,4.9289,4.959,4.959,4.959,4.964,4.9816,5.0318,5.0921,5.1222,5.0695,5.1473,5.2201,5.2201,5.2569,5.287,5.282,5.2477,5.1975,5.1373,5.082,5.0494,5.0386,5.0368,5.0569,5.1147,5.1197,5.1423,5.1975,5.1548,5.1498,5.2,5.1473,5.1222,5.1306,5.1825,5.2352,5.2795,5.287,5.2895,5.2895,5.2895,5.2895,4.1943,4.2608,4.2994,4.3373,4.3035,0.0,4.3612,4.4061,4.5034,4.7764,4.8436,4.9112,5.0913,5.1759,5.2049,5.1697,5.3646,5.5271,5.5387,5.4981,5.4432,5.3764,5.4168,5.4255,5.3588,5.3474,5.3474,5.3474,5.3619,5.3677,5.3677,5.3588,5.3474,5.3474,5.3474,5.3474,5.3474,5.3474,5.3474,5.3474,5.2888,5.2917,5.35,5.2888,5.2946,5.3474,5.3474,5.3474,5.3474,5.3474,5.3474,5.3474,5.3474,5.3474,5.3474,5.3474,5.3474,5.3474,5.3316,5.3237,5.3211,5.2972,5.2435,5.1621,5.0405,4.9559,4.8854,4.8272,4.819,4.8496,4.9378,4.959,4.959,4.959,4.9941,5.0293,5.0393,5.1222,5.1925,5.18,5.2327,5.2719,5.2719,5.282,5.2744,5.2327,5.2519,5.2402,5.1398,5.1197,5.0946,5.0436,5.0017,4.9992,5.0544,5.0594,5.082,5.1398,5.1381,5.1356,5.1448,5.0896,5.0795,5.1306,5.1825,5.2151,5.2277,5.2669,5.2895,5.2895,5.2895,5.2895,4.324,4.3782,4.4087,4.3662,4.3403,0.0,0.0,4.3176,4.402,4.5499,4.6102,4.676,4.8067,4.9059,4.9814,5.0133,5.2078,5.3617,5.3965,5.4836,5.5213,5.4546,5.4487,5.4371,5.4025,5.3677,5.3474,5.3474,5.3474,5.3474,5.3474,5.3474,5.3474,5.3474,5.3474,5.3474,5.3474,5.3474,5.3474,5.3474,5.2888,5.2917,5.35,5.2888,5.2946,5.3474,5.3474,5.3474,5.3474,5.3474,5.3474,5.3474,5.3474,5.3474,5.3474,5.3474,5.3474,5.3474,5.3474,5.3474,5.3474,5.3474,5.3211,5.265,5.1594,5.0455,4.9422,4.9001,4.9004,4.9226,4.9741,4.9847,4.9815,4.9622,5.0017,5.0494,5.0795,5.1523,5.2176,5.2452,5.2694,5.2895,5.2895,5.2895,5.2694,5.2176,5.2352,5.2126,5.0996,5.1096,5.0946,5.0092,5.0017,5.0017,5.0017,5.0017,5.0243,5.082,5.0594,5.0569,5.0845,5.0318,5.0268,5.0845,5.1122,5.1398,5.1699,5.2251,5.2619,5.2895,5.2895,5.2895,4.4784,4.5293,4.566,4.4459,4.4271,4.4078,0.0,0.0,0.0,4.3826,4.433,4.4945,4.5468,4.6492,4.7544,4.8526,4.9988,5.1236,5.1835,5.3962,5.5271,5.4749,5.4432,5.4284,5.4139,5.353,5.3239,5.35,5.3271,5.3242,5.3474,5.3474,5.3474,5.3474,5.3474,5.3474,5.3474,5.3474,5.3474,5.3474,5.2888,5.2917,5.35,5.2888,5.2946,5.3474,5.3474,5.3474,5.3474,5.3474,5.3474,5.3474,5.3474,5.3474,5.3474,5.3474,5.3474,5.3474,5.3474,5.3474,5.3474,5.3474,5.3395,5.3131,5.2408,5.1293,5.0174,4.9774,4.9892,5.0152,5.0175,5.02,5.0104,4.9783,5.0114,5.0635,5.118,5.1724,5.2277,5.2795,5.2895,5.2895,5.2895,5.2895,5.2694,5.2176,5.2201,5.19,5.087,5.1147,5.1046,5.0017,5.0218,5.0193,4.964,4.959,4.9791,5.0218,4.9841,4.9791,5.0243,4.9841,4.9791,5.0243,5.0368,5.0645,5.1122,5.1774,5.2327,5.2744,5.2845,5.2895,4.621,4.6904,4.7194,4.5813,4.5834,4.5873,4.4592,0.0,4.4566,4.4074,0.0,4.4397,4.4455,0.0,0.0,4.4938,4.723,4.9131,4.9429,5.1038,5.2111,5.2023,5.2978,5.3413,5.2888,5.2223,5.2285,5.3442,5.243,5.2285,5.3416,5.3474,5.3474,5.3474,5.3474,5.3474,5.3474,5.3474,5.3474,5.3474,5.2888,5.2917,5.35,5.2888,5.2946,5.3474,5.3474,5.3474,5.3474,5.3474,5.3474,5.3474,5.3474,5.3474,5.3474,5.3474,5.3474,5.3474,5.3474,5.3474,5.3474,5.3474,5.2998,5.2328,5.2247,5.1904,5.1447,5.0765,5.0993,5.1329,5.0687,5.0525,5.0455,5.0104,5.0438,5.0955,5.1213,5.1724,5.2277,5.2795,5.2895,5.2895,5.2895,5.2895,5.2694,5.2176,5.2494,5.2569,5.2,5.1975,5.1774,5.1147,5.0695,5.0193,4.964,4.959,4.9615,4.969,4.9615,4.9615,4.969,4.9615,4.9615,4.969,5.0167,5.0411,5.0486,5.1574,5.2126,5.2201,5.2669,5.2895,4.6818,4.7067,4.7066,4.5969,4.6109,4.6189,4.4893,4.4753,4.4756,4.4268,0.0,0.0,0.0,0.0,0.0,0.0,4.6724,4.798,4.8009,4.8915,5.0247,5.2136,5.2068,5.1784,5.1523,5.1261,5.1439,5.2314,5.1585,5.1614,5.2891,5.2978,5.3123,5.3474,5.3474,5.3474,5.3474,5.3474,5.3474,5.3474,5.3239,5.3239,5.3474,5.3239,5.3268,5.3474,5.3474,5.3474,5.3474,5.3474,5.3474,5.3474,5.3474,5.3474,5.3474,5.3474,5.3474,5.3474,5.3474,5.3474,5.3474,5.3474,5.3237,5.2837,5.2355,5.2598,5.291,5.2101,5.2188,5.2391,5.1891,5.1314,5.0881,5.0921,5.1147,5.1542,5.1959,5.2312,5.2619,5.2845,5.2895,5.2895,5.2895,5.2895,5.2694,5.2176,5.2302,5.2251,5.1699,5.19,5.19,5.1381,5.1071,5.0695,5.0117,4.9766,4.959,4.959,4.959,4.959,4.959,4.959,4.959,4.959,4.9816,4.9941,4.9941,5.0745,5.1297,5.1649,5.2528,5.2895,4.689,4.7125,4.7165,4.6181,4.6414,4.6512,4.5264,4.5169,4.5237,4.4682,4.4219,0.0,0.0,0.0,4.4659,4.5089,0.0,4.6668,4.6541,4.681,4.8115,5.0899,5.0755,5.0448,5.0448,5.0249,5.0394,5.1037,5.0336,5.0535,5.1987,5.2075,5.2452,5.3239,5.3239,5.3326,5.3474,5.3474,5.3474,5.3474,5.3474,5.3474,5.3474,5.3474,5.3474,5.3474,5.3474,5.3474,5.3474,5.3474,5.3474,5.3474,5.3474,5.3474,5.3474,5.3474,5.3474,5.3474,5.3474,5.3474,5.3474,5.3474,5.3474,5.3427,5.2986,5.3541,5.4259,5.3526,5.3579,5.3749,5.3261,5.2404,5.1722,5.1946,5.1929,5.2024,5.263,5.2877,5.3002,5.3042,5.3067,5.3033,5.2929,5.2895,5.2744,5.2402,5.2327,5.2176,5.1774,5.2076,5.2126,5.1574,5.1406,5.1046,5.0436,4.9916,4.959,4.959,4.959,4.959,4.959,4.959,4.959,4.959,4.959,4.959,4.959,5.0142,5.0645,5.1071,5.2176,5.2744,4.6422,4.7421,4.8166,4.6898,4.7186,4.7404,4.6156,4.6195,4.6307,4.5442,4.5418,4.5427,4.5018,4.4613,4.4237,0.0,4.4406,0.0,0.0,4.456,4.5062,4.6766,4.8629,4.9731,4.9731,4.9151,4.9035,4.9702,4.8595,4.8735,5.0651,5.0768,5.1319,5.2597,5.2626,5.2917,5.3474,5.3474,5.3474,5.3474,5.3474,5.3474,5.3474,5.3474,5.3474,5.3474,5.3474,5.3474,5.3474,5.3474,5.3474,5.3474,5.3474,5.3474,5.3474,5.3474,5.3474,5.3474,5.3474,5.3474,5.3474,5.3474,5.3474,5.3619,5.4231,5.4869,5.5286,5.4998,5.5337,5.5614,5.4675,5.3719,5.309,5.3281,5.2649,5.2214,5.302,5.321,5.3255,5.3445,5.3478,5.3341,5.2964,5.2895,5.2895,5.287,5.287,5.287,5.2845,5.2845,5.2644,5.2126,5.1599,5.1046,5.0436,4.9916,4.959,4.959,4.959,4.959,4.959,4.959,4.959,4.959,4.959,4.959,4.959,5.0142,5.0386,5.0469,5.1599,5.2427,4.6573,4.7421,4.8157,4.7799,4.7764,4.7596,4.6914,4.6868,4.6865,4.6439,4.6401,4.6332,4.5943,4.5739,0.0,0.0,0.0,4.4676,0.0,4.4179,4.49,4.646,4.7603,4.8185,4.8045,4.7817,4.8091,4.8948,4.7845,4.7985,4.9925,5.0042,5.0622,5.1904,5.2365,5.2888,5.3474,5.3474,5.3474,5.3474,5.3474,5.3474,5.3474,5.3474,5.3474,5.3474,5.3474,5.3474,5.3474,5.3474,5.3474,5.3474,5.3474,5.3474,5.3474,5.3474,5.3791,5.42,5.4633,5.4517,5.4226,5.4633,5.4487,5.4284,5.4923,5.5562,5.603,5.5927,5.5908,5.5846,5.5498,5.4259,5.332,5.4132,5.3392,5.2796,5.3834,5.3891,5.3766,5.3835,5.3648,5.3444,5.3307,5.3067,5.2895,5.2895,5.2895,5.2895,5.2895,5.2895,5.282,5.2644,5.2151,5.1599,5.1046,5.0142,4.959,4.959,4.959,4.959,4.959,4.959,4.959,4.959,4.959,4.959,4.959,4.9791,5.0067,5.0444,5.1197,5.185,4.6296,4.7119,4.7859,4.8203,4.8272,4.8086,4.7378,4.7502,4.77,4.734,4.7258,4.7205,4.7057,4.6565,4.6006,0.0,0.0,0.0,0.0,4.4074,4.4827,4.5597,4.669,4.7356,4.7219,4.7105,4.7247,4.7666,4.6917,4.7143,4.8595,4.8909,4.9722,5.1236,5.1904,5.2659,5.3474,5.3474,5.3474,5.3474,5.3474,5.3474,5.3474,5.3474,5.3474,5.3474,5.3474,5.3474,5.3474,5.3474,5.3474,5.3474,5.3474,5.3474,5.3474,5.3474,5.3764,5.4229,5.4865,5.4836,5.4577,5.5186,5.5155,5.4952,5.5591,5.6055,5.649,5.6955,5.6764,5.6451,5.6709,5.56,5.4685,5.5611,5.4829,5.4098,5.5043,5.4813,5.4335,5.4208,5.3895,5.3648,5.3512,5.317,5.2895,5.2895,5.2895,5.2895,5.2895,5.2895,5.2895,5.2895,5.2427,5.18,5.1046,5.0117,4.959,4.959,4.959,4.959,4.959,4.959,4.969,4.9891,4.969,4.969,4.9891,4.969,4.9766,5.0142,5.072,5.1172]},{"header":{"parameterUnit":"m.s-1","parameterCategory":1,"la1":30.6,"la2":29.2853,"lo1":-89.7004,"lo2":-87.6739,"dy":0.0162,"dx":0.0183,"nx":112,"ny":82,"refTime":"2023-05-25T18:00:00:Z","depth":0,"parameterNumber":3,"parameterNumberName":"V-component_of_WINDS"},"data":[0.0,0.0,0.0,0.0,0.0,0.0,0.0,0.0,0.0,0.0,0.0,0.0,0.0,0.0,0.0,0.0,0.0,0.0,0.0,0.0,0.0,0.0,0.0,0.0,0.0,0.0,0.0,0.0,0.0,0.0,0.0,0.0,0.0,0.0,0.0,0.0,0.0,0.0,0.0,0.0,0.0,0.0,0.0,0.0,0.0,0.0,0.0,0.0,0.0,0.0,0.0,0.0,0.0,0.0,0.0,0.0,0.0,0.0,0.0,0.0,0.0,0.0,0.0,0.0,0.0,0.0,0.0,0.0,0.0,0.0,0.0,0.0,0.0,0.0,0.0,0.0,0.0,0.0,0.0,0.0,0.0,0.0,0.0,0.0,0.0,0.0,0.0,0.0,0.0,0.0,3.5414,3.542,3.5347,3.527,3.5168,3.5366,3.5417,3.5227,0.0,0.0,0.0,0.0,0.0,0.0,0.0,0.0,0.0,0.0,0.0,0.0,0.0,0.0,0.0,0.0,0.0,0.0,0.0,0.0,0.0,0.0,0.0,0.0,0.0,0.0,0.0,0.0,0.0,0.0,0.0,0.0,0.0,0.0,0.0,0.0,0.0,0.0,0.0,0.0,0.0,0.0,0.0,0.0,0.0,0.0,0.0,0.0,0.0,0.0,0.0,0.0,0.0,0.0,0.0,0.0,0.0,0.0,0.0,0.0,0.0,0.0,0.0,0.0,0.0,0.0,0.0,0.0,0.0,0.0,0.0,0.0,0.0,0.0,0.0,0.0,0.0,0.0,0.0,0.0,0.0,0.0,0.0,0.0,0.0,0.0,0.0,0.0,0.0,0.0,0.0,0.0,0.0,0.0,0.0,0.0,0.0,0.0,0.0,0.0,0.0,0.0,0.0,0.0,3.4898,3.4594,3.4781,3.5024,3.5351,3.4944,3.5012,3.5739,0.0,0.0,0.0,0.0,0.0,0.0,0.0,0.0,0.0,0.0,0.0,0.0,0.0,0.0,0.0,0.0,0.0,0.0,0.0,0.0,0.0,0.0,0.0,0.0,0.0,0.0,0.0,0.0,0.0,0.0,0.0,0.0,0.0,0.0,0.0,0.0,0.0,0.0,0.0,0.0,0.0,0.0,0.0,0.0,0.0,0.0,0.0,0.0,0.0,0.0,0.0,0.0,0.0,0.0,0.0,0.0,0.0,0.0,0.0,0.0,0.0,0.0,0.0,0.0,0.0,0.0,0.0,0.0,0.0,0.0,0.0,0.0,0.0,0.0,0.0,0.0,0.0,0.0,0.0,0.0,0.0,0.0,0.0,0.0,0.0,0.0,0.0,0.0,0.0,0.0,0.0,0.0,0.0,0.0,0.0,0.0,0.0,0.0,0.0,0.0,0.0,0.0,0.0,3.4586,3.4545,3.4748,3.4905,3.5127,3.5528,3.5755,3.5873,3.5913,3.6143,0.0,0.0,0.0,0.0,0.0,0.0,0.0,0.0,0.0,0.0,0.0,0.0,0.0,0.0,0.0,0.0,0.0,0.0,0.0,0.0,0.0,0.0,0.0,0.0,0.0,0.0,0.0,0.0,0.0,0.0,0.0,0.0,0.0,0.0,0.0,0.0,0.0,0.0,0.0,0.0,0.0,0.0,0.0,0.0,0.0,0.0,0.0,0.0,0.0,0.0,0.0,0.0,0.0,0.0,0.0,0.0,0.0,0.0,0.0,0.0,0.0,0.0,0.0,0.0,0.0,0.0,0.0,0.0,0.0,0.0,0.0,0.0,0.0,0.0,0.0,0.0,0.0,0.0,0.0,0.0,0.0,0.0,0.0,0.0,0.0,0.0,0.0,0.0,0.0,0.0,0.0,0.0,0.0,0.0,0.0,0.0,0.0,0.0,0.0,0.0,0.0,0.0,3.4525,3.4595,3.5145,3.5319,3.5512,3.5757,3.6356,3.6476,3.6003,3.6242,0.0,0.0,0.0,0.0,0.0,0.0,0.0,0.0,0.0,0.0,0.0,0.0,0.0,0.0,0.0,0.0,0.0,0.0,0.0,0.0,0.0,0.0,0.0,0.0,0.0,0.0,0.0,0.0,0.0,0.0,0.0,0.0,0.0,0.0,0.0,0.0,0.0,0.0,0.0,0.0,0.0,0.0,0.0,0.0,0.0,0.0,0.0,0.0,0.0,0.0,0.0,0.0,0.0,0.0,0.0,0.0,0.0,0.0,0.0,0.0,0.0,0.0,0.0,0.0,0.0,0.0,0.0,0.0,0.0,0.0,0.0,0.0,0.0,0.0,0.0,0.0,0.0,0.0,0.0,0.0,0.0,0.0,0.0,0.0,0.0,0.0,0.0,0.0,0.0,0.0,0.0,0.0,0.0,0.0,0.0,0.0,0.0,0.0,0.0,0.0,0.0,0.0,3.5102,3.5315,3.5537,3.5953,3.6155,3.5986,3.5863,3.5898,3.615,3.5646,0.0,0.0,0.0,0.0,0.0,0.0,0.0,0.0,0.0,0.0,0.0,0.0,0.0,0.0,0.0,0.0,0.0,0.0,0.0,0.0,0.0,0.0,0.0,0.0,0.0,0.0,0.0,0.0,0.0,0.0,0.0,0.0,0.0,0.0,0.0,0.0,0.0,0.0,0.0,0.0,0.0,0.0,0.0,0.0,0.0,0.0,0.0,0.0,0.0,0.0,0.0,0.0,0.0,0.0,0.0,0.0,0.0,0.0,0.0,0.0,0.0,0.0,0.0,0.0,0.0,0.0,0.0,0.0,0.0,0.0,0.0,0.0,0.0,0.0,0.0,0.0,0.0,0.0,0.0,0.0,0.0,0.0,0.0,0.0,0.0,0.0,0.0,0.0,0.0,0.0,0.0,0.0,0.0,0.0,0.0,0.0,0.0,0.0,0.0,0.0,0.0,0.0,3.4513,3.4776,3.569,3.5743,3.5879,3.6226,3.6749,3.6817,3.6244,0.0,0.0,0.0,0.0,0.0,0.0,0.0,0.0,0.0,0.0,0.0,0.0,0.0,0.0,0.0,0.0,0.0,0.0,0.0,0.0,0.0,0.0,0.0,0.0,0.0,0.0,0.0,0.0,0.0,0.0,0.0,0.0,0.0,0.0,0.0,0.0,0.0,0.0,0.0,0.0,0.0,0.0,0.0,0.0,0.0,0.0,0.0,0.0,0.0,0.0,0.0,0.0,0.0,0.0,0.0,0.0,0.0,0.0,0.0,0.0,0.0,0.0,0.0,0.0,0.0,0.0,0.0,0.0,0.0,0.0,0.0,0.0,0.0,0.0,0.0,0.0,0.0,0.0,0.0,0.0,0.0,0.0,0.0,0.0,0.0,0.0,0.0,0.0,0.0,0.0,0.0,0.0,0.0,0.0,0.0,0.0,0.0,0.0,0.0,0.0,0.0,0.0,3.4384,3.4526,3.4983,3.5795,3.5903,3.6008,3.6365,3.6978,3.7021,3.6262,0.0,0.0,0.0,0.0,0.0,0.0,0.0,0.0,0.0,0.0,0.0,0.0,0.0,0.0,0.0,0.0,0.0,0.0,0.0,0.0,0.0,0.0,0.0,0.0,0.0,0.0,0.0,0.0,0.0,0.0,0.0,0.0,0.0,0.0,0.0,0.0,0.0,0.0,0.0,0.0,0.0,0.0,0.0,0.0,0.0,0.0,0.0,0.0,0.0,0.0,0.0,0.0,0.0,0.0,0.0,0.0,0.0,0.0,0.0,0.0,0.0,0.0,0.0,0.0,0.0,0.0,0.0,0.0,0.0,0.0,0.0,0.0,0.0,0.0,0.0,0.0,0.0,0.0,0.0,0.0,0.0,0.0,0.0,0.0,0.0,0.0,0.0,0.0,0.0,0.0,0.0,0.0,0.0,0.0,0.0,0.0,0.0,0.0,0.0,0.0,0.0,0.0,3.4326,3.543,3.6174,3.5917,3.6502,3.6749,3.6413,3.6276,3.6204,0.0,0.0,0.0,0.0,0.0,0.0,0.0,0.0,0.0,0.0,0.0,0.0,0.0,0.0,0.0,0.0,0.0,0.0,0.0,0.0,0.0,0.0,0.0,0.0,0.0,0.0,0.0,0.0,0.0,0.0,0.0,0.0,0.0,0.0,0.0,0.0,0.0,0.0,0.0,0.0,0.0,0.0,0.0,0.0,0.0,0.0,0.0,0.0,0.0,0.0,0.0,0.0,0.0,0.0,0.0,0.0,0.0,0.0,0.0,0.0,0.0,0.0,0.0,0.0,0.0,0.0,0.0,0.0,0.0,0.0,0.0,0.0,0.0,0.0,0.0,0.0,0.0,0.0,0.0,0.0,0.0,0.0,0.0,0.0,0.0,0.0,0.0,0.0,0.0,0.0,0.0,0.0,0.0,0.0,0.0,0.0,0.0,0.0,0.0,0.0,0.0,0.0,0.0,3.4306,3.4934,3.5636,3.6127,3.6225,3.6343,3.6583,3.6797,3.6697,3.6233,0.0,0.0,0.0,0.0,0.0,0.0,0.0,0.0,0.0,0.0,0.0,0.0,0.0,0.0,0.0,0.0,0.0,0.0,0.0,0.0,0.0,0.0,0.0,0.0,0.0,0.0,0.0,0.0,0.0,0.0,0.0,0.0,0.0,0.0,0.0,0.0,0.0,0.0,0.0,0.0,0.0,0.0,0.0,0.0,0.0,0.0,0.0,0.0,0.0,0.0,0.0,0.0,0.0,0.0,0.0,0.0,0.0,0.0,0.0,0.0,0.0,0.0,0.0,0.0,0.0,0.0,0.0,0.0,0.0,0.0,0.0,0.0,0.0,0.0,0.0,0.0,0.0,0.0,0.0,0.0,0.0,0.0,0.0,0.0,0.0,0.0,0.0,0.0,0.0,0.0,0.0,0.0,0.0,0.0,0.0,0.0,0.0,0.0,0.0,0.0,0.0,0.0,3.4056,3.4547,3.5258,3.5979,3.6116,3.6377,3.6889,3.6852,3.6711,3.6446,0.0,0.0,0.0,0.0,0.0,0.0,0.0,0.0,0.0,0.0,0.0,0.0,0.0,0.0,0.0,0.0,0.0,0.0,0.0,0.0,0.0,0.0,0.0,0.0,0.0,0.0,0.0,0.0,0.0,0.0,0.0,0.0,0.0,0.0,0.0,0.0,0.0,0.0,0.0,0.0,0.0,0.0,0.0,0.0,0.0,0.0,0.0,0.0,0.0,0.0,0.0,0.0,0.0,0.0,0.0,0.0,0.0,0.0,0.0,0.0,0.0,0.0,0.0,0.0,0.0,0.0,0.0,0.0,0.0,0.0,0.0,0.0,0.0,0.0,0.0,0.0,0.0,0.0,0.0,0.0,0.0,0.0,0.0,0.0,0.0,0.0,0.0,0.0,0.0,0.0,0.0,0.0,0.0,0.0,0.0,0.0,0.0,0.0,0.0,0.0,0.0,0.0,3.3692,3.4325,3.5058,3.5655,3.6158,3.6693,3.7298,3.6665,3.6382,3.6781,0.0,0.0,0.0,0.0,0.0,0.0,0.0,0.0,0.0,0.0,0.0,0.0,0.0,0.0,0.0,0.0,0.0,0.0,0.0,0.0,0.0,0.0,0.0,0.0,0.0,0.0,0.0,0.0,0.0,0.0,0.0,0.0,0.0,0.0,0.0,0.0,0.0,0.0,0.0,0.0,0.0,0.0,0.0,0.0,0.0,0.0,0.0,0.0,0.0,0.0,0.0,0.0,0.0,0.0,0.0,0.0,0.0,0.0,0.0,0.0,2.9145,2.9512,0.0,0.0,0.0,0.0,0.0,0.0,0.0,0.0,0.0,0.0,0.0,0.0,0.0,0.0,0.0,0.0,0.0,0.0,0.0,0.0,0.0,0.0,0.0,0.0,0.0,0.0,0.0,0.0,0.0,0.0,0.0,0.0,0.0,0.0,0.0,0.0,0.0,0.0,0.0,0.0,3.3692,3.4489,3.5323,3.5876,3.6488,3.7037,3.751,3.6848,3.6552,3.6781,3.5485,0.0,0.0,0.0,0.0,0.0,0.0,0.0,0.0,0.0,0.0,0.0,0.0,0.0,0.0,0.0,0.0,0.0,0.0,0.0,0.0,0.0,0.0,0.0,0.0,0.0,0.0,0.0,0.0,0.0,0.0,0.0,0.0,0.0,0.0,0.0,0.0,0.0,0.0,0.0,0.0,0.0,0.0,0.0,0.0,0.0,0.0,0.0,0.0,0.0,0.0,0.0,0.0,0.0,0.0,0.0,0.0,0.0,0.0,0.0,3.0717,3.0581,0.0,0.0,0.0,0.0,0.0,0.0,0.0,0.0,0.0,0.0,0.0,0.0,0.0,0.0,0.0,0.0,0.0,0.0,0.0,0.0,0.0,0.0,0.0,0.0,0.0,0.0,0.0,0.0,0.0,0.0,0.0,0.0,0.0,0.0,0.0,0.0,0.0,0.0,0.0,0.0,3.4632,3.5057,3.5707,3.6669,3.6999,3.7385,3.7957,3.7467,3.727,3.7552,3.6257,0.0,0.0,0.0,0.0,0.0,0.0,0.0,0.0,0.0,0.0,0.0,0.0,0.0,0.0,0.0,0.0,0.0,0.0,0.0,0.0,0.0,0.0,0.0,0.0,0.0,0.0,0.0,0.0,0.0,0.0,0.0,0.0,0.0,0.0,0.0,0.0,0.0,0.0,0.0,0.0,0.0,0.0,0.0,0.0,0.0,0.0,0.0,0.0,0.0,0.0,0.0,0.0,0.0,3.2011,3.2252,3.3145,3.3381,3.3754,3.4148,3.3086,3.2485,3.2298,3.3094,0.0,0.0,0.0,0.0,0.0,0.0,0.0,0.0,0.0,0.0,0.0,0.0,0.0,0.0,0.0,0.0,0.0,0.0,0.0,0.0,0.0,0.0,3.7883,3.8452,3.8153,3.7464,3.64,0.0,0.0,0.0,0.0,0.0,0.0,0.0,0.0,0.0,0.0,0.0,3.5772,3.579,3.6261,3.7562,3.7653,3.7892,3.8512,3.8135,3.802,3.8374,3.7212,3.6553,0.0,0.0,0.0,0.0,0.0,0.0,0.0,0.0,0.0,0.0,0.0,0.0,0.0,0.0,0.0,0.0,0.0,0.0,0.0,0.0,0.0,0.0,0.0,0.0,0.0,0.0,0.0,0.0,0.0,0.0,0.0,0.0,2.958,2.958,0.0,0.0,0.0,0.0,0.0,0.0,0.0,0.0,0.0,0.0,0.0,0.0,0.0,3.5151,3.5249,3.485,3.4166,3.3279,3.4044,3.4296,3.4135,3.5317,3.5982,3.6235,3.6576,0.0,3.4722,3.492,0.0,0.0,0.0,0.0,0.0,0.0,0.0,0.0,0.0,0.0,0.0,0.0,0.0,0.0,0.0,0.0,0.0,0.0,0.0,0.0,0.0,0.0,3.9152,3.9242,3.9212,3.9092,3.8913,3.7644,3.6493,3.6493,3.6028,3.5818,0.0,0.0,0.0,0.0,0.0,0.0,3.6282,3.6629,3.7214,3.8048,3.8618,3.8917,3.8752,3.8334,3.8145,3.8392,3.7212,3.6716,3.7255,3.6058,0.0,0.0,0.0,0.0,0.0,0.0,0.0,0.0,0.0,0.0,0.0,0.0,0.0,0.0,0.0,0.0,0.0,0.0,0.0,0.0,0.0,0.0,0.0,0.0,0.0,0.0,0.0,0.0,0.0,2.9949,3.0375,2.9821,3.0109,3.0098,0.0,0.0,0.0,0.0,0.0,0.0,0.0,0.0,0.0,3.7126,3.7353,3.7508,3.76,3.6784,3.6458,3.6608,3.6348,3.6555,3.7184,3.7765,3.8084,3.8205,3.9074,3.9098,3.8373,3.7131,3.6603,3.6573,0.0,0.0,0.0,0.0,3.7082,3.68,3.6617,3.6647,3.6717,3.6657,0.0,0.0,0.0,0.0,0.0,0.0,0.0,3.9151,3.9205,3.9853,4.0606,4.1014,4.0879,4.0755,4.1033,3.9998,3.8852,3.8247,3.7896,3.7776,3.8093,3.7494,0.0,0.0,0.0,3.7713,3.8088,3.8563,3.8953,3.9242,3.9431,3.9383,3.9003,3.8888,3.8883,3.8943,3.8093,3.7691,3.7943,3.6746,3.6178,0.0,0.0,0.0,0.0,0.0,0.0,0.0,0.0,0.0,0.0,0.0,0.0,0.0,0.0,0.0,0.0,0.0,0.0,0.0,0.0,0.0,0.0,0.0,0.0,0.0,0.0,0.0,0.0,3.0897,3.1287,3.0319,3.14,3.173,0.0,0.0,0.0,0.0,0.0,0.0,3.6081,3.761,3.8823,3.9496,3.9778,3.9914,3.988,3.8988,3.8811,3.9357,3.855,3.8761,3.9799,3.9703,3.9829,4.0263,4.0897,4.1248,4.1248,3.9239,3.8451,3.8555,3.8692,3.8569,3.8374,3.8357,3.8127,3.7741,3.7554,3.7708,3.7905,3.7593,3.7576,3.763,3.7227,0.0,0.0,0.0,0.0,4.0088,4.0715,4.1314,4.1899,4.2578,4.2483,4.2281,4.255,4.2138,4.1291,3.9913,3.9547,3.9523,3.9649,3.8841,0.0,3.9002,3.9223,3.9465,3.9848,4.026,4.044,4.0256,4.0176,3.9861,3.9233,3.9301,3.9391,3.9391,3.8931,3.8661,3.8661,3.7584,3.6913,3.6716,0.0,0.0,0.0,0.0,0.0,0.0,0.0,0.0,0.0,0.0,0.0,0.0,0.0,0.0,0.0,0.0,0.0,0.0,0.0,0.0,0.0,0.0,0.0,0.0,0.0,0.0,0.0,0.0,0.0,3.1691,3.3615,0.0,0.0,0.0,0.0,3.568,3.6633,3.7725,3.9018,3.991,4.0804,4.1704,4.2183,4.2259,4.1931,4.1882,4.1258,4.0029,4.0399,4.0674,4.0903,4.0461,4.1036,4.2424,4.1827,4.192,4.2412,4.0979,4.0764,4.1195,3.9277,3.8891,3.9316,3.8354,3.8007,3.7957,3.7741,3.8112,3.8763,3.942,3.9653,3.9711,4.0002,3.9516,0.0,0.0,4.05,4.0891,4.1925,4.2421,4.2782,4.3494,4.3615,4.3526,4.3289,4.3417,4.2913,4.0763,3.9992,3.9823,4.0284,0.0,4.0357,4.0642,4.0673,4.0773,4.1011,4.1219,4.1164,4.0734,4.0877,4.0572,3.9475,3.9373,3.9391,3.9391,3.9361,3.9361,3.9361,3.8691,3.8003,3.7375,3.6746,0.0,0.0,0.0,0.0,0.0,0.0,0.0,0.0,0.0,0.0,0.0,0.0,0.0,0.0,0.0,0.0,0.0,0.0,0.0,0.0,0.0,0.0,0.0,0.0,0.0,0.0,0.0,0.0,3.4759,3.642,0.0,3.603,3.681,3.7754,3.8689,4.0373,4.1759,4.2664,4.3683,4.4339,4.4534,4.4105,4.3837,4.3698,4.2888,4.2382,4.2164,4.1888,4.1821,4.2034,4.1861,4.2068,4.2614,4.2805,4.302,4.3205,4.2712,4.2386,4.2207,4.1769,4.1544,4.1463,4.1339,4.1072,4.0736,4.0539,4.0709,4.0992,4.097,4.066,4.0269,4.0378,4.0554,4.0734,4.0948,4.1662,4.243,4.2673,4.3157,4.3618,4.383,4.4223,4.4507,4.4427,4.478,4.485,4.3997,4.2612,4.1629,4.1681,4.1343,4.1227,4.1769,4.1839,4.187,4.1942,4.2327,4.2416,4.1841,4.1615,4.1081,4.0127,3.9757,3.9535,3.9391,3.9391,3.9391,3.9391,3.8751,3.8093,3.7417,3.6823,3.6178,0.0,0.0,0.0,0.0,0.0,0.0,0.0,0.0,0.0,0.0,0.0,0.0,0.0,0.0,0.0,0.0,0.0,0.0,0.0,0.0,0.0,0.0,0.0,0.0,0.0,3.5903,3.7318,3.7267,3.8986,3.9921,3.9237,4.0279,4.1291,4.2021,4.3654,4.4806,4.5268,4.5914,4.6244,4.6103,4.5193,4.474,4.474,4.373,4.3255,4.3307,4.3137,4.3015,4.294,4.294,4.3063,4.3279,4.3513,4.3747,4.3963,4.3963,4.3667,4.3254,4.3104,4.3002,4.2946,4.285,4.2625,4.231,4.2425,4.2536,4.2613,4.2638,4.2062,4.1488,4.1775,4.1925,4.2043,4.2597,4.3179,4.3716,4.4117,4.4497,4.4793,4.4793,4.5108,4.5423,4.5363,4.5657,4.5879,4.5726,4.4418,4.3345,4.3359,4.2631,4.2342,4.3229,4.299,4.278,4.302,4.321,4.307,4.247,4.2117,4.1505,4.0505,4.0106,3.9793,3.9421,3.9391,3.9391,3.9391,3.8973,3.8422,3.7764,3.7044,3.6378,3.5844,0.0,0.0,0.0,0.0,0.0,0.0,0.0,0.0,0.0,0.0,0.0,0.0,0.0,0.0,0.0,0.0,0.0,0.0,0.0,0.0,0.0,0.0,0.0,3.5752,3.7548,3.9043,3.9095,4.1291,4.2713,4.2444,4.4182,4.5423,4.5649,4.6265,4.6634,4.6665,4.6465,4.6365,4.6365,4.5524,4.507,4.507,4.4616,4.4041,4.3417,4.425,4.4314,4.3685,4.3685,4.4024,4.4591,4.3913,4.4006,4.4591,4.4591,4.4591,4.4468,4.3156,4.3082,4.3544,4.2695,4.2377,4.2469,4.3111,4.3339,4.3501,4.4328,4.403,4.3546,4.4371,4.3741,4.3125,4.5083,4.5022,4.471,4.6225,4.6464,4.6304,4.6304,4.6334,4.6254,4.6072,4.6042,4.5991,4.5807,4.5152,4.478,4.5226,4.4207,4.3818,4.5065,4.4147,0.0,4.4177,4.3698,4.307,4.25,4.241,4.1871,4.0546,4.0427,4.0127,3.9451,3.9391,3.9391,3.9391,3.9391,3.9098,3.8415,3.7493,3.6865,3.6554,0.0,0.0,0.0,0.0,0.0,0.0,0.0,0.0,0.0,0.0,0.0,0.0,0.0,0.0,0.0,0.0,0.0,0.0,0.0,0.0,0.0,3.8715,4.0279,3.9172,4.0947,4.2594,4.3238,4.4489,4.5362,4.5398,4.5909,4.6451,4.7004,4.7219,4.7558,4.7999,4.7845,4.7772,4.7772,4.6894,4.6518,4.6661,4.605,4.5741,4.5694,4.5937,4.5926,4.5761,4.5268,4.5145,4.5299,4.4622,4.4437,4.4591,4.4591,4.4591,4.456,4.419,4.416,4.4314,4.4072,4.3961,4.3992,4.4177,4.4247,4.4285,4.4524,4.4778,4.5027,4.5245,4.5403,4.5618,4.6172,4.6133,4.6083,4.6511,4.6564,4.6524,4.6524,4.6681,4.6823,4.6915,4.6938,4.6984,4.7039,4.6392,4.5726,4.5385,4.5005,4.4706,4.4586,4.4267,4.3908,4.3609,4.3409,4.325,4.307,4.2913,4.2357,4.1212,4.0944,4.042,3.9469,3.9391,3.9391,3.9391,3.9535,3.9312,3.8636,3.7606,3.7419,0.0,0.0,0.0,0.0,0.0,0.0,0.0,0.0,0.0,0.0,0.0,0.0,0.0,0.0,0.0,0.0,0.0,0.0,0.0,0.0,0.0,0.0,4.1638,4.3592,4.3588,4.4439,4.5404,4.6286,4.7065,4.7763,4.8276,4.8327,4.8481,4.8881,4.8912,4.8943,4.9066,4.8825,4.8619,4.8448,4.7567,4.7231,4.7436,4.6761,4.6484,4.6603,4.688,4.688,4.6603,4.648,4.6265,4.5988,4.5607,4.5268,4.5022,4.5022,4.5022,4.4991,0.0,0.0,0.0,0.0,4.4591,4.4591,4.4591,4.4776,4.5022,4.5022,4.5484,4.6018,4.6018,4.6296,4.6665,4.6942,4.7034,4.7096,4.7373,4.7434,4.7414,4.7313,4.7446,4.7534,4.7596,4.7501,4.7482,4.7581,4.7109,0.0,4.6202,4.5663,4.5364,4.5544,4.5095,4.4676,4.4566,4.4087,4.3728,4.3728,4.3347,4.2691,4.1625,4.1435,0.0,0.0,0.0,3.9874,3.9874,4.0148,0.0,0.0,0.0,3.9228,3.9753,4.0163,0.0,0.0,3.9606,3.9653,0.0,0.0,0.0,0.0,0.0,0.0,0.0,0.0,0.0,0.0,0.0,0.0,0.0,0.0,0.0,0.0,4.4521,4.6741,4.8101,4.7857,4.7768,4.8363,4.9026,4.9776,5.0614,5.0697,5.0667,5.0574,5.0614,5.0337,4.9589,4.9408,0.0,0.0,0.0,4.7528,4.7711,4.7127,4.6819,4.6819,4.7434,4.7404,4.685,4.7373,4.7281,4.6696,4.6634,4.6265,4.573,4.573,4.573,4.5669,4.5053,4.4837,4.4806,4.4745,4.4714,4.4714,4.4714,0.0,0.0,4.5719,4.6161,4.6716,4.6766,4.6777,4.6942,4.7558,4.7711,4.7845,4.8409,4.8593,4.85,4.8322,4.8321,4.8267,4.8107,4.7933,4.777,4.768,4.7529,4.7399,4.7309,4.6322,4.5903,4.704,4.6172,4.5574,4.6031,4.5044,4.4287,4.4247,4.3748,0.0,4.1965,4.1959,4.1553,4.0432,4.047,4.056,4.0612,4.0983,4.105,4.069,4.1234,4.1499,4.1418,4.1833,4.221,4.251,4.173,4.1267,0.0,0.0,0.0,0.0,0.0,0.0,0.0,0.0,0.0,0.0,0.0,0.0,0.0,0.0,0.0,4.3782,4.6191,4.8414,4.9963,5.0537,5.0371,4.924,4.988,5.05,5.0667,5.0697,5.0482,4.9928,5.0187,4.992,4.886,4.9141,4.9068,4.8614,4.844,4.8357,4.8399,4.8296,4.8214,4.8214,4.8337,0.0,4.8183,4.7804,4.7527,4.7373,4.6819,4.6511,4.6419,4.6419,4.6419,4.6388,4.6265,4.6203,4.6142,4.5607,4.5422,4.5422,4.5422,4.5484,4.5719,4.6399,4.6989,4.7444,4.7656,4.7977,0.0,4.8368,4.8399,4.8409,4.8345,4.8364,4.8322,4.8112,4.8325,4.8546,4.8503,4.8749,4.8805,4.8273,4.8131,4.7938,4.7399,4.71,4.683,4.654,4.6271,4.5762,4.4805,4.4446,4.4168,4.3837,4.399,4.3807,4.3053,4.2836,4.2304,4.1384,4.1062,4.1009,4.1277,4.1294,4.146,4.1862,4.1733,4.2038,4.2808,4.3628,4.4437,4.5154,4.4144,4.3427,0.0,0.0,0.0,0.0,0.0,0.0,0.0,0.0,0.0,0.0,0.0,3.8524,4.0052,0.0,4.4584,4.6768,4.8767,5.026,5.1076,5.2082,5.2161,5.0668,5.1217,5.1713,5.1713,5.1713,5.1559,5.1221,5.1388,5.1089,5.0183,5.0352,5.0076,4.9189,4.9158,4.8974,4.8583,4.8583,4.8583,4.8583,4.8583,4.8583,4.8583,4.8245,4.8112,4.806,4.7742,4.7404,4.7096,4.7096,4.7096,4.7127,4.7465,4.7188,4.6542,4.6203,4.608,4.608,4.608,4.6326,4.6654,4.7123,4.7639,4.8132,4.8265,4.844,4.8583,4.8583,4.8583,4.8542,4.8364,4.8301,4.8218,4.788,4.8201,4.8575,4.8465,4.8895,4.9187,4.8858,4.8528,4.8199,4.7848,4.7519,4.7189,4.6839,4.6779,4.6561,4.5903,4.5721,4.5424,4.486,4.4891,4.4569,4.3667,4.3304,4.3095,4.2977,4.2823,4.2903,4.3297,4.3456,4.3712,4.4074,4.4085,4.4466,4.5187,4.5509,4.5925,4.6427,4.6196,4.5626,0.0,0.0,0.0,0.0,0.0,0.0,0.0,3.6858,3.7703,3.9385,4.0266,4.1466,4.3787,4.534,4.7037,4.9497,5.1005,5.1959,5.2082,5.3137,5.3476,5.2421,5.2737,5.2983,5.2729,5.2821,5.2768,5.2544,5.2592,5.2292,5.1559,5.1577,5.1085,4.9928,4.9866,4.9558,4.882,4.8799,4.8758,4.8583,4.8583,4.8583,4.8583,4.8583,4.8583,4.8583,4.8583,4.8276,4.7783,4.7783,4.7783,4.7865,4.8368,4.7958,4.6973,4.685,4.6788,4.6788,4.6788,4.7157,4.7619,4.7814,4.8194,4.8604,4.8676,4.8656,4.8583,4.8583,4.8563,4.851,4.8301,4.8309,4.8253,4.7856,4.835,4.8878,4.87,4.9217,4.9636,4.9516,4.9045,4.8596,4.8327,4.7981,4.7652,4.7339,4.7309,4.7271,4.7194,4.7024,4.6689,4.6093,4.583,4.5225,4.4159,4.3858,4.3867,4.4219,4.444,4.4722,4.5065,4.5498,4.5828,4.6011,4.6285,4.6663,4.7072,4.7126,4.7202,4.7344,4.8093,4.7719,3.4571,3.5171,3.6556,3.8169,3.8543,3.9514,0.0,4.3223,4.2993,4.5107,4.6121,4.6748,4.7056,4.8276,4.9528,5.0451,5.1713,5.2799,5.3383,5.4122,5.4553,5.4399,5.4429,5.3999,5.2821,5.3229,5.3076,5.1898,5.2127,5.189,5.0882,5.1146,5.1094,5.0605,5.0574,5.0266,4.9558,4.9579,4.9251,4.8583,4.8583,4.8583,4.8583,4.8583,4.8583,4.8583,4.8583,4.8553,4.8491,4.8491,4.8491,4.8491,4.8553,4.8491,4.8276,4.7711,4.7496,4.7496,4.7496,4.7558,4.7732,4.8584,4.8718,4.8656,4.8893,4.878,4.8583,4.8583,4.8459,4.8301,4.8091,4.8313,4.8498,4.8287,4.9127,5.0002,4.9979,5.0518,5.0817,5.0219,5.0039,4.962,4.8476,4.8863,4.887,4.751,4.7309,4.7134,4.6716,4.665,4.6627,4.6525,4.6125,4.5528,4.4669,4.476,4.46,4.4081,4.4473,4.4853,4.5017,4.5339,4.5672,4.5983,4.6198,4.6409,4.6589,4.8044,4.8655,4.8534,4.9802,4.9441,3.8075,3.8509,3.9184,4.0515,4.1482,4.257,4.4292,4.4664,4.5296,4.7836,4.8934,4.9774,5.0922,5.1652,5.2267,5.2922,5.3506,5.3922,5.4029,5.4618,5.4772,5.3982,5.4588,5.4727,5.3945,5.4122,5.3876,5.2922,5.3016,5.2739,5.1906,5.2002,5.1848,5.1313,5.1282,5.0759,4.9703,4.9703,4.9312,4.8583,4.8583,4.882,4.9251,4.9251,4.9251,4.922,4.8789,4.8583,4.8583,4.8583,4.8583,4.8583,4.8583,4.8583,4.8553,4.8276,4.8183,4.8183,4.8183,4.8183,4.8235,4.8646,4.8697,4.8604,4.8738,4.8697,4.8583,4.8583,4.8469,4.8351,4.8514,4.8309,4.814,4.8722,4.9307,4.9763,5.0129,5.0727,5.0996,5.0338,5.0196,4.9965,4.9194,4.9365,4.9424,4.8925,4.8857,4.8702,4.8219,4.8412,4.843,4.7989,4.7425,4.6976,4.6747,4.6825,4.6879,4.6898,4.7231,4.7509,4.7782,4.7916,4.8249,4.8707,4.8707,4.882,4.9074,4.9568,4.9707,4.9543,4.9974,4.9969,4.0339,4.0955,4.156,4.296,4.4272,4.5359,4.6027,4.6585,4.7665,5.0265,5.1166,5.2021,5.366,5.3968,5.4122,5.4614,5.479,5.4788,5.4592,5.4949,5.4785,5.3633,5.4175,5.466,5.462,5.466,5.4491,5.3999,5.3968,5.3753,5.326,5.3076,5.2737,5.2267,5.2082,5.1436,5.0266,5.0072,4.9712,4.9189,4.9004,4.9281,4.998,4.998,4.9887,4.9672,4.9127,4.8912,4.8881,4.8676,4.8583,4.8583,4.8583,4.8583,4.8583,4.8583,4.8583,4.8583,4.8583,4.8583,4.8583,4.8583,4.8583,4.8583,4.8583,4.8542,4.8521,4.8563,4.8355,4.8213,4.8623,4.8244,4.8014,4.8842,4.9179,4.9486,5.0069,5.0578,5.0847,5.0548,5.0534,5.0439,4.9982,5.0147,5.0364,5.0382,5.0593,5.0476,4.9677,4.988,4.9822,4.9084,4.8553,4.825,4.8198,4.8278,4.8519,4.8903,4.9138,4.9319,4.9584,4.9584,4.9828,5.0375,5.0256,5.0325,5.0693,5.0642,5.0538,5.0331,5.0357,5.0594,4.003,4.1368,4.2927,4.5666,4.6798,4.7872,5.0481,5.0701,5.0965,5.3063,5.3556,5.3814,5.4553,5.4676,5.4676,5.4706,5.504,5.5272,5.5272,5.5116,5.4758,5.406,5.3445,5.3411,5.4317,5.4589,5.4706,5.4676,5.4676,5.4676,5.4645,5.4029,5.366,5.3629,5.3014,5.2359,5.1652,5.1005,5.0667,5.0636,4.998,5.002,5.0667,5.0667,5.0297,4.9703,4.9672,4.9672,4.9589,4.8881,4.8583,4.8583,4.8583,4.8583,4.8583,4.8583,4.8583,4.8583,4.8583,4.8583,4.8583,4.8583,4.8583,4.8583,4.8583,4.8459,4.8364,4.8542,4.8133,4.7666,4.7974,4.8158,4.8289,4.8319,4.8828,4.9486,5.0069,5.0196,5.0428,5.1056,5.1356,5.1331,5.0668,5.1501,5.2009,5.1359,5.2027,5.2033,5.0463,5.0275,5.0039,4.9353,4.9221,4.891,4.8248,4.8569,4.879,4.879,4.8921,4.9012,4.903,4.903,4.9227,4.9634,4.9634,4.9792,5.0137,5.0815,5.1091,5.0897,5.1589,5.1751,4.2243,4.4137,4.581,4.6881,4.8031,4.9227,5.0476,5.0703,5.1339,5.3824,5.3295,5.2706,5.3814,5.366,5.3461,5.3737,5.4623,5.5365,5.548,5.5448,5.4975,5.3863,5.3555,5.3479,5.3659,5.4173,5.475,5.5322,5.5376,5.5168,5.4737,5.4491,5.4153,5.3722,5.3476,5.2829,5.1713,5.1467,5.1128,5.0697,5.0913,5.1159,5.1374,5.1374,5.1251,5.1005,5.0543,5.0359,5.0297,4.962,4.9312,4.9312,4.9312,4.9035,4.8645,4.9158,4.9312,4.9312,4.9312,4.9312,4.9404,4.9866,4.9989,4.9989,4.9989,4.984,4.9546,4.9151,4.8697,4.8287,4.8373,4.8028,4.7967,4.9232,4.9434,4.9576,5.0637,5.0877,5.0833,5.0809,5.1225,5.1476,5.1128,5.1652,5.2063,5.1978,5.21,5.2087,5.1732,5.1422,5.1068,5.0681,5.0616,5.0427,5.0044,5.0113,5.0244,5.0394,5.0417,5.0455,5.0455,5.0584,5.1069,5.1897,5.1911,5.1966,5.2077,5.2196,5.1878,5.1108,5.1336,5.1652,4.4664,4.6306,4.7602,4.841,4.9174,4.9935,5.0742,5.0992,5.1621,5.3568,5.279,5.1959,5.2829,5.2385,5.2027,5.252,5.3153,5.3938,5.4903,5.475,5.4309,5.3682,5.3476,5.3425,5.3549,5.4086,5.4772,5.5653,5.5954,5.5899,5.5468,5.5222,5.4737,5.4091,5.406,5.3414,5.2082,5.2082,5.1713,5.1067,5.1744,5.1929,5.1713,5.1959,5.1929,5.1682,5.1251,5.1067,5.1005,5.0328,5.0051,5.002,4.9795,4.9558,4.9374,4.9589,4.9857,5.0011,4.9466,4.962,5.0103,5.0288,5.0482,5.0676,5.058,5.0385,5.0096,4.9639,4.9169,4.881,4.8635,4.8323,4.8267,4.9262,4.9404,4.9599,5.0746,5.0917,5.0857,5.0923,5.1324,5.1567,5.1432,5.1805,5.2177,5.2397,5.2418,5.2448,5.2632,5.2374,5.2103,5.1948,5.1905,5.1825,5.1682,5.1727,5.1791,5.1944,5.1944,5.1982,5.2059,5.2248,5.267,5.3358,5.3391,5.3353,5.3297,5.3071,5.2614,5.1944,5.1944,5.2171,4.7029,4.781,4.838,5.0121,5.0216,5.0173,5.132,5.1601,5.1792,5.2491,5.1999,5.1414,5.1476,5.08,5.0463,5.1153,5.0963,5.1544,5.3806,5.3337,5.2982,5.3646,5.3401,5.3415,5.4084,5.4389,5.4894,5.5745,5.6416,5.681,5.681,5.6139,5.5438,5.4768,5.4737,5.406,5.2737,5.2729,5.2421,5.1805,5.2421,5.239,5.1775,5.2421,5.2359,5.1744,5.1744,5.1744,5.1713,5.1036,5.0759,5.0697,5.0072,5.0174,5.0636,5.002,5.0205,5.0543,4.9189,4.962,5.0636,5.0072,5.0266,5.0746,5.0476,5.0266,5.0067,4.9984,4.9643,4.9232,4.8771,4.8984,4.9157,4.8558,4.8887,4.9584,5.0449,5.0409,5.0527,5.1405,5.1618,5.1618,5.1618,5.201,5.2374,5.2631,5.2908,5.3109,5.3131,5.3097,5.3049,5.3039,5.3044,5.3041,5.3008,5.3186,5.3317,5.3317,5.3285,5.3383,5.3577,5.3809,5.3924,5.3937,5.3937,5.3842,5.3662,5.3448,5.335,5.3317,5.3317,5.3317,4.8098,4.9226,4.9983,5.0013,5.042,5.0933,5.1299,5.0896,5.0676,5.1487,4.9518,4.7824,4.8345,4.8252,4.8694,5.0479,5.1943,5.3555,5.562,5.5299,5.4986,5.5334,5.5286,5.5402,5.5755,5.6311,5.6825,5.7223,5.697,5.681,5.681,5.6601,5.62,5.5468,5.4952,5.4306,5.3445,5.2953,5.286,5.3199,5.286,5.2614,5.2452,5.2614,5.2614,5.2452,5.2452,5.2452,5.239,5.1713,5.1436,5.1436,5.1251,5.0974,5.0728,5.1067,5.1313,5.1313,5.0451,5.0728,5.1498,5.1836,5.2052,5.2161,5.1854,5.1659,5.1319,5.0623,5.02,4.9853,4.9284,4.9202,4.9366,4.965,4.986,5.0182,5.088,5.0983,5.1066,5.1496,5.1872,5.2056,5.1926,5.2101,5.2261,5.2177,5.2549,5.302,5.3549,5.373,5.3724,5.3551,5.3655,5.3608,5.3271,5.3245,5.3317,5.3317,5.3441,5.348,5.3363,5.3699,5.4076,5.4476,5.4509,5.4489,5.443,5.4213,5.3835,5.3317,5.3317,5.3576,4.9856,5.0599,5.1017,5.0899,5.0973,5.1054,5.0803,5.0139,4.9478,4.9176,4.7292,4.5827,4.6067,4.6366,4.7285,4.9505,5.0893,5.2676,5.5514,5.5569,5.5668,5.6517,5.6976,5.7259,5.7283,5.772,5.8084,5.8208,5.7617,5.7217,5.7217,5.6939,5.6447,5.5715,5.5345,5.4799,5.4153,5.3476,5.3476,5.4122,5.3168,5.2829,5.3137,5.2829,5.2676,5.2676,5.2676,5.2676,5.2676,5.2276,5.2144,5.2113,5.1805,5.1652,5.159,5.1682,5.1898,5.2082,5.1713,5.1836,5.2144,5.2214,5.246,5.2631,5.2291,5.2086,5.1842,5.1081,5.0753,5.0488,4.9853,4.9912,5.0152,5.0189,5.0405,5.075,5.1279,5.1299,5.1223,5.1416,5.1734,5.1964,5.1834,5.2079,5.2306,5.2291,5.2608,5.3064,5.3562,5.3909,5.4073,5.4018,5.4297,5.4402,5.4236,5.4224,5.4224,5.4224,5.4343,5.4403,5.4383,5.4698,5.4973,5.52,5.5279,5.5207,5.5007,5.4867,5.4632,5.4224,5.4224,5.445,5.1643,5.171,5.1714,5.2163,5.1681,5.0894,5.0136,4.9265,4.8137,4.6356,4.523,4.4541,4.4408,4.4917,4.6188,4.8762,4.9403,5.0959,5.491,5.5317,5.581,5.7473,5.8372,5.8846,5.8736,5.8913,5.9064,5.9064,5.8448,5.8017,5.7925,5.7254,5.6491,5.5667,5.5636,5.536,5.4829,5.4183,5.4183,5.4829,5.3568,5.326,5.3814,5.3137,5.2829,5.2829,5.2737,5.2676,5.2676,5.2676,5.2676,5.2637,5.2082,5.2206,5.2637,5.2052,5.2206,5.2676,5.2676,5.2676,5.2583,5.2021,5.2214,5.2563,5.2139,5.1979,5.1834,5.1346,5.1206,5.1056,5.0465,5.0757,5.1056,5.0465,5.0787,5.1276,5.1479,5.1339,5.1229,5.1253,5.1486,5.1672,5.1672,5.2033,5.2419,5.2608,5.2886,5.31,5.3312,5.3813,5.42,5.4391,5.4832,5.5216,5.5389,5.5389,5.5389,5.5389,5.543,5.5564,5.5726,5.5947,5.5966,5.5746,5.5927,5.5806,5.5348,5.5348,5.5348,5.5348,5.5348,5.5369,5.2062,5.2278,5.2258,5.2704,5.2138,5.1189,4.9951,4.817,4.6292,4.4677,4.3235,4.2482,4.3153,4.3639,4.5462,5.0056,5.0857,5.2492,5.7239,5.6984,5.7006,5.8853,5.92,5.9584,6.0316,6.0429,6.0455,6.0455,5.9809,5.9218,5.8664,5.7788,5.669,5.5405,5.5374,5.5408,5.553,5.486,5.486,5.553,5.4737,5.4429,5.4491,5.3845,5.3537,5.3506,5.2922,5.2676,5.2676,5.2676,5.2676,5.2676,5.2553,5.2583,5.2676,5.2553,5.2583,5.2676,5.2676,5.2676,5.2698,5.2553,5.2471,5.2306,5.2063,5.1834,5.1625,5.1299,5.1206,5.1176,5.1056,5.1116,5.1176,5.1056,5.1116,5.1229,5.1276,5.1253,5.1276,5.1479,5.1741,5.1933,5.1933,5.2314,5.2563,5.2397,5.2608,5.2855,5.3131,5.3835,5.437,5.4412,5.4978,5.5348,5.5389,5.5389,5.5389,5.5389,5.5604,5.5645,5.547,5.5706,5.5726,5.545,5.5491,5.5389,5.5155,5.5155,5.5155,5.5155,5.5155,5.5258,5.3046,5.3009,5.2778,5.2824,5.1947,5.05,4.8433,4.6488,4.4555,4.2617,4.1577,4.1238,4.1837,4.276,4.4618,4.8241,4.9292,5.1293,5.5832,5.6244,5.6844,5.8901,5.9596,6.0088,6.0555,6.0586,6.0638,6.0794,6.0357,5.9742,5.8849,5.7709,5.6543,5.5333,5.5669,5.5814,5.5684,5.5092,5.5299,5.6262,5.505,5.4743,5.5222,5.4522,5.4214,5.4214,5.3876,5.3537,5.3229,5.3229,5.3014,5.2676,5.2676,5.2676,5.2676,5.2676,5.2676,5.2676,5.2676,5.2676,5.2676,5.2541,5.2619,5.2765,5.2425,5.2238,5.2068,5.1809,5.1475,5.1206,5.1206,5.1206,5.1206,5.1206,5.1206,5.1206,5.1206,5.1206,5.1253,5.1393,5.1718,5.2002,5.2002,5.2413,5.2653,5.2541,5.2608,5.2774,5.2886,5.3552,5.4135,5.4391,5.4707,5.5019,5.5369,5.5389,5.5389,5.5389,5.5544,5.5544,5.5409,5.5544,5.5483,5.5258,5.5258,5.5155,5.4927,5.4927,5.4927,5.4927,5.4927,5.4989,5.3644,5.3498,5.3218,5.2668,5.1425,4.9578,4.6906,4.5024,4.326,4.1148,4.0544,4.0598,4.1249,4.2303,4.3908,4.6353,4.7507,4.9644,5.4097,5.5175,5.639,5.8767,5.9727,6.0246,6.0298,6.0298,6.0377,6.0586,6.0307,5.973,5.8893,5.7641,5.6537,5.5591,5.6012,5.6073,5.5787,5.5402,5.5725,5.6713,5.5439,5.5217,5.5923,5.5253,5.4922,5.4891,5.4768,5.4337,5.3691,5.3691,5.3291,5.2706,5.286,5.2829,5.2737,5.3014,5.3045,5.2922,5.3076,5.3084,5.2993,5.2765,5.2917,5.3137,5.2745,5.267,5.2635,5.2294,5.1828,5.1355,5.1236,5.1206,5.1206,5.1206,5.1206,5.1206,5.1206,5.1206,5.1229,5.1276,5.1672,5.2025,5.2071,5.2405,5.2676,5.2676,5.2676,5.2698,5.2796,5.3255,5.3748,5.4221,5.4348,5.4644,5.5205,5.5205,5.5205,5.5278,5.5246,5.5246,5.5246,5.5205,5.5102,5.4968,5.4968,5.4843,5.4666,5.4666,5.4751,5.4952,5.4889,5.4995,5.3077,5.3316,5.3448,5.213,5.0675,4.89,4.6189,4.4456,4.287,4.1076,4.0544,4.0812,4.222,4.2466,4.3549,4.6702,4.7309,4.9194,5.4396,5.52,5.629,5.9111,5.9553,5.969,5.9986,6.0043,6.0069,6.0065,5.9435,5.901,5.8966,5.8066,5.7186,5.6496,5.5953,5.5775,5.5986,5.6183,5.6335,5.6445,5.6541,5.6631,5.6662,5.5954,5.5592,5.5561,5.4952,5.4337,5.3691,5.3691,5.3291,5.2737,5.3353,5.3229,5.2829,5.406,5.4122,5.3691,5.4306,5.4351,5.414,5.3912,5.3476,5.295,5.2698,5.2852,5.3013,5.2366,5.2157,5.1977,5.1355,5.1206,5.1206,5.1206,5.1206,5.1206,5.1206,5.1206,5.1276,5.1533,5.1787,5.204,5.2238,5.2518,5.2676,5.2676,5.2676,5.2796,5.3042,5.3131,5.3299,5.3726,5.4157,5.4518,5.4834,5.4623,5.4581,5.4854,5.4854,5.4854,5.4854,5.4602,5.4497,5.4475,5.4475,5.437,5.4167,5.4167,5.4591,5.5419,5.5182,5.5661,5.2825,5.2943,5.2646,5.2099,5.0416,4.8399,4.632,4.4448,4.2753,4.1419,4.107,4.1183,4.1749,4.185,4.2361,4.4068,4.4975,4.68,5.0511,5.1708,5.3498,5.7071,5.7647,5.8286,5.9572,5.972,5.972,5.972,5.9421,5.927,5.9297,5.8321,5.7418,5.6631,5.633,5.641,5.686,5.6636,5.6785,5.7254,5.7205,5.6966,5.6567,5.6405,5.6258,5.6138,5.6005,5.5466,5.468,5.468,5.4187,5.3467,5.3874,5.3913,5.3729,5.425,5.4312,5.4074,5.4185,5.4159,5.404,5.3832,5.3851,5.3899,5.3633,5.3667,5.3743,5.3473,5.3114,5.2636,5.1977,5.1475,5.1206,5.1206,5.1206,5.1206,5.1206,5.1206,5.1299,5.1526,5.181,5.2063,5.2261,5.2541,5.2676,5.2676,5.2676,5.2721,5.2863,5.302,5.3175,5.3321,5.3705,5.4135,5.455,5.4454,5.4497,5.4792,5.4655,5.4571,5.4571,5.4868,5.4793,5.4253,5.4793,5.4886,5.4517,5.4648,5.5039,5.5689,5.5569,5.5771,5.1635,5.187,5.1735,5.1622,4.9812,4.7716,4.6395,4.4537,4.2832,4.1874,4.1703,4.1762,4.1923,4.1953,4.2102,4.2601,4.3599,4.5244,4.7908,4.9254,5.1289,5.4875,5.5471,5.6353,5.8343,5.9065,5.9369,5.9369,5.9369,5.9369,5.9369,5.8682,5.7803,5.6775,5.6564,5.6703,5.7181,5.688,5.7006,5.758,5.7456,5.7014,5.6299,5.6494,5.647,5.6299,5.6494,5.6047,5.5182,5.5212,5.4666,5.3945,5.4318,5.4358,5.4236,5.4633,5.4663,5.4487,5.4509,5.4449,5.4383,5.4243,5.4477,5.4739,5.4541,5.4491,5.4461,5.4251,5.3713,5.3109,5.2606,5.2007,5.1475,5.1475,5.1325,5.1206,5.1206,5.1206,5.1299,5.1649,5.1857,5.2086,5.2352,5.2563,5.279,5.2953,5.2983,5.3076,5.326,5.3518,5.3591,5.3307,5.3797,5.41,5.4103,5.4239,5.4409,5.4677,5.4685,5.4693,5.4693,5.5134,5.5055,5.443,5.5055,5.5219,5.4885,5.5041,5.5431,5.5999,5.5931,5.6025,4.9232,4.9913,5.0825,5.0505,4.8598,4.6686,4.6187,4.4666,4.313,4.2511,4.2381,4.2571,4.316,4.326,4.326,4.329,4.3878,4.5244,4.7908,4.8887,5.0265,5.2929,5.3228,5.4037,5.6042,5.7962,5.9099,5.9099,5.9099,5.9099,5.9099,5.9099,5.8471,5.7124,5.6521,5.632,5.6601,5.688,5.7006,5.7006,5.7281,5.6915,5.6003,5.6003,5.6003,5.6003,5.6003,5.5609,5.4916,5.5001,5.4552,5.3982,5.4619,5.4497,5.4073,5.5487,5.5523,5.5007,5.573,5.58,5.5576,5.5576,5.5406,5.5179,5.5179,5.5179,5.5029,5.4401,5.3713,5.3198,5.3198,5.2665,5.2187,5.2187,5.1654,5.1206,5.1206,5.1206,5.1369,5.191,5.2002,5.2162,5.2639,5.2676,5.2922,5.3599,5.3691,5.3937,5.4614,5.4908,5.4707,5.3775,5.4537,5.4634,5.3502,5.3832,5.4191,5.4407,5.5031,5.5382,5.5382,5.5208,5.5101,5.5101,5.5101,5.5101,5.5101,5.5101,5.5581,5.6497,5.6233,5.6598,4.5637,4.6033,4.6301,4.7134,4.6082,4.5006,4.5393,4.4348,4.325,4.304,4.301,4.307,4.326,4.319,4.3299,4.3888,4.4434,4.5287,4.6728,4.8633,5.075,5.2959,5.5568,5.7483,5.8112,5.874,5.9099,5.9099,5.9099,5.9099,5.9099,5.9099,5.871,5.7786,5.7603,5.7644,5.7962,5.8066,5.7954,5.7674,5.7775,5.7097,5.5731,5.5929,5.5904,5.5731,5.5929,5.5783,5.5373,5.5373,5.5154,5.4854,5.5209,5.5253,5.5132,5.5579,5.5579,5.5379,5.5446,5.5406,5.533,5.533,5.5255,5.5179,5.5179,5.5179,5.5149,5.494,5.4401,5.3892,5.3892,5.3054,5.2187,5.2187,5.1708,5.1206,5.1206,5.1316,5.1579,5.1933,5.2109,5.2314,5.2631,5.2676,5.2922,5.3599,5.3691,5.3937,5.4614,5.4776,5.4707,5.4399,5.4653,5.4568,5.392,5.4433,5.4665,5.4416,5.4903,5.4998,5.4533,5.5333,5.5566,5.5132,5.5728,5.5977,5.579,5.5977,5.6365,5.6924,5.6822,5.6874,4.2822,4.359,4.3914,4.5425,4.4746,4.3927,4.4878,4.4136,4.329,4.329,4.329,4.329,4.329,4.307,4.3109,4.3808,4.4251,4.5,4.6467,4.8514,5.069,5.2929,5.6017,5.7992,5.7992,5.868,5.9099,5.9099,5.9099,5.9099,5.9099,5.9099,5.8919,5.8474,5.8234,5.8274,5.8595,5.8595,5.8338,5.7854,5.7854,5.703,5.5456,5.5631,5.5606,5.5456,5.5631,5.5606,0.0,5.5431,5.5355,5.5204,5.5381,5.5431,5.5431,5.5431,5.5431,5.5431,5.5255,5.5179,5.5179,5.5179,5.5179,5.5179,5.5179,5.5179,5.5179,5.5179,5.491,5.4581,5.4581,5.3773,5.2965,5.2965,5.2456,5.1947,5.1947,5.1957,5.2034,5.232,5.233,5.2466,5.2991,5.3076,5.3383,5.433,5.4429,5.473,5.5407,5.5499,5.5407,5.5106,5.5345,5.5293,5.4777,5.5086,5.5217,5.4891,5.5426,5.5549,5.514,5.5913,5.616,5.5735,5.6333,5.655,5.6353,5.655,5.6736,5.6995,5.6995,5.6899,0.0,4.207,4.2994,4.4681,4.407,4.3302,4.4434,4.3964,0.0,4.323,4.323,4.321,4.319,4.289,4.2819,4.325,4.3593,4.4608,4.6975,4.8678,5.0624,5.3258,5.5234,5.6402,5.6342,5.7992,5.9099,5.9099,5.9099,5.9099,5.9099,5.9099,5.9099,5.9099,5.8504,5.8308,5.8629,5.8629,5.8298,5.7631,5.757,5.6779,5.5329,5.5269,5.5269,5.5269,5.5269,5.5239,5.5179,5.5179,5.5179,5.5179,5.5179,5.5179,5.5179,5.5179,5.5179,5.5179,5.5179,5.5179,5.5179,5.5179,5.5179,5.5179,5.5179,5.5179,5.5179,5.5179,5.5179,5.5179,5.5179,5.47,5.4221,5.4221,5.3683,5.3198,5.3198,5.2942,5.2782,5.2957,5.2665,5.2672,5.3553,5.3691,5.4153,5.5499,5.5684,5.5985,5.6717,5.681,5.6539,5.5862,5.6385,5.6508,5.5862,5.5776,5.5769,5.5684,5.6385,5.6779,5.6693,5.6755,5.681,5.681,5.681,5.6816,5.6847,5.6816,5.681,5.681,5.681,5.681,3.7019,0.0,3.874,4.0133,4.0833,4.1451,0.0,4.289,4.315,4.2618,4.2537,4.2435,4.2108,4.2108,4.2488,4.3439,4.4214,4.531,4.7057,5.0631,5.4012,5.6645,5.7812,5.8231,5.7723,5.853,5.9099,5.9099,5.9099,5.9099,5.9099,5.9099,5.9099,5.9099,5.8949,5.8887,5.897,5.8997,5.8667,5.7981,5.7468,5.7023,5.6645,5.6192,5.5953,5.5953,5.5953,5.5683,5.5179,5.5179,5.5179,5.5179,5.5179,5.5179,5.5179,5.5179,5.5179,5.5179,5.5179,5.5179,5.5179,5.5179,5.5179,5.5179,5.5179,5.5179,5.5179,5.5179,5.5179,5.5179,5.5179,5.47,5.4221,5.4221,5.3683,5.3198,5.3198,5.3447,5.354,5.3095,5.32,5.3438,5.366,5.3691,5.4153,5.5499,5.5684,5.5985,5.6717,5.681,5.6724,5.657,5.6717,5.6724,5.6539,5.6539,5.6293,5.5745,5.6385,5.6539,5.5985,5.6508,5.681,5.681,5.681,5.7032,5.7555,5.7032,5.681,5.681,5.681,5.681,3.537,3.6181,3.722,3.8114,3.924,4.0367,4.1289,4.1955,4.2415,4.2456,4.2374,4.2272,4.2178,4.2514,4.3034,4.3849,4.4946,4.6547,4.8862,5.1709,5.4499,5.7021,5.7829,5.8291,5.8504,5.889,5.9099,5.9099,5.9099,5.9099,5.9099,5.9099,5.9099,5.9099,5.9099,5.9099,5.9099,5.9099,5.877,5.8085,5.7726,5.7244,5.6701,5.6641,5.6462,5.6192,5.6192,5.5983,5.5653,5.5354,5.5179,5.5179,5.5179,5.5179,5.5179,5.5179,5.5179,5.5179,5.5179,5.5179,5.5179,5.5179,5.5179,5.5179,5.5179,5.5179,5.5179,5.5179,5.5179,5.5179,5.5179,5.491,5.467,5.467,5.4371,5.4127,5.4127,5.4181,5.4195,5.3921,5.3948,5.4129,5.4553,5.4637,5.4976,5.6046,5.6105,5.621,5.6724,5.6689,5.6664,5.6785,5.681,5.6761,5.6616,5.6737,5.6631,5.6231,5.657,5.6601,5.6231,5.657,5.681,5.681,5.681,5.6994,5.734,5.6994,5.681,5.681,5.6664,5.6616,3.489,3.6096,3.7271,3.7524,3.8558,3.9824,4.0852,4.1167,4.1467,4.2374,4.2333,4.226,4.2623,4.3216,4.3844,4.4402,4.6057,4.8335,5.1459,5.2738,5.4061,5.5945,5.6699,5.7464,5.8505,5.8711,5.8798,5.8828,5.8855,5.8828,5.8691,5.8746,5.88,5.8882,5.8936,5.9018,5.9099,5.9099,5.877,5.8085,5.8085,5.7483,5.6342,5.6881,5.6821,5.6342,5.6342,5.6282,5.6162,5.5593,5.5269,5.5179,5.5179,5.5179,5.5179,5.5179,5.5179,5.5179,5.5179,5.5179,5.5179,5.5179,5.5179,5.5179,5.5179,5.5179,5.5179,5.5179,5.5179,5.5179,5.5179,5.5179,5.5179,5.5179,5.5179,5.5179,5.5179,5.4985,5.4781,5.4825,5.4605,5.463,5.5449,5.5613,5.5882,5.6566,5.6519,5.647,5.6664,5.6494,5.6421,5.6664,5.6689,5.6592,5.6372,5.6543,5.6689,5.6737,5.6785,5.681,5.681,5.6902,5.6939,5.6939,5.6915,5.6891,5.6891,5.675,5.6689,5.6737,5.6519,5.6421,3.5363,3.6893,3.8055,3.7144,3.8199,3.9535,3.9957,4.0456,4.106,4.1711,4.1653,4.1713,4.2562,4.3073,4.3797,4.5191,4.808,5.1122,5.3909,5.5145,5.5616,5.5194,5.6132,5.6698,5.6323,5.7009,5.7526,5.7584,5.7807,5.7583,5.6851,5.7049,5.7387,5.7889,5.8195,5.858,5.9099,5.9099,5.877,5.8085,5.8085,5.7723,5.6944,5.7064,5.7034,5.6944,5.6944,5.6671,5.6192,5.6102,5.5713,5.5179,5.5179,5.5179,5.5179,5.5179,5.5179,5.5179,5.5179,5.5179,5.5179,5.5179,5.5179,5.5179,5.5179,5.5179,5.5179,5.5179,5.5179,5.5179,5.5179,5.5179,5.5179,5.5179,5.5179,5.5179,5.5179,5.5346,5.5304,5.4756,5.4734,5.4843,5.5013,5.5206,5.5523,5.603,5.6274,5.6348,5.6151,5.6102,5.6077,5.6127,5.6127,5.6102,5.6053,5.6102,5.6225,5.6445,5.6664,5.681,5.681,5.734,5.7648,5.7648,5.7426,5.7327,5.7327,5.6499,5.625,5.647,5.6421,5.6519,3.5239,3.6839,3.8245,3.7872,3.9547,4.1368,4.1629,4.1655,4.1781,4.2272,4.2211,4.244,4.3713,4.5175,4.7056,4.9793,5.103,5.2269,5.4062,5.3957,5.3913,5.4402,5.4771,5.514,5.5538,5.6137,5.6508,5.6566,5.6822,5.6822,5.6423,5.6936,5.7415,5.7694,5.8333,5.8828,5.9099,5.9099,5.8949,5.865,5.8264,5.7935,5.7663,5.7663,5.7663,5.7633,5.7244,5.6944,5.6641,5.5953,5.5504,5.5179,5.5179,5.5179,5.5179,5.5179,5.5179,5.5179,5.5179,5.5179,5.5179,5.5179,5.5179,5.5179,5.5179,5.5179,5.5179,5.5179,5.5179,5.5179,5.5179,5.5179,5.5179,5.5179,5.5179,5.5299,5.5683,5.5575,5.5461,5.5641,5.5469,5.5321,5.5468,5.5591,5.5761,5.5967,5.5979,5.5979,5.6003,5.588,5.583,5.5979,5.6462,5.665,5.635,5.66,5.664,5.6427,5.664,5.6737,5.6592,5.7359,5.7728,5.7604,5.7942,5.8151,5.8151,5.772,5.7597,5.769,5.7542,5.7542,3.5553,3.7078,3.8656,3.9376,4.1014,4.2596,4.3314,4.2965,4.2844,4.4027,4.3959,4.4193,4.5802,4.7935,5.0508,5.3677,5.3738,5.3696,5.4568,5.351,5.2982,5.3894,5.3607,5.3739,5.4743,5.5148,5.5353,5.5353,5.5731,5.5875,5.5643,5.6394,5.6936,5.7077,5.8057,5.8607,5.8773,5.8991,5.9039,5.886,5.8504,5.8175,5.7846,5.8025,5.7995,5.7842,5.7334,5.7004,5.6795,5.5837,5.5354,5.5179,5.5179,5.5179,5.5179,5.5179,5.5179,5.5179,5.5179,5.5179,5.5179,5.5179,5.5324,5.5414,5.5239,5.5388,5.5598,5.5448,5.5538,5.5568,5.5269,5.5179,5.5239,5.5414,5.5418,5.5623,5.6282,5.6013,5.5854,5.6594,5.6289,5.6008,5.6234,5.6188,5.6152,5.6254,5.6013,5.5958,5.6204,5.6083,5.6033,5.6234,5.6914,5.7168,5.6736,5.7142,5.7206,5.6688,5.6905,5.7003,5.6855,5.7524,5.7794,5.772,5.8316,5.8642,5.8718,5.8642,5.8637,5.8718,5.841,5.8364,3.7,3.84,3.9871,4.1924,4.1651,4.1489,4.3555,4.3518,4.3985,4.7334,4.7312,4.7239,4.9026,5.0755,5.245,5.3952,5.5436,5.6565,5.6978,5.6478,5.5448,5.3847,5.3308,5.3153,5.3265,5.351,5.3691,5.3773,5.4316,5.4256,5.3379,5.3984,5.4614,5.5176,5.6366,5.7218,5.7778,5.8662,5.88,5.8175,5.877,5.8381,5.7184,5.7842,5.7782,5.7154,5.7124,5.6765,5.6252,5.6162,5.5773,5.5179,5.5179,5.5179,5.5179,5.5179,5.5179,5.5179,5.5179,5.5179,5.5179,5.5179,5.5623,5.6013,5.5414,5.6017,5.6825,5.6282,5.6551,5.6675,5.5508,5.5179,5.5359,5.5983,5.6132,5.6282,5.6885,5.7004,5.6974,5.703,5.703,5.6997,5.6997,5.6749,5.6671,5.6959,5.6749,5.665,5.6989,5.6997,5.6997,5.6997,5.7083,5.7112,5.7086,5.732,5.745,5.742,5.7754,5.8034,5.8262,5.8065,5.8197,5.8675,5.8283,5.8156,5.841,5.8187,5.8212,5.841,5.8131,5.8156,3.7271,3.9097,4.0926,4.1891,4.2672,4.3733,4.5841,4.6557,4.7332,4.9257,4.9904,5.0487,5.182,5.3494,5.4919,5.5641,5.6805,5.7637,5.7609,5.6222,5.4941,5.4256,5.2987,5.2187,5.2187,5.2465,5.265,5.2677,5.3258,5.3383,5.283,5.3987,5.4673,5.4675,5.6451,5.7471,5.7694,5.8634,5.8979,5.8713,5.856,5.8441,5.8351,5.8175,5.8175,5.8291,5.7453,5.6944,5.6701,5.5897,5.5444,5.5179,5.5179,5.5179,5.5179,5.5179,5.5179,5.5179,5.5179,5.5179,5.5294,5.5683,5.5983,5.6222,5.6346,5.6705,5.7034,5.6821,5.6915,5.6974,5.6496,5.6077,5.5983,5.6611,5.6462,5.6492,5.7513,5.7393,5.7214,5.7663,5.7393,5.7094,5.7094,5.6989,5.6955,5.709,5.6989,5.6955,5.709,5.7094,5.7094,5.7094,5.7483,5.7805,5.8016,5.7937,5.7884,5.7884,5.7911,5.7901,5.7824,5.8295,5.8589,5.8671,5.904,5.9279,5.9384,5.9279,5.9279,5.9384,5.9279,5.9279,3.7854,3.9528,4.1136,4.2149,4.3588,4.5435,4.8136,4.9031,4.9843,5.1833,5.2573,5.3028,5.3718,5.494,5.6,5.6344,5.7495,5.8142,5.7473,5.5789,5.4497,5.4109,5.2592,5.1596,5.1596,5.1815,5.1934,5.1934,5.2461,5.2677,5.2461,5.3685,5.4286,5.4077,5.6164,5.7274,5.7274,5.847,5.9099,5.9099,5.8623,5.868,5.9099,5.8623,5.8441,5.8411,5.7483,5.6855,5.6436,5.5538,5.5179,5.5179,5.5179,5.5179,5.5179,5.5179,5.5179,5.5209,5.5444,5.5534,5.5623,5.6282,5.6641,5.6825,5.7034,5.7244,5.7423,5.7423,5.7423,5.7423,5.7423,5.6944,5.6641,5.7274,5.6944,5.6851,5.8141,5.7902,5.7633,5.8264,5.8052,5.7723,5.7723,5.7573,5.7483,5.7693,5.7543,5.7483,5.7693,5.7723,5.7723,5.7723,5.8141,5.8494,5.8737,5.8548,5.8414,5.8414,5.8309,5.8225,5.8147,5.8467,5.8787,5.9029,5.9376,5.9698,6.0016,6.0016,6.0016,6.0016,5.988,5.9827,3.8986,3.9667,4.0472,4.3057,4.4366,4.6072,5.012,5.0462,5.1144,5.545,5.5414,5.4616,5.4616,5.4935,5.5317,5.566,5.7387,5.8142,5.6594,5.5528,5.4439,5.3234,5.2218,5.1596,5.1596,5.1596,5.1596,5.1596,5.1934,5.209,5.209,5.2738,5.3102,5.3102,5.5233,5.6394,5.6394,5.8167,5.9072,5.9072,5.9072,5.9099,5.9099,5.9099,5.8381,5.7094,5.7094,5.6376,5.5209,5.5179,5.5179,5.5179,5.5179,5.5179,5.5179,5.5179,5.5179,5.5299,5.5983,5.6192,5.6282,5.6885,5.7573,5.7965,5.7304,5.7573,5.8085,5.8115,5.8115,5.8115,5.8085,5.7633,5.7274,5.7935,5.7573,5.7453,5.88,5.859,5.8294,5.8979,5.9099,5.9099,5.9099,5.8534,5.8324,5.9009,5.8534,5.8354,5.9009,5.9099,5.9099,5.9099,5.9099,5.9099,5.9099,5.9099,5.9099,5.9099,5.9099,5.9207,5.9503,5.8604,5.8681,5.9959,5.9059,5.9059,5.999,5.999,5.999,5.999,5.9636,5.9503,3.9872,4.0972,4.2379,4.4569,4.6091,4.8125,5.2184,5.2695,5.3357,5.7157,5.7225,5.659,5.638,5.6691,5.6789,5.6205,5.7197,5.7613,5.625,5.5235,5.4259,5.3231,5.2218,5.1596,5.1596,5.1596,5.1596,5.1596,5.1934,5.1996,5.1752,5.2615,5.2983,5.2769,5.4467,5.541,5.541,5.6623,5.7191,5.7219,5.7395,5.8055,5.9099,5.8593,5.8175,5.7726,5.6855,5.6252,5.5863,5.5388,5.5179,5.5179,5.5179,5.5179,5.5179,5.5179,5.5179,5.5299,5.5983,5.5893,5.5748,5.7304,5.7334,5.6974,5.8141,5.8321,5.8205,5.8653,5.88,5.8683,5.8205,5.7935,5.7726,5.7453,5.6915,5.6821,5.8141,5.8234,5.8294,5.8979,5.9099,5.9099,5.9099,5.8949,5.889,5.9069,5.8949,5.889,5.9069,5.9099,5.9099,5.9099,5.9099,5.9099,5.9099,5.9099,5.9099,5.9099,5.9099,5.9126,5.9207,5.8946,5.9,5.9342,5.9081,5.9081,5.9372,5.9372,5.9372,5.9372,5.9261,5.9207,4.1297,4.2573,4.4066,4.6433,4.8092,5.0084,5.3771,5.4995,5.6031,5.8335,5.802,5.7341,5.7322,5.7315,5.7108,5.6586,5.7218,5.7275,5.5759,5.4941,5.4049,5.2865,5.2063,5.1596,5.1596,5.1596,5.1596,5.1596,5.1783,5.1815,5.1596,5.2306,5.2615,5.243,5.3809,5.4586,5.4586,5.5447,5.5823,5.5823,5.5927,5.6729,5.8194,5.7862,5.7723,5.7663,5.6641,5.6042,5.5773,5.5384,5.5179,5.5179,5.5179,5.5179,5.5179,5.5179,5.5179,5.5299,5.5983,5.5953,5.5833,5.7244,5.7184,5.6791,5.7962,5.7872,5.7543,5.8471,5.853,5.8291,5.8145,5.8085,5.7935,5.7244,5.6641,5.6551,5.7816,5.7876,5.7992,5.8919,5.9099,5.9099,5.9099,5.9099,5.9099,5.9099,5.9099,5.9099,5.9099,5.9338,5.9398,5.9129,5.9338,5.9398,5.9129,5.9099,5.9099,5.9099,5.9099,5.9099,5.9099,5.9099,5.9099,5.9099,5.9099,5.9099,5.9099,5.9368,5.9368,5.9129,5.9368,5.9488,4.3078,4.4338,4.5626,4.8529,5.0431,5.2311,5.5099,5.7192,5.8644,5.8943,5.8082,5.7404,5.7737,5.7274,5.6823,5.676,5.7317,5.7078,5.5088,5.4645,5.3869,5.2276,5.1783,5.1596,5.1596,5.1596,5.1596,5.1596,5.1596,5.1596,5.1596,5.1934,5.209,5.209,5.3261,5.3869,5.3869,5.4445,5.4713,5.4713,5.4458,5.5041,5.6362,5.6805,5.7012,5.6974,5.6372,5.5773,5.5179,5.5179,5.5179,5.5179,5.5179,5.5179,5.5209,5.5294,5.5239,5.5299,5.6042,5.6222,5.6222,5.6885,5.7004,5.6944,5.7064,5.6731,5.6551,5.7782,5.7723,5.7423,5.7965,5.8085,5.7935,5.7244,5.6701,5.6611,5.7782,5.7573,5.7573,5.886,5.9099,5.9099,5.9099,5.9099,5.9099,5.9099,5.9159,5.9189,5.9189,5.9787,5.9907,5.9249,5.9787,5.9877,5.9159,5.9159,5.9159,5.9099,5.9099,5.9129,5.9189,5.9129,5.9099,5.9099,5.9099,5.9099,5.9099,5.9757,5.9787,5.9219,5.9877,6.0176,4.4037,4.5465,4.7285,5.0537,5.3747,5.6369,5.7315,5.8281,5.8854,5.8411,5.8501,5.8629,5.851,5.8147,5.7566,5.662,5.6991,5.648,5.3869,5.4079,5.3809,5.1939,5.1627,5.1596,5.1596,5.1596,5.1596,5.1596,5.1596,5.1596,5.1596,5.1934,5.209,5.209,5.2619,5.2895,5.2895,5.2634,5.2488,5.249,5.2366,5.2491,5.2883,5.513,5.6249,5.6372,5.5713,5.5329,5.5179,5.5179,5.5179,5.5179,5.5179,5.5179,5.5239,5.5803,5.5653,5.5359,5.6496,5.6226,5.5598,5.6735,5.6406,5.5777,5.6795,5.7004,5.7064,5.7876,5.8381,5.859,5.8205,5.8085,5.7935,5.7244,5.7004,5.6974,5.7244,5.7633,5.8141,5.8949,5.9099,5.9099,5.9099,5.9099,5.9099,5.9099,5.9548,5.9877,5.9877,6.0475,6.0625,5.9937,6.0475,6.0416,5.9219,5.9578,5.9668,5.9129,5.9099,5.9338,5.9847,5.9368,5.9099,5.9099,5.9099,5.9099,5.9099,5.9757,6.0054,5.9877,6.0565,6.0894,4.5334,4.7145,4.9287,5.2802,5.5521,5.7461,5.7962,5.862,5.9009,5.865,5.886,5.8964,5.8527,5.8335,5.7751,5.6394,5.6423,5.5847,5.3655,5.3625,5.3325,5.2001,5.169,5.1596,5.1596,5.1596,5.1596,5.1596,5.1596,5.1596,5.1596,5.1752,5.1846,5.1846,5.2032,5.2125,5.2125,5.172,5.152,5.152,5.1336,5.1804,5.2855,5.4623,5.5709,5.6162,5.5833,5.5504,5.5179,5.5179,5.5179,5.5179,5.5179,5.5179,5.5239,5.5593,5.5504,5.5269,5.5957,5.5748,5.5299,5.5957,5.5748,5.5299,5.5987,5.6406,5.6795,5.7453,5.8085,5.8593,5.859,5.859,5.8384,5.7752,5.7334,5.7184,5.7513,5.7846,5.8294,5.8979,5.9099,5.9099,5.9099,5.9099,5.9099,5.9099,5.9668,6.0114,6.0114,6.0954,6.1194,6.0234,6.0984,6.1044,5.9697,6.0176,6.0296,5.9608,5.9877,6.0086,6.0114,6.0086,6.0057,6.0057,6.0057,6.0057,6.0057,6.0416,6.0565,6.0595,6.0954,6.1283,4.6478,4.8865,5.1304,5.4743,5.635,5.7274,5.7935,5.862,5.9072,5.9045,5.9018,5.8855,5.8278,5.814,5.764,5.6164,5.5904,5.5351,5.3743,5.3261,5.2834,5.2121,5.1752,5.1596,5.1596,5.1596,5.1596,5.1596,5.1596,5.1596,5.1596,5.1596,5.1596,5.1596,5.1596,5.1596,5.1596,5.1189,5.0996,5.097,5.0764,5.1731,5.3726,5.4306,5.5162,5.6192,5.6072,5.5713,5.5179,5.5179,5.5179,5.5179,5.5179,5.5179,5.5209,5.5354,5.5299,5.5209,5.5329,5.5299,5.5179,5.5179,5.5179,5.5179,5.5179,5.5683,5.6342,5.6915,5.7573,5.8234,5.8949,5.9099,5.8979,5.8384,5.7872,5.7573,5.7995,5.8175,5.8444,5.9009,5.9099,5.9099,5.9099,5.9099,5.9099,5.9099,5.9757,6.0266,6.0266,6.1343,6.1672,6.0535,6.1433,6.1583,6.0356,6.0894,6.0984,6.0296,6.0805,6.0894,6.0446,6.0984,6.1343,6.1433,6.1224,6.1076,6.1076,6.1224,6.1283,6.1283,6.1403,6.1732,4.6519,4.9848,5.3075,5.5505,5.6607,5.7274,5.7935,5.862,5.9018,5.88,5.8746,5.8637,5.825,5.8031,5.7416,5.6106,5.5904,5.5264,5.3443,5.3139,5.2742,5.1783,5.1627,5.1596,5.1596,5.1596,5.1596,5.1596,5.1596,5.1596,5.1596,5.1596,5.1596,5.1596,5.1596,5.1596,5.1596,5.0581,5.0062,5.0093,5.0077,5.0941,5.2475,5.309,5.441,5.6162,5.5593,5.5269,5.5179,5.5179,5.5179,5.5179,5.5179,5.5179,5.5269,5.5863,5.5713,5.5269,5.5863,5.5683,5.5179,5.5179,5.5179,5.5179,5.5179,5.5683,5.6342,5.6915,5.7573,5.8234,5.8949,5.9099,5.9069,5.9009,5.889,5.871,5.8205,5.8563,5.9009,5.9099,5.9099,5.9099,5.9099,5.9099,5.9099,5.9099,6.0176,6.0984,6.0984,6.1642,6.2032,6.1852,6.2002,6.1792,6.1044,6.1583,6.1672,6.1014,6.1046,6.1313,6.1822,6.1912,6.2241,6.2838,6.1702,6.1076,6.1076,6.1672,6.1972,6.1972,6.254,6.2898,4.8262,5.0993,5.3368,5.6029,5.6885,5.7363,5.8441,5.8755,5.8828,5.8721,5.8003,5.736,5.7219,5.7078,5.6423,5.4616,5.4318,5.3839,5.2439,5.228,5.2094,5.1659,5.1596,5.1596,5.1596,5.1596,5.1596,5.1596,5.1596,5.1596,5.1596,5.1596,5.1465,5.1152,5.1152,5.0995,5.0655,5.0132,4.9897,4.9901,5.0124,5.0628,5.1435,5.1876,5.3233,5.5165,5.504,5.5053,5.5179,5.5179,5.5179,5.5179,5.5179,5.5179,5.5239,5.5534,5.5474,5.5239,5.5564,5.5474,5.5179,5.5179,5.5179,5.5179,5.5179,5.5683,5.6342,5.6915,5.7573,5.8234,5.8949,5.9099,5.9099,5.9099,5.9099,5.9039,5.8713,5.889,5.9099,5.9099,5.9099,5.9099,5.9099,5.9099,5.9219,5.9608,6.0475,6.1076,6.1076,6.1702,6.1942,6.1583,6.1882,6.1972,6.1702,6.2271,6.2361,6.1702,6.2002,6.2181,6.2091,6.245,6.2808,6.3108,6.251,6.2211,6.2211,6.2121,6.2271,6.266,6.2599,6.2748,4.8988,5.094,5.2526,5.5405,5.6466,5.7154,5.8244,5.8589,5.8582,5.8197,5.7191,5.6222,5.5672,5.5759,5.5381,5.3719,5.3261,5.278,5.1883,5.1542,5.1335,5.1178,5.1309,5.1387,5.1387,5.1387,5.1387,5.1387,5.1387,5.1387,5.1387,5.1387,5.1204,5.0812,5.0629,5.0342,4.9897,4.974,4.9688,4.9718,5.0267,5.0457,5.039,5.1183,5.2146,5.3276,5.4016,5.4466,5.4641,5.4641,5.4513,5.4304,5.441,5.4406,5.4462,5.4773,5.4875,5.49,5.5103,5.5179,5.5179,5.5179,5.5179,5.5179,5.5179,5.5564,5.6102,5.6885,5.7453,5.8025,5.889,5.9099,5.9099,5.9099,5.9099,5.9099,5.9099,5.9099,5.9099,5.9099,5.9099,5.9099,5.9099,5.9099,5.9279,5.9757,6.0416,6.0924,6.1104,6.1553,6.1792,6.1642,6.1912,6.2181,6.2331,6.2808,6.2898,6.2391,6.2838,6.2898,6.2361,6.2838,6.3108,6.3108,6.3108,6.3108,6.3108,6.26,6.26,6.3108,6.2599,6.26,4.7265,4.8739,5.0329,5.2798,5.4845,5.6354,5.6727,5.7803,5.828,5.6822,5.6451,5.5759,5.3658,5.3989,5.4556,5.4437,5.3658,5.289,5.2265,5.1394,5.0629,5.0054,5.0472,5.0838,5.0838,5.0838,5.0838,5.0838,5.0838,5.0838,5.0838,5.0838,5.0812,5.0786,5.0237,4.9923,4.9897,4.9404,4.9139,4.9143,5.0307,5.0277,4.9268,5.1238,5.1402,5.0237,5.2217,5.31,5.3126,5.3126,5.2619,5.192,5.2163,5.2271,5.2405,5.355,5.3971,5.4101,5.4926,5.5179,5.5179,5.5179,5.5179,5.5179,5.5179,5.5209,5.5508,5.6735,5.7124,5.7453,5.877,5.9099,5.9099,5.9099,5.9099,5.9099,5.9099,5.9099,5.9099,5.9099,5.9099,5.9099,5.9099,5.9099,5.9129,5.9159,5.9727,6.0386,6.1044,6.1134,6.1642,6.2868,6.245,6.2361,6.2988,6.3078,6.3108,6.3048,6.3078,6.3078,6.3048,6.3078,6.3108,6.3108,6.3108,6.3108,6.3108,6.3078,6.3078,6.3108,6.3078,6.3078,4.6211,4.7412,4.8848,5.0971,5.2996,5.4658,5.5337,5.6634,5.7357,5.602,5.5448,5.4734,5.3383,5.3383,5.3278,5.2265,5.1842,5.1416,5.0809,5.0423,5.0132,4.9923,5.008,5.0211,5.0211,5.0211,5.0211,5.0211,5.0577,5.0629,5.0237,5.0577,5.0446,4.9714,4.9479,4.9191,4.8799,4.8616,4.8512,4.8541,4.8974,4.8945,4.8571,4.9293,4.9644,4.9701,5.0434,5.1292,5.2163,5.2163,5.2001,5.1702,5.1811,5.1866,5.192,5.2325,5.2861,5.339,5.386,5.4436,5.4981,5.5128,5.5179,5.5179,5.5179,5.5179,5.5448,5.6735,5.7094,5.7393,5.874,5.9099,5.9099,5.9099,5.9099,5.9099,5.9099,5.9099,5.9099,5.9099,5.9099,5.9099,5.9099,5.9458,5.9877,6.0326,6.0595,6.0835,6.1074,6.1076,6.1255,6.1762,6.2002,6.2361,6.3048,6.3108,6.3108,6.3108,6.3108,6.3108,6.3108,6.3108,6.3108,6.3108,6.3108,6.3108,6.3108,6.3108,6.3108,6.3108,6.3108,6.3108,4.4761,4.5616,4.6767,4.8787,5.0501,5.2046,5.3464,5.4619,5.5204,5.4486,5.4034,5.3501,5.2719,5.2619,5.2187,5.1014,5.0786,5.0577,4.9976,4.9897,4.9819,4.9636,4.9793,4.9819,4.9636,4.961,4.961,4.961,5.0159,5.0237,4.9636,5.0159,4.9976,4.8855,4.8803,4.862,4.8201,4.8201,4.8201,4.8201,4.8492,4.8492,4.8201,4.8492,4.8784,4.9043,4.9043,4.9786,5.0962,5.0962,5.0795,5.0545,5.0657,5.0684,5.074,5.1127,5.1621,5.2217,5.2992,5.3652,5.4282,5.4875,5.5082,5.5082,5.5154,5.5179,5.5418,5.6521,5.6944,5.7363,5.8471,5.8949,5.9099,5.9099,5.9099,5.9099,5.9099,5.9099,5.9099,5.9099,5.9279,5.9428,5.9428,5.9997,6.0595,6.1016,6.0924,6.0864,6.1074,6.0894,6.0954,6.1403,6.1822,6.2361,6.3048,6.3108,6.3108,6.3108,6.3108,6.3108,6.3108,6.3108,6.3108,6.3108,6.3108,6.3108,6.3108,6.3108,6.3108,6.3108,6.3108,6.3108,0.0,0.0,0.0,4.6025,4.7285,4.8644,5.1073,5.1699,5.1849,5.209,5.211,5.1997,5.1652,5.157,5.1387,5.0864,5.076,5.0551,4.9949,4.9845,4.9636,4.9143,4.9531,4.9666,4.9113,4.9061,4.9061,4.9061,4.9557,4.9636,4.9117,4.9557,4.9322,4.8224,4.8201,4.8201,4.8201,4.8201,4.8201,4.8201,4.9043,4.9014,4.823,4.9072,4.8986,4.8201,4.8201,4.8695,4.9472,4.9472,4.8957,4.823,4.8548,4.869,4.8808,4.9926,5.0349,5.0628,5.2298,5.2941,5.3126,5.4337,5.4751,5.4803,5.5053,5.5154,5.5329,5.6013,5.6641,5.7244,5.7935,5.8593,5.9099,5.9099,5.9099,5.9099,5.9099,5.9129,5.9129,5.9129,5.9668,6.0116,6.0116,6.0685,6.1134,6.1134,6.0565,6.0386,6.1044,6.0535,6.0595,6.1882,6.2061,6.2331,6.3018,6.3078,6.3078,6.3108,6.3108,6.3108,6.3108,6.3078,6.3078,6.3108,6.3078,6.3078,6.3108,6.3108,6.3108,6.3108,6.3108,6.3108,4.1749,0.0,0.0,0.0,0.0,0.0,4.6982,4.8384,4.9655,5.014,5.0284,5.0449,5.0918,5.1021,5.0812,5.0237,5.0132,4.9949,4.9401,4.896,4.862,4.8489,4.8594,4.859,4.8463,4.8433,4.8433,4.8433,4.8982,4.909,4.8489,4.8594,4.8541,4.8227,4.8201,4.8201,4.8201,4.8201,4.8201,4.8201,4.8434,4.8434,4.8201,4.8463,4.8434,4.8201,4.8201,4.8347,4.855,4.855,4.8405,4.8201,4.8315,4.8344,4.8373,4.8695,4.9215,4.9843,5.0545,5.121,5.1867,5.2378,5.2994,5.355,5.3808,5.4385,5.5075,5.5961,5.6641,5.7363,5.853,5.8979,5.9099,5.9099,5.9099,5.9099,5.9099,5.9488,5.9817,5.9817,6.0356,6.0835,6.0835,6.1373,6.1822,6.1822,6.1672,6.1433,6.1164,6.0954,6.0775,6.0655,6.1104,6.1642,6.2301,6.2361,6.257,6.3078,6.3108,6.3108,6.3108,6.263,6.26,6.3108,6.26,6.2629,6.3108,6.3108,6.3108,6.3108,6.3108,6.3108,0.0,0.0,0.0,4.1297,0.0,0.0,4.4944,4.5842,4.682,4.8377,4.8494,4.8603,4.9546,4.9897,5.0028,4.9897,4.9688,4.9531,4.9427,4.9113,4.8855,4.859,4.8594,4.8489,4.8198,4.8201,4.8201,4.8201,4.8777,4.896,4.859,4.8358,4.8201,4.8201,4.8201,4.8201,4.8201,4.8201,4.8201,4.8201,4.7937,4.7963,4.8201,4.7937,4.7963,4.8201,4.8201,4.8201,4.8201,4.8201,4.8201,4.8201,4.8201,4.8201,4.8201,4.8201,4.8521,4.9043,4.9559,5.0096,5.0656,5.132,5.1866,5.2434,5.3045,5.36,5.4266,5.5325,5.6328,5.7393,5.874,5.9099,5.9099,5.9099,5.9099,5.9189,5.9458,6.0027,6.0416,6.0146,6.0864,6.1523,6.1523,6.2061,6.2539,6.2539,6.2271,6.1852,6.1194,6.0864,6.0535,6.0116,6.0446,6.0954,6.1642,6.1672,6.1972,6.2659,6.2421,6.2391,6.266,6.2032,6.1882,6.2241,6.2151,6.2421,6.3108,6.3108,6.3108,6.3108,6.3108,6.3108,0.0,0.0,0.0,4.1021,4.1089,0.0,4.3966,4.3755,4.3863,4.6517,4.6581,4.6501,4.7675,4.8381,4.896,4.9348,4.927,4.9348,4.9819,4.9845,4.9584,4.9035,4.9064,4.8852,4.825,4.8201,4.8201,4.8201,4.8698,4.9012,4.9012,4.8515,4.8201,4.8201,4.8201,4.8201,4.8201,4.8201,4.8201,4.8201,4.7568,4.7594,4.8172,4.7568,4.762,4.8201,4.8201,4.8201,4.8201,4.8201,4.8201,4.8201,4.8201,4.8201,4.8201,4.8201,4.8201,4.8289,4.91,4.9358,4.9529,5.0601,5.1017,5.132,5.2461,5.2888,5.3234,5.4643,5.5994,5.7367,5.874,5.9099,5.9099,5.9099,5.9159,5.9368,5.9967,6.0685,6.1044,6.0416,6.1343,6.2211,6.2211,6.2718,6.3078,6.3018,6.254,6.1942,6.1224,6.0565,6.0176,6.0114,6.0027,6.0266,6.0954,6.1014,6.1283,6.1942,6.1433,6.1373,6.1972,6.1343,6.1044,6.1076,6.1762,6.2391,6.2988,6.3078,6.3108,6.3108,6.3108,6.3108,4.1082,4.0788,4.0666,4.0491,4.0794,0.0,4.1206,4.1585,4.2318,4.3624,4.3756,4.4172,4.5792,4.6604,4.6865,4.6497,4.8303,4.9766,4.9871,4.9505,4.9064,4.8463,4.8773,4.8852,4.825,4.8201,4.8201,4.8201,4.8332,4.8384,4.8384,4.825,4.8201,4.8201,4.8201,4.8201,4.8201,4.8201,4.8201,4.8201,4.7568,4.7594,4.8172,4.7568,4.762,4.8201,4.8201,4.8201,4.8201,4.8201,4.8201,4.8201,4.8201,4.8201,4.8201,4.8201,4.8201,4.8201,4.8376,4.8463,4.8492,4.8753,4.9272,5.0068,5.1293,5.211,5.3198,5.5653,5.6548,5.716,5.8716,5.9099,5.9099,5.9099,5.9518,5.9937,6.0057,6.1044,6.1882,6.1732,6.2361,6.2898,6.2898,6.3018,6.2928,6.2361,6.2659,6.245,6.1253,6.1014,6.0715,6.0174,5.9608,5.9578,6.0236,6.0296,6.0565,6.1253,6.1166,6.1136,6.1313,6.0655,6.0535,6.1076,6.1762,6.2151,6.2301,6.2838,6.3108,6.3108,6.3108,6.3108,4.1258,4.1141,4.1157,4.0983,4.1143,0.0,0.0,4.0928,4.1229,4.2105,4.1968,4.2056,4.3232,4.4173,4.4853,4.514,4.6891,4.8277,4.859,4.9374,4.9714,4.9113,4.9061,4.8956,4.8698,4.8384,4.8201,4.8201,4.8201,4.8201,4.8201,4.8201,4.8201,4.8201,4.8201,4.8201,4.8201,4.8201,4.8201,4.8201,4.7568,4.7594,4.8172,4.7568,4.762,4.8201,4.8201,4.8201,4.8201,4.8201,4.8201,4.8201,4.8201,4.8201,4.8201,4.8201,4.8201,4.8201,4.8201,4.8201,4.8201,4.8201,4.8492,4.9043,5.0096,5.1681,5.3523,5.5691,5.6622,5.7256,5.8562,5.8882,5.8909,5.9072,5.9608,6.0176,6.0535,6.1403,6.2181,6.251,6.2868,6.3108,6.3108,6.3108,6.2868,6.2181,6.2391,6.2121,6.0775,6.0894,6.0715,5.9697,5.9608,5.9608,5.9608,5.9608,5.9877,6.0565,6.0296,6.0266,6.0595,5.9967,5.9907,6.0595,6.0924,6.1253,6.1613,6.2271,6.2778,6.3108,6.3108,6.3108,4.1899,4.1868,4.1931,4.196,4.1874,4.1737,0.0,0.0,0.0,4.1093,4.0665,4.0336,4.0805,4.177,4.2762,4.3597,4.5009,4.6133,4.6519,4.8535,4.9766,4.9296,4.9064,4.8878,4.8747,4.8198,4.7937,4.8172,4.8018,4.7992,4.8201,4.8201,4.8201,4.8201,4.8201,4.8201,4.8201,4.8201,4.8201,4.8201,4.7568,4.7594,4.8172,4.7568,4.762,4.8201,4.8201,4.8201,4.8201,4.8201,4.8201,4.8201,4.8201,4.8201,4.8201,4.8201,4.8201,4.8201,4.8201,4.8201,4.8201,4.8201,4.8289,4.8579,4.9301,5.1237,5.3571,5.5159,5.6207,5.7124,5.8295,5.8582,5.8664,5.8936,5.9526,6.0211,6.0926,6.1642,6.2301,6.2988,6.3108,6.3108,6.3108,6.3108,6.2868,6.2181,6.2211,6.1852,6.0625,6.0954,6.0835,5.9608,5.9847,5.9817,5.9159,5.9099,5.9338,5.9847,5.9398,5.9338,5.9877,5.9398,5.9338,5.9877,6.0027,6.0356,6.0924,6.1702,6.2361,6.2928,6.3048,6.3108,4.3804,4.3405,4.2915,4.3143,4.2835,4.2219,4.113,0.0,4.0348,3.9902,0.0,3.9366,3.9417,0.0,0.0,3.9933,4.2293,4.4093,4.3876,4.5653,4.6972,4.6894,4.7702,4.8094,4.7568,4.7022,4.7129,4.812,4.726,4.7129,4.8149,4.8201,4.8201,4.8201,4.8201,4.8201,4.8201,4.8201,4.8201,4.8201,4.7568,4.7594,4.8172,4.7568,4.762,4.8201,4.8201,4.8201,4.8201,4.8201,4.8201,4.8201,4.8201,4.8201,4.8201,4.8201,4.8201,4.8201,4.8201,4.8201,4.8201,4.8201,4.8724,4.9387,4.9472,5.0618,5.2295,5.4142,5.5104,5.6016,5.7798,5.825,5.8362,5.8664,5.9252,5.9991,6.0898,6.1642,6.2301,6.2988,6.3108,6.3108,6.3108,6.3108,6.2868,6.2181,6.2629,6.2718,6.1972,6.1942,6.1702,6.0954,6.0416,5.9817,5.9159,5.9099,5.9129,5.9219,5.9129,5.9129,5.9219,5.9129,5.9129,5.9219,5.9787,6.0144,6.0234,6.1463,6.2121,6.2211,6.2838,6.3108,4.3898,4.3747,4.346,4.3433,4.2998,4.2278,4.1091,4.0606,4.0254,3.9511,0.0,0.0,0.0,0.0,0.0,0.0,4.1157,4.2449,4.2475,4.3514,4.4896,4.6534,4.6728,4.6576,4.634,4.6105,4.6316,4.7155,4.6447,4.6473,4.7623,4.7702,4.7832,4.8201,4.8201,4.8201,4.8201,4.8201,4.8201,4.8201,4.7937,4.7937,4.8201,4.7937,4.7963,4.8201,4.8201,4.8201,4.8201,4.8201,4.8201,4.8201,4.8201,4.8201,4.8201,4.8201,4.8201,4.8201,4.8201,4.8201,4.8201,4.8201,4.8463,4.8842,4.9358,5.0406,5.1768,5.3076,5.4516,5.5937,5.6878,5.7556,5.8147,5.8837,5.9622,6.0415,6.124,6.2067,6.2778,6.3048,6.3108,6.3108,6.3108,6.3108,6.2868,6.2181,6.2331,6.2271,6.1613,6.1852,6.1852,6.1166,6.0864,6.0416,5.9727,5.9308,5.9099,5.9099,5.9099,5.9099,5.9099,5.9099,5.9099,5.9099,5.9368,5.9518,5.9518,6.0475,6.1134,6.1553,6.26,6.3108,4.4448,4.4428,4.4271,4.3777,4.3187,4.2388,4.1206,4.0671,4.0243,3.9574,3.9036,0.0,0.0,0.0,3.895,3.9109,0.0,4.0747,4.095,4.1414,4.2709,4.528,4.55,4.5374,4.5374,4.5245,4.5375,4.6004,4.5323,4.5452,4.6758,4.6837,4.7176,4.7937,4.7937,4.8015,4.8201,4.8201,4.8201,4.8201,4.8201,4.8201,4.8201,4.8201,4.8201,4.8201,4.8201,4.8201,4.8201,4.8201,4.8201,4.8201,4.8201,4.8201,4.8201,4.8201,4.8201,4.8201,4.8201,4.8201,4.8201,4.8201,4.8201,4.837,4.9141,5.0092,5.1153,5.2256,5.3813,5.5235,5.5759,5.6566,5.7506,5.8457,5.941,6.031,6.1283,6.2048,6.2609,6.2933,6.2963,6.2992,6.3079,6.3108,6.2928,6.245,6.2361,6.2181,6.1702,6.2061,6.2121,6.1463,6.1196,6.0835,6.0174,5.9488,5.9099,5.9099,5.9099,5.9099,5.9099,5.9099,5.9099,5.9099,5.9099,5.9099,5.9099,5.9757,6.0356,6.0864,6.2181,6.2928,4.622,4.6095,4.5658,4.4553,4.3618,4.2683,4.1559,4.087,4.0387,4.0071,3.9743,3.9316,3.8534,3.8824,3.8838,0.0,3.8347,0.0,0.0,3.9121,4.0087,4.2108,4.3834,4.4827,4.4827,4.4304,4.42,4.4801,4.3755,4.3833,4.5557,4.5661,4.6158,4.7307,4.7333,4.7594,4.8201,4.8201,4.8201,4.8201,4.8201,4.8201,4.8201,4.8201,4.8201,4.8201,4.8201,4.8201,4.8201,4.8201,4.8201,4.8201,4.8201,4.8201,4.8201,4.8201,4.8201,4.8201,4.8201,4.8201,4.8201,4.8201,4.8201,4.8332,4.8937,4.9513,5.0274,5.1793,5.2685,5.3413,5.4318,5.5264,5.6191,5.7137,5.8089,5.9212,6.0791,6.1144,6.1466,6.2437,6.2615,6.2731,6.305,6.3108,6.3108,6.3078,6.3078,6.3078,6.3048,6.3048,6.2808,6.2121,6.1493,6.0835,6.0174,5.9488,5.9099,5.9099,5.9099,5.9099,5.9099,5.9099,5.9099,5.9099,5.9099,5.9099,5.9099,5.9757,6.0114,6.0146,6.1493,6.248,4.6068,4.6095,4.595,4.4622,4.3624,4.2762,4.1826,4.1465,4.1055,4.0236,3.9981,3.9702,3.8894,3.8892,0.0,0.0,0.0,3.8453,0.0,3.8786,3.9681,4.0924,4.1931,4.263,4.2788,4.2632,4.297,4.4121,4.3127,4.3206,4.4904,4.5008,4.5531,4.6734,4.7098,4.7568,4.8201,4.8201,4.8201,4.8201,4.8201,4.8201,4.8201,4.8201,4.8201,4.8201,4.8201,4.8201,4.8201,4.8201,4.8201,4.8201,4.8201,4.8201,4.8201,4.8201,4.8433,4.8855,4.9191,4.9087,4.8826,4.9191,4.9061,4.8878,4.9453,5.0028,5.0616,5.1136,5.2135,5.317,5.3477,5.4734,5.6188,5.7356,5.8523,5.974,6.1116,6.1586,6.1851,6.2204,6.2468,6.2644,6.276,6.2963,6.3108,6.3108,6.3108,6.3108,6.3108,6.3108,6.3018,6.2808,6.2151,6.1493,6.0835,5.9757,5.9099,5.9099,5.9099,5.9099,5.9099,5.9099,5.9099,5.9099,5.9099,5.9099,5.9099,5.9338,5.9668,6.0116,6.1014,6.1792,4.6346,4.6404,4.6317,4.4705,4.3704,4.2918,4.2009,4.175,4.1465,4.0566,4.0362,4.0183,3.9573,3.9246,3.8818,0.0,0.0,0.0,0.0,3.8313,3.9054,3.9419,4.0721,4.1621,4.1776,4.1905,4.2216,4.2918,4.2291,4.2448,4.3755,4.3989,4.4721,4.6133,4.6734,4.7414,4.8201,4.8201,4.8201,4.8201,4.8201,4.8201,4.8201,4.8201,4.8201,4.8201,4.8201,4.8201,4.8201,4.8201,4.8201,4.8201,4.8201,4.8201,4.8201,4.8201,4.8463,4.8881,4.9401,4.9374,4.9195,4.9744,4.9662,4.9479,5.0054,5.0472,5.0864,5.1282,5.1958,5.2642,5.2824,5.4045,5.5466,5.6528,5.8095,5.9623,6.0664,6.1345,6.1821,6.188,6.2204,6.2468,6.2585,6.2876,6.3108,6.3108,6.3108,6.3108,6.3108,6.3108,6.3108,6.3108,6.248,6.1732,6.0835,5.9727,5.9099,5.9099,5.9099,5.9099,5.9099,5.9099,5.9219,5.9458,5.9219,5.9219,5.9458,5.9219,5.9308,5.9757,6.0446,6.0984]}]]